[[{"header":{"parameterUnit":"m.s-1","parameterCategory":1,"la1":30.6,"la2":29.2853,"lo1":-89.7004,"lo2":-87.6739,"dy":0.0162,"dx":0.0183,"nx":112,"ny":82,"refTime":"2024-09-02T18:00:00:Z","depth":0,"parameterNumber":2,"parameterNumberName":"U-component_of_WINDS"},"data":[0.0,0.0,0.0,0.0,0.0,0.0,0.0,0.0,0.0,0.0,0.0,0.0,0.0,0.0,0.0,0.0,0.0,0.0,0.0,0.0,0.0,0.0,0.0,0.0,0.0,0.0,0.0,0.0,0.0,0.0,0.0,0.0,0.0,0.0,0.0,0.0,0.0,0.0,0.0,0.0,0.0,0.0,0.0,0.0,0.0,0.0,0.0,0.0,0.0,0.0,0.0,0.0,0.0,0.0,0.0,0.0,0.0,0.0,0.0,0.0,0.0,0.0,0.0,0.0,0.0,0.0,0.0,0.0,0.0,0.0,0.0,0.0,0.0,0.0,0.0,0.0,0.0,0.0,0.0,0.0,0.0,0.0,0.0,0.0,0.0,0.0,0.0,0.0,0.0,0.0,0.6373,0.6411,0.6398,0.6387,0.6387,0.6387,0.6344,0.6127,0.0,0.0,0.0,0.0,0.0,0.0,0.0,0.0,0.0,0.0,0.0,0.0,0.0,0.0,0.0,0.0,0.0,0.0,0.0,0.0,0.0,0.0,0.0,0.0,0.0,0.0,0.0,0.0,0.0,0.0,0.0,0.0,0.0,0.0,0.0,0.0,0.0,0.0,0.0,0.0,0.0,0.0,0.0,0.0,0.0,0.0,0.0,0.0,0.0,0.0,0.0,0.0,0.0,0.0,0.0,0.0,0.0,0.0,0.0,0.0,0.0,0.0,0.0,0.0,0.0,0.0,0.0,0.0,0.0,0.0,0.0,0.0,0.0,0.0,0.0,0.0,0.0,0.0,0.0,0.0,0.0,0.0,0.0,0.0,0.0,0.0,0.0,0.0,0.0,0.0,0.0,0.0,0.0,0.0,0.0,0.0,0.0,0.0,0.0,0.0,0.0,0.0,0.0,0.0,0.6372,0.657,0.6449,0.6387,0.6387,0.6387,0.638,0.6298,0.0,0.0,0.0,0.0,0.0,0.0,0.0,0.0,0.0,0.0,0.0,0.0,0.0,0.0,0.0,0.0,0.0,0.0,0.0,0.0,0.0,0.0,0.0,0.0,0.0,0.0,0.0,0.0,0.0,0.0,0.0,0.0,0.0,0.0,0.0,0.0,0.0,0.0,0.0,0.0,0.0,0.0,0.0,0.0,0.0,0.0,0.0,0.0,0.0,0.0,0.0,0.0,0.0,0.0,0.0,0.0,0.0,0.0,0.0,0.0,0.0,0.0,0.0,0.0,0.0,0.0,0.0,0.0,0.0,0.0,0.0,0.0,0.0,0.0,0.0,0.0,0.0,0.0,0.0,0.0,0.0,0.0,0.0,0.0,0.0,0.0,0.0,0.0,0.0,0.0,0.0,0.0,0.0,0.0,0.0,0.0,0.0,0.0,0.0,0.0,0.0,0.0,0.0,0.5853,0.6135,0.5796,0.6139,0.6387,0.6387,0.6387,0.6361,0.6181,0.5945,0.0,0.0,0.0,0.0,0.0,0.0,0.0,0.0,0.0,0.0,0.0,0.0,0.0,0.0,0.0,0.0,0.0,0.0,0.0,0.0,0.0,0.0,0.0,0.0,0.0,0.0,0.0,0.0,0.0,0.0,0.0,0.0,0.0,0.0,0.0,0.0,0.0,0.0,0.0,0.0,0.0,0.0,0.0,0.0,0.0,0.0,0.0,0.0,0.0,0.0,0.0,0.0,0.0,0.0,0.0,0.0,0.0,0.0,0.0,0.0,0.0,0.0,0.0,0.0,0.0,0.0,0.0,0.0,0.0,0.0,0.0,0.0,0.0,0.0,0.0,0.0,0.0,0.0,0.0,0.0,0.0,0.0,0.0,0.0,0.0,0.0,0.0,0.0,0.0,0.0,0.0,0.0,0.0,0.0,0.0,0.0,0.0,0.0,0.0,0.0,0.0,0.0,0.525,0.542,0.5041,0.559,0.6134,0.6387,0.6363,0.6306,0.61,0.5836,0.0,0.0,0.0,0.0,0.0,0.0,0.0,0.0,0.0,0.0,0.0,0.0,0.0,0.0,0.0,0.0,0.0,0.0,0.0,0.0,0.0,0.0,0.0,0.0,0.0,0.0,0.0,0.0,0.0,0.0,0.0,0.0,0.0,0.0,0.0,0.0,0.0,0.0,0.0,0.0,0.0,0.0,0.0,0.0,0.0,0.0,0.0,0.0,0.0,0.0,0.0,0.0,0.0,0.0,0.0,0.0,0.0,0.0,0.0,0.0,0.0,0.0,0.0,0.0,0.0,0.0,0.0,0.0,0.0,0.0,0.0,0.0,0.0,0.0,0.0,0.0,0.0,0.0,0.0,0.0,0.0,0.0,0.0,0.0,0.0,0.0,0.0,0.0,0.0,0.0,0.0,0.0,0.0,0.0,0.0,0.0,0.0,0.0,0.0,0.0,0.0,0.0,0.3934,0.3799,0.491,0.494,0.5336,0.6337,0.6339,0.6225,0.6094,0.5712,0.0,0.0,0.0,0.0,0.0,0.0,0.0,0.0,0.0,0.0,0.0,0.0,0.0,0.0,0.0,0.0,0.0,0.0,0.0,0.0,0.0,0.0,0.0,0.0,0.0,0.0,0.0,0.0,0.0,0.0,0.0,0.0,0.0,0.0,0.0,0.0,0.0,0.0,0.0,0.0,0.0,0.0,0.0,0.0,0.0,0.0,0.0,0.0,0.0,0.0,0.0,0.0,0.0,0.0,0.0,0.0,0.0,0.0,0.0,0.0,0.0,0.0,0.0,0.0,0.0,0.0,0.0,0.0,0.0,0.0,0.0,0.0,0.0,0.0,0.0,0.0,0.0,0.0,0.0,0.0,0.0,0.0,0.0,0.0,0.0,0.0,0.0,0.0,0.0,0.0,0.0,0.0,0.0,0.0,0.0,0.0,0.0,0.0,0.0,0.0,0.0,0.0,0.3309,0.3006,0.0,0.405,0.4985,0.5386,0.5999,0.629,0.6097,0.0,0.0,0.0,0.0,0.0,0.0,0.0,0.0,0.0,0.0,0.0,0.0,0.0,0.0,0.0,0.0,0.0,0.0,0.0,0.0,0.0,0.0,0.0,0.0,0.0,0.0,0.0,0.0,0.0,0.0,0.0,0.0,0.0,0.0,0.0,0.0,0.0,0.0,0.0,0.0,0.0,0.0,0.0,0.0,0.0,0.0,0.0,0.0,0.0,0.0,0.0,0.0,0.0,0.0,0.0,0.0,0.0,0.0,0.0,0.0,0.0,0.0,0.0,0.0,0.0,0.0,0.0,0.0,0.0,0.0,0.0,0.0,0.0,0.0,0.0,0.0,0.0,0.0,0.0,0.0,0.0,0.0,0.0,0.0,0.0,0.0,0.0,0.0,0.0,0.0,0.0,0.0,0.0,0.0,0.0,0.0,0.0,0.0,0.0,0.0,0.0,0.0,0.297,0.2422,0.1951,0.0,0.2925,0.4079,0.4734,0.5103,0.5542,0.5996,0.0,0.0,0.0,0.0,0.0,0.0,0.0,0.0,0.0,0.0,0.0,0.0,0.0,0.0,0.0,0.0,0.0,0.0,0.0,0.0,0.0,0.0,0.0,0.0,0.0,0.0,0.0,0.0,0.0,0.0,0.0,0.0,0.0,0.0,0.0,0.0,0.0,0.0,0.0,0.0,0.0,0.0,0.0,0.0,0.0,0.0,0.0,0.0,0.0,0.0,0.0,0.0,0.0,0.0,0.0,0.0,0.0,0.0,0.0,0.0,0.0,0.0,0.0,0.0,0.0,0.0,0.0,0.0,0.0,0.0,0.0,0.0,0.0,0.0,0.0,0.0,0.0,0.0,0.0,0.0,0.0,0.0,0.0,0.0,0.0,0.0,0.0,0.0,0.0,0.0,0.0,0.0,0.0,0.0,0.0,0.0,0.0,0.0,0.0,0.0,0.0,0.0,0.2874,0.1217,0.0415,0.1452,0.1581,0.247,0.4582,0.3662,0.3802,0.0,0.0,0.0,0.0,0.0,0.0,0.0,0.0,0.0,0.0,0.0,0.0,0.0,0.0,0.0,0.0,0.0,0.0,0.0,0.0,0.0,0.0,0.0,0.0,0.0,0.0,0.0,0.0,0.0,0.0,0.0,0.0,0.0,0.0,0.0,0.0,0.0,0.0,0.0,0.0,0.0,0.0,0.0,0.0,0.0,0.0,0.0,0.0,0.0,0.0,0.0,0.0,0.0,0.0,0.0,0.0,0.0,0.0,0.0,0.0,0.0,0.0,0.0,0.0,0.0,0.0,0.0,0.0,0.0,0.0,0.0,0.0,0.0,0.0,0.0,0.0,0.0,0.0,0.0,0.0,0.0,0.0,0.0,0.0,0.0,0.0,0.0,0.0,0.0,0.0,0.0,0.0,0.0,0.0,0.0,0.0,0.0,0.0,0.0,0.0,0.0,0.0,0.0,0.2882,0.1202,0.0107,0.0424,0.1144,0.1841,0.2472,0.2907,0.3614,0.4717,0.0,0.0,0.0,0.0,0.0,0.0,0.0,0.0,0.0,0.0,0.0,0.0,0.0,0.0,0.0,0.0,0.0,0.0,0.0,0.0,0.0,0.0,0.0,0.0,0.0,0.0,0.0,0.0,0.0,0.0,0.0,0.0,0.0,0.0,0.0,0.0,0.0,0.0,0.0,0.0,0.0,0.0,0.0,0.0,0.0,0.0,0.0,0.0,0.0,0.0,0.0,0.0,0.0,0.0,0.0,0.0,0.0,0.0,0.0,0.0,0.0,0.0,0.0,0.0,0.0,0.0,0.0,0.0,0.0,0.0,0.0,0.0,0.0,0.0,0.0,0.0,0.0,0.0,0.0,0.0,0.0,0.0,0.0,0.0,0.0,0.0,0.0,0.0,0.0,0.0,0.0,0.0,0.0,0.0,0.0,0.0,0.0,0.0,0.0,0.0,0.0,0.0,0.2859,0.1217,0.0,0.0,0.0577,0.1132,0.1566,0.1815,0.2466,0.3652,0.0,0.0,0.0,0.0,0.0,0.0,0.0,0.0,0.0,0.0,0.0,0.0,0.0,0.0,0.0,0.0,0.0,0.0,0.0,0.0,0.0,0.0,0.0,0.0,0.0,0.0,0.0,0.0,0.0,0.0,0.0,0.0,0.0,0.0,0.0,0.0,0.0,0.0,0.0,0.0,0.0,0.0,0.0,0.0,0.0,0.0,0.0,0.0,0.0,0.0,0.0,0.0,0.0,0.0,0.0,0.0,0.0,0.0,0.0,0.0,0.0,0.0,0.0,0.0,0.0,0.0,0.0,0.0,0.0,0.0,0.0,0.0,0.0,0.0,0.0,0.0,0.0,0.0,0.0,0.0,0.0,0.0,0.0,0.0,0.0,0.0,0.0,0.0,0.0,0.0,0.0,0.0,0.0,0.0,0.0,0.0,0.0,0.0,0.0,0.0,0.0,0.0,0.2864,0.1219,0.0,0.0,0.0,0.0413,0.1364,0.0555,0.0794,0.2621,0.0,0.0,0.0,0.0,0.0,0.0,0.0,0.0,0.0,0.0,0.0,0.0,0.0,0.0,0.0,0.0,0.0,0.0,0.0,0.0,0.0,0.0,0.0,0.0,0.0,0.0,0.0,0.0,0.0,0.0,0.0,0.0,0.0,0.0,0.0,0.0,0.0,0.0,0.0,0.0,0.0,0.0,0.0,0.0,0.0,0.0,0.0,0.0,0.0,0.0,0.0,0.0,0.0,0.0,0.0,0.0,0.0,0.0,0.0,0.0,0.3279,0.4338,0.0,0.0,0.0,0.0,0.0,0.0,0.0,0.0,0.0,0.0,0.0,0.0,0.0,0.0,0.0,0.0,0.0,0.0,0.0,0.0,0.0,0.0,0.0,0.0,0.0,0.0,0.0,0.0,0.0,0.0,0.0,0.0,0.0,0.0,0.0,0.0,0.0,0.0,0.0,0.0,0.2919,0.1177,0.0,0.0,0.0,0.0105,0.0304,0.0151,0.0447,0.1573,0.1421,0.0,0.0,0.0,0.0,0.0,0.0,0.0,0.0,0.0,0.0,0.0,0.0,0.0,0.0,0.0,0.0,0.0,0.0,0.0,0.0,0.0,0.0,0.0,0.0,0.0,0.0,0.0,0.0,0.0,0.0,0.0,0.0,0.0,0.0,0.0,0.0,0.0,0.0,0.0,0.0,0.0,0.0,0.0,0.0,0.0,0.0,0.0,0.0,0.0,0.0,0.0,0.0,0.0,0.0,0.0,0.0,0.0,0.0,0.0,0.2766,0.3339,0.0,0.0,0.0,0.0,0.0,0.0,0.0,0.0,0.0,0.0,0.0,0.0,0.0,0.0,0.0,0.0,0.0,0.0,0.0,0.0,0.0,0.0,0.0,0.0,0.0,0.0,0.0,0.0,0.0,0.0,0.0,0.0,0.0,0.0,0.0,0.0,0.0,0.0,0.0,0.0,0.2193,0.0918,0.0,0.0,0.0,0.0,0.0,0.0,0.02,0.0638,0.0674,0.0,0.0,0.0,0.0,0.0,0.0,0.0,0.0,0.0,0.0,0.0,0.0,0.0,0.0,0.0,0.0,0.0,0.0,0.0,0.0,0.0,0.0,0.0,0.0,0.0,0.0,0.0,0.0,0.0,0.0,0.0,0.0,0.0,0.0,0.0,0.0,0.0,0.0,0.0,0.0,0.0,0.0,0.0,0.0,0.0,0.0,0.0,0.0,0.0,0.0,0.0,0.0,0.0,0.2648,0.2616,0.2652,0.2652,0.2145,0.1352,0.2161,0.2127,0.1655,0.244,0.0,0.0,0.0,0.0,0.0,0.0,0.0,0.0,0.0,0.0,0.0,0.0,0.0,0.0,0.0,0.0,0.0,0.0,0.0,0.0,0.0,0.0,0.0,0.0,0.0,0.0,0.0,0.0,0.0,0.0,0.0,0.0,0.0,0.0,0.0,0.0,0.0,0.0,0.1403,0.0599,0.0,0.0,0.0,0.0,0.0,0.0,0.0,0.0,0.0,0.0,0.0,0.0,0.0,0.0,0.0,0.0,0.0,0.0,0.0,0.0,0.0,0.0,0.0,0.0,0.0,0.0,0.0,0.0,0.0,0.0,0.0,0.0,0.0,0.0,0.0,0.0,0.0,0.0,0.0,0.0,0.0,0.0,0.5086,0.4957,0.0,0.0,0.0,0.0,0.0,0.0,0.0,0.0,0.0,0.0,0.0,0.0,0.0,0.1391,0.0445,0.0396,0.04,0.04,0.0405,0.0409,0.041,0.041,0.0351,0.0234,0.0349,0.0,0.1633,0.176,0.0,0.0,0.0,0.0,0.0,0.0,0.0,0.0,0.0,0.0,0.0,0.0,0.0,0.0,0.0,0.0,0.0,0.0,0.0,0.0,0.0,0.0,0.0,0.0,0.0,0.0,0.0,0.0112,0.0218,0.0165,0.1024,0.0,0.0,0.0,0.0,0.0,0.0,0.0,0.1432,0.0603,0.0,0.0,0.0,0.0,0.0,0.0,0.0,0.0,0.0,0.0,0.0,0.0,0.0,0.0,0.0,0.0,0.0,0.0,0.0,0.0,0.0,0.0,0.0,0.0,0.0,0.0,0.0,0.0,0.0,0.0,0.0,0.0,0.0,0.0,0.0,0.0,0.0,0.0,0.0,0.0,0.0,0.5505,0.4914,0.4916,0.3885,0.3205,0.0,0.0,0.0,0.0,0.0,0.0,0.0,0.0,0.0,0.1236,0.0857,0.0461,0.0,0.0,0.0,0.0,0.0,0.0,0.0,0.0,0.0,0.0,0.0,0.0238,0.0693,0.0685,0.0676,0.0722,0.0,0.0,0.0,0.0,0.0,0.0,0.0,0.0,0.0,0.0,0.0,0.0,0.0,0.0,0.0,0.0,0.0,0.011,0.0,0.0,0.0,0.0,0.0,0.0,0.0,0.0,0.0,0.0,0.0385,0.0697,0.0676,0.0,0.0,0.0,0.0,0.0695,0.0594,0.0276,0.0,0.0,0.0,0.0,0.0,-0.0152,-0.0202,-0.0202,-0.0354,-0.0457,-0.0513,-0.0509,-0.0553,0.0,0.0,0.0,0.0,0.0,0.0,0.0,0.0,0.0,0.0,0.0,0.0,0.0,0.0,0.0,0.0,0.0,0.0,0.0,0.0,0.0,0.0,0.0,0.0,0.0,0.0,0.0,0.0,0.5089,0.4329,0.4201,0.3167,0.2526,0.0,0.0,0.0,0.0,0.0,0.0,0.0941,0.0563,0.0401,0.0465,0.0177,0.0,0.0,0.0,0.0,0.0,0.0,0.0,0.0,0.0,0.0,0.0,0.0,0.0,0.0,0.0,0.0,0.0,0.0,0.0,0.0,0.0,0.0,0.0,0.0,0.0,0.0,0.0,0.0,0.0056,0.0328,0.0,0.0,0.0,0.0,0.0,0.0,0.0,0.0,0.0,0.0,0.0,0.0,0.0,0.0,0.0,0.0,0.0,0.0,0.0,0.0,0.0,0.0,0.0,0.0,0.0,0.0,0.0,-0.0054,-0.0107,-0.0105,-0.036,-0.0509,-0.0509,-0.0709,-0.0815,-0.0882,-0.0883,-0.0982,-0.1128,0.0,0.0,0.0,0.0,0.0,0.0,0.0,0.0,0.0,0.0,0.0,0.0,0.0,0.0,0.0,0.0,0.0,0.0,0.0,0.0,0.0,0.0,0.0,0.0,0.0,0.0,0.0,0.0,0.0,0.2072,0.1195,0.0,0.0,0.0,0.0,0.1061,0.0783,0.0677,0.0917,0.0349,0.0118,0.0421,0.0122,0.0,0.0,0.0,0.0,0.0,0.0,0.0,0.0,0.0,0.0,0.0,0.0,0.0,0.0,0.0,0.0,0.0,0.0,0.0,0.0,0.0,0.0,0.0,0.0,0.0,0.0,0.0,0.0,0.0175,0.1185,0.0782,0.0,0.0,0.0783,0.0,0.0,0.0,0.0,0.0,0.0,0.0,0.0,0.0,0.0,0.0,0.0,0.0,0.0,0.0,0.0,0.0,0.0,0.0,0.0,0.0,0.0,0.0,-0.0219,-0.038,-0.0373,-0.0681,-0.0882,-0.0882,-0.0816,-0.0815,-0.0882,-0.0883,-0.089,-0.0904,-0.108,0.0,0.0,0.0,0.0,0.0,0.0,0.0,0.0,0.0,0.0,0.0,0.0,0.0,0.0,0.0,0.0,0.0,0.0,0.0,0.0,0.0,0.0,0.0,0.0,0.0,0.0,0.0,0.0,0.1806,0.0868,0.0,0.0167,0.0451,0.0627,0.0627,0.0697,0.0826,0.089,0.0542,0.0365,0.049,0.0185,0.0,0.0,0.0,0.0,0.0,0.0,0.0,0.0,0.0,0.0,0.0,0.0,0.0,0.0,0.0,0.0,0.0,0.0,0.0,0.0,0.0,0.0,0.0,0.0,0.0,0.0,0.0,0.0,0.0059,0.0464,0.0289,0.0058,0.0463,0.0289,0.0,0.0,0.0,0.0,0.0,0.0,0.0,0.0,0.0,0.0,0.0,0.0,0.0,0.0,0.0,0.0,0.0,0.0,-0.0056,-0.0224,-0.028,-0.0336,-0.0556,-0.0661,-0.0709,-0.0705,-0.1003,-0.1143,-0.1143,-0.1276,-0.1331,-0.1424,-0.1425,-0.1437,-0.1463,-0.1552,-0.1564,0.0,0.0,0.0,0.0,0.0,0.0,0.0,0.0,0.0,0.0,0.0,0.0,0.0,0.0,0.0,0.0,0.0,0.0,0.0,0.0,0.0,0.0,0.0,0.0,0.0,0.2548,0.1502,0.1207,0.0589,0.0177,0.0172,0.0407,0.0589,0.0589,0.0725,0.0736,0.0736,0.0498,0.0314,0.0314,0.0125,0.0,0.0,0.0,0.0,0.0,0.0,0.0,0.0,0.0,0.0,0.0,0.0,0.0,0.0,0.0,0.0,0.0,0.0,0.0,0.0,0.0,0.0,0.0,0.0,0.0,0.0,0.0,0.0,0.0,0.0,0.0,0.0,0.0,0.0,0.0,0.0,0.0,0.0,0.0,0.0,0.0,0.0,0.0,0.0,-0.0112,-0.0056,0.0,0.0,-0.0056,-0.0112,-0.0111,-0.0223,-0.0393,-0.0561,-0.0561,-0.0673,-0.0897,-0.0999,-0.1048,-0.1048,-0.1283,-0.147,-0.1479,-0.1551,-0.1658,-0.1717,-0.171,-0.1718,-0.1804,-0.1784,-0.1749,-0.1646,0.0,0.0,0.0,0.0,0.0,0.0,0.0,0.0,0.0,0.0,0.0,0.0,0.0,0.0,0.0,0.0,0.0,0.0,0.0,0.0,0.0,0.0,0.0,0.1626,0.1558,0.1171,0.0115,0.03,0.0488,0.0474,0.079,0.0989,0.0989,0.0689,0.0506,0.0506,0.0192,0.0,0.0,0.0,0.0,0.0,0.0,0.0,0.0,0.0,0.0,0.0,0.0,0.0,0.0,0.0,0.0,0.0,0.0,0.0,0.0,0.0,0.0,0.0,0.0,0.0,0.0,0.0,0.0,0.0,0.0,0.0,0.0,0.0,0.0,0.0,0.0,0.0,0.0,0.0,0.0,0.0,0.0,0.0,0.0,0.0,0.0,-0.0112,-0.0336,-0.0224,-0.0056,-0.0056,-0.0224,-0.0393,-0.0393,-0.0673,0.0,-0.0897,-0.0897,-0.0897,-0.0953,-0.1177,-0.129,-0.129,-0.1577,-0.1718,-0.1802,-0.1748,-0.1743,-0.1802,-0.1721,-0.172,-0.1805,-0.1749,-0.168,-0.1705,0.0,0.0,0.0,0.0,0.0,0.0,0.0,0.0,0.0,0.0,0.0,0.0,0.0,0.0,0.0,0.0,0.0,0.0,0.0,0.0,0.0,0.1987,0.1625,0.1625,0.0946,0.036,0.0061,0.0062,0.0125,0.0124,0.0252,0.0255,0.0255,0.0192,0.0128,0.0128,0.0064,0.0,0.0,0.0,0.0,0.0,0.0,0.0,0.0,0.0,0.0,0.0,0.0,0.0,0.0,0.0,0.0,0.0,0.0,0.0,0.0,0.0,0.0,0.0,0.0,0.0,0.0,0.0,0.0,0.0,0.0,0.0,0.0,0.0,0.0,0.0,0.0,0.0,0.0,0.0,0.0,0.0,0.0,0.0,-0.0056,-0.0224,-0.028,-0.0393,-0.0729,-0.0729,-0.0673,-0.0673,-0.0729,-0.0785,-0.0785,-0.0841,0.0,-0.1177,-0.1177,-0.129,-0.1514,-0.1627,-0.1683,-0.1683,-0.1704,-0.1795,-0.1804,-0.1714,-0.171,-0.1802,-0.1796,-0.1806,-0.1782,-0.1789,-0.1774,0.0,0.0,0.0,0.0,0.0,0.0,0.0,0.0,0.0,0.0,0.0,0.0,0.0,0.0,0.0,0.0,0.0,0.0,0.0,0.0,0.0,0.0,0.1233,0.0955,0.0908,0.0365,0.0,0.0,0.0,0.0,0.0,0.0,0.0,0.0,0.0,0.0,0.0,0.0,0.0,0.0,0.0,0.0,0.0,0.0,0.0,0.0,0.0,0.0,0.0,0.0,0.0,0.0,0.0,0.0,0.0,0.0,0.0,0.0,0.0,0.0,0.0,0.0,0.0,0.0,0.0,0.0,0.0,0.0,0.0,0.0,0.0,0.0,0.0,0.0,0.0,0.0,0.0,0.0,0.0,0.0,-0.0114,-0.0229,-0.0401,-0.0573,-0.0744,-0.1031,-0.1088,0.0,-0.1317,-0.1189,-0.1065,-0.1065,-0.1177,-0.1346,-0.1514,-0.1514,-0.157,-0.1795,-0.1795,-0.1795,-0.1795,-0.1822,0.0,0.0,0.0,-0.1737,-0.1823,-0.1781,0.0,0.0,0.0,0.0,0.0,0.0,0.0,0.0,-0.1877,-0.1887,0.0,0.0,0.0,0.0,0.0,0.0,0.0,0.0,0.0,0.0,0.0,0.0,0.0,0.0,0.0,0.0,0.0606,0.0,0.0,0.0,0.0,0.0,0.0,0.0,0.0,0.0,0.0,0.0,0.0,0.0,0.0,0.0,0.0,0.0,0.0,0.0,0.0,0.0,0.0,0.0,0.0,0.0,0.0,0.0,0.0,0.0,0.0,0.0,0.0,0.0,0.0,0.0,0.0,0.0,0.0,0.0,0.0,0.0,0.0,0.0,0.0,0.0,0.0,0.0,0.0,0.0,0.0,0.0,0.0,0.0,0.0,0.0,-0.0059,-0.0059,-0.0295,-0.0589,-0.0589,-0.0825,-0.1119,-0.1414,-0.1473,-0.1532,-0.1826,-0.1611,-0.1353,-0.135,-0.1631,-0.1799,-0.1795,-0.1795,-0.1796,-0.18,0.0,0.0,-0.1805,-0.1836,-0.1832,-0.1804,-0.1835,-0.1833,-0.1804,-0.1834,-0.1791,-0.1788,-0.1794,-0.1822,-0.1871,-0.1934,-0.195,-0.1975,-0.1894,-0.19,0.0,0.0,0.0,0.0,0.0,0.0,0.0,0.0,0.0,0.0,0.0,0.0,0.0,0.0,0.0,0.0306,0.0125,0.0,0.0,0.0,0.0,0.0,0.0,0.0,0.0,0.0,0.0,0.0,0.0,0.0,0.0,0.0,0.0,0.0,0.0,0.0,0.0,0.0,0.0,0.0,0.0,0.0,0.0,0.0,0.0,0.0,0.0,0.0,0.0,0.0,0.0,0.0,0.0,0.0,0.0,0.0,0.0,0.0,0.0,0.0,0.0,0.0,0.0,0.0,0.0,0.0,0.0,0.0,0.0,0.0,0.0,-0.0179,-0.0412,-0.0412,-0.0648,-0.0942,-0.1178,-0.1296,-0.1414,-0.1768,-0.1826,-0.1826,-0.1885,-0.1817,-0.1743,-0.172,-0.1774,-0.1823,-0.1798,-0.1795,-0.1804,-0.1772,-0.1774,-0.1841,-0.1866,-0.1863,-0.1862,-0.1868,-0.1863,-0.1862,-0.1868,-0.1897,-0.1902,-0.1877,-0.1925,-0.1944,-0.1871,-0.1956,-0.1971,-0.1976,-0.1958,-0.1972,0.0,0.0,0.0,0.0,0.0,0.0,0.0,0.0,0.0,0.0,0.0,0.1509,0.156,0.0,0.0,0.0,0.0,0.0,0.0,0.0,0.0,0.0,0.0,0.0,0.0,0.0,0.0,0.0,0.0,0.0,0.0,0.0,0.0,0.0,0.0,0.0,0.0,0.0,0.0,0.0,0.0,0.0,0.0,0.0,0.0,0.0,0.0,0.0,0.0,0.0,0.0,0.0,0.0,0.0,0.0,0.0,0.0,0.0,0.0,0.0,0.0,0.0,0.0,0.0,0.0,0.0,0.0,0.0,0.0,-0.0061,-0.0183,-0.0364,-0.0543,-0.0724,-0.1026,-0.1267,-0.1448,-0.1569,-0.175,-0.1931,-0.1931,-0.1931,-0.1931,-0.1931,-0.1916,-0.187,-0.1863,-0.1857,-0.1842,-0.184,-0.1847,-0.1862,-0.1863,-0.1869,-0.1884,-0.1886,-0.1886,-0.1886,-0.19,-0.1909,-0.1909,-0.1938,-0.1947,-0.1932,-0.1961,-0.1969,-0.1954,-0.1969,-0.1984,-0.1997,-0.1997,-0.2013,0.0,0.0,0.0,0.0,0.0,0.0,0.0,0.4858,0.4384,0.2878,0.189,0.1287,0.1264,0.0553,0.0,0.0,0.0,0.0,0.0,0.0,0.0,0.0,0.0,0.0,0.0,0.0,0.0,0.0,0.0,0.0,0.0,0.0,0.0,0.0,0.0,0.0,0.0,0.0,0.0,0.0,0.0,0.0,0.0,0.0,0.0,0.0,0.0,0.0,0.0,0.0,0.0,0.0,0.0,0.0,0.0,0.0,0.0,0.0,0.0,0.0,0.0,0.0,0.0,0.0,-0.0062,-0.0123,-0.0123,-0.0185,-0.0185,-0.0247,-0.0556,-0.0617,-0.0741,-0.105,-0.1359,-0.1606,-0.1606,-0.1791,-0.1977,-0.1977,-0.1977,-0.1977,-0.1977,-0.1977,-0.1958,-0.1903,-0.1894,-0.1892,-0.1887,-0.1886,-0.1888,-0.1894,-0.1894,-0.1897,-0.1903,-0.1904,-0.1904,-0.1904,-0.1926,-0.194,-0.194,-0.1964,-0.1977,-0.1977,-0.1977,-0.1979,-0.1984,-0.1984,-0.1999,-0.2027,-0.2033,-0.2049,0.852,0.8075,0.7671,0.7621,0.6431,0.506,0.0,0.2941,0.1724,0.0584,0.0237,0.0181,0.0184,0.0063,0.0,0.0,0.0,0.0,0.0,0.0,0.0,0.0,0.0,0.0,0.0,0.0,0.0,0.0,0.0,0.0,0.0,0.0,0.0,0.0,0.0,0.0,0.0,0.0,0.0,0.0,0.0,0.0,0.0,0.0,0.0,0.0,0.0,0.0,0.0,0.0,0.0,0.0,0.0,0.0,0.0,0.0,0.0,0.0,0.0,0.0,0.0,0.0,0.0,-0.0062,-0.037,-0.0432,-0.0494,-0.0803,-0.0864,-0.0926,-0.0926,-0.1173,-0.142,-0.142,-0.1729,-0.1915,-0.1915,-0.1977,-0.1977,-0.1977,-0.1977,-0.1977,-0.1977,-0.1977,-0.1965,-0.1931,-0.1926,-0.1916,-0.1889,-0.1886,-0.1896,-0.1923,-0.1926,-0.1937,-0.1964,-0.1967,-0.1967,-0.1967,-0.1969,-0.1971,-0.1971,-0.1975,-0.1977,-0.1977,-0.1977,-0.1989,-0.2014,-0.2014,-0.2029,-0.2059,-0.2086,-0.2101,0.8407,0.8051,0.7709,0.7553,0.6458,0.5111,0.403,0.2807,0.15,0.0242,0.0,0.0,0.0,0.0,0.0,0.0,0.0,0.0,0.0,0.0,0.0,0.0,-0.0198,-0.0198,0.0,0.0,0.0,0.0,0.0,0.0,0.0,0.0,-0.0138,-0.0348,-0.0343,-0.0409,-0.0613,-0.0608,-0.0673,-0.0673,-0.0673,-0.0673,-0.0673,-0.0673,-0.0673,-0.0673,-0.0673,-0.0673,-0.0673,-0.0673,-0.0671,-0.0666,-0.0657,-0.0651,-0.0581,-0.0375,-0.0185,-0.0062,-0.0432,-0.0432,-0.0309,-0.0494,-0.0556,-0.0617,-0.0741,-0.0803,-0.0803,-0.0988,-0.0988,-0.105,-0.1235,-0.142,-0.1544,-0.1729,-0.1915,-0.1977,-0.1977,-0.1977,-0.1977,-0.1977,-0.1977,-0.1977,-0.1977,-0.1977,-0.1973,-0.196,-0.1958,-0.1953,-0.194,-0.1939,-0.1943,-0.1956,-0.1958,-0.1962,-0.1975,-0.1977,-0.1977,-0.1977,-0.1977,-0.1977,-0.1977,-0.1977,-0.1977,-0.1977,-0.1992,-0.2007,-0.2018,-0.2036,-0.2061,-0.2091,-0.2104,-0.2119,0.8143,0.7936,0.7655,0.7115,0.6079,0.4872,0.3566,0.2322,0.1172,0.0185,0.0,0.0,0.0,0.0,-0.0065,-0.0134,-0.0135,-0.0203,-0.0271,-0.0334,-0.0331,-0.0331,-0.0528,-0.053,-0.0336,-0.0337,-0.0271,-0.0137,-0.0275,-0.0277,-0.0141,-0.0281,-0.0492,-0.0776,-0.0696,-0.0829,-0.1106,-0.1095,-0.1087,-0.1083,-0.1083,-0.1081,-0.1077,-0.1077,-0.1077,-0.1077,-0.1077,-0.1077,-0.1077,-0.1077,-0.1077,-0.1075,-0.1126,-0.112,-0.105,-0.0887,-0.0561,-0.0372,-0.0804,-0.0864,-0.0679,-0.0926,-0.0988,-0.0988,-0.1111,-0.1112,-0.1173,-0.1235,-0.1297,-0.1359,-0.1606,-0.1667,-0.1729,-0.1915,-0.1977,-0.1977,-0.1977,-0.1977,-0.1977,-0.1977,-0.1977,-0.1977,-0.1977,-0.1977,-0.1977,-0.1977,-0.1977,-0.1977,-0.1977,-0.1977,-0.1977,-0.1977,-0.1977,-0.1977,-0.1977,-0.1977,-0.1977,-0.1977,-0.1977,-0.1977,-0.1977,-0.1977,-0.198,-0.1988,-0.2008,-0.2026,-0.2044,-0.2065,-0.2092,-0.2122,-0.2122,-0.2133,0.7776,0.7699,0.7443,0.6079,0.4805,0.3561,0.2332,0.1048,0.0062,0.0,0.0,0.0,0.0,0.0,-0.013,-0.0536,-0.0613,-0.0687,-0.103,-0.1086,-0.1076,-0.1076,-0.0997,-0.0994,-0.1075,-0.1077,-0.088,-0.0481,-0.0825,-0.0904,-0.0571,-0.0918,-0.12,-0.1215,-0.12,-0.1192,-0.1192,-0.1191,-0.1183,-0.1099,-0.1099,-0.1091,-0.1077,-0.1077,-0.1077,-0.1077,-0.1077,-0.1077,-0.1077,-0.1077,-0.1077,-0.1075,-0.1126,-0.112,-0.1118,-0.1425,-0.1341,-0.0945,-0.0993,-0.0988,-0.0988,-0.0988,-0.0988,-0.105,-0.1359,-0.1482,-0.1544,-0.1853,-0.1977,-0.1977,-0.1977,-0.1977,-0.1977,-0.1977,-0.1977,-0.1977,-0.1977,-0.1977,-0.1977,-0.1977,-0.1977,-0.1977,-0.1977,-0.1977,-0.1977,-0.1977,-0.1977,-0.1977,-0.1977,-0.1977,-0.1977,-0.1977,-0.1977,-0.1977,-0.1977,-0.1977,-0.1977,-0.1977,-0.1977,-0.1977,-0.1977,-0.1977,-0.199,-0.2017,-0.2018,-0.2048,-0.2106,-0.2108,-0.2123,-0.2221,-0.2221,-0.2221,0.7683,0.7015,0.6285,0.5813,0.4121,0.2448,0.1784,0.0617,-0.037,-0.0617,-0.0679,-0.0682,-0.0693,-0.0639,-0.0716,-0.0871,-0.0954,-0.0965,-0.1113,-0.1171,-0.116,-0.116,-0.136,-0.1488,-0.1482,-0.1279,-0.1019,-0.0904,-0.1045,-0.1057,-0.1014,-0.1155,-0.1299,-0.1593,-0.1574,-0.1635,-0.192,-0.1903,-0.182,-0.1812,-0.1864,-0.1851,-0.1842,-0.1826,-0.1818,-0.1818,-0.1818,-0.1818,-0.1818,-0.1818,-0.1818,-0.1817,-0.1808,-0.1805,-0.1869,-0.1908,-0.1827,-0.1748,-0.1706,-0.1494,-0.1359,-0.1606,-0.1667,-0.1667,-0.1791,-0.1853,-0.1853,-0.1977,-0.1977,-0.1977,-0.1977,-0.1977,-0.1977,-0.1977,-0.1977,-0.1977,-0.1977,-0.1977,-0.1977,-0.1977,-0.1977,-0.1977,-0.1977,-0.1977,-0.1977,-0.1977,-0.1977,-0.1977,-0.1977,-0.1977,-0.1977,-0.1977,-0.1977,-0.1977,-0.1977,-0.1977,-0.1977,-0.1977,-0.1977,-0.1985,-0.2003,-0.2005,-0.2018,-0.2048,-0.2068,-0.2089,-0.2109,-0.2129,-0.2144,-0.2222,-0.2222,-0.2222,0.6837,0.5916,0.4903,0.4474,0.3117,0.1663,0.0924,0.0,-0.074,-0.092,-0.098,-0.0983,-0.0993,-0.0943,-0.1029,-0.1271,-0.1294,-0.1383,-0.155,-0.1606,-0.1523,-0.1523,-0.1724,-0.1853,-0.1846,-0.164,-0.1445,-0.1331,-0.148,-0.1498,-0.1384,-0.1532,-0.1677,-0.1968,-0.1953,-0.2017,-0.2306,-0.2286,-0.2201,-0.2261,-0.2231,-0.2216,-0.2216,-0.2196,-0.2181,-0.2171,-0.2171,-0.2232,-0.2222,-0.2222,-0.2222,-0.2222,-0.2222,-0.2222,-0.2219,-0.2133,-0.2119,-0.2102,-0.2052,-0.1897,-0.1755,-0.1933,-0.1992,-0.199,-0.1979,-0.1977,-0.1977,-0.1977,-0.1977,-0.1977,-0.1977,-0.1977,-0.1977,-0.1977,-0.1977,-0.1977,-0.1977,-0.1984,-0.1988,-0.1979,-0.1984,-0.1988,-0.1978,-0.1977,-0.198,-0.199,-0.1983,-0.1977,-0.1977,-0.1977,-0.1977,-0.1977,-0.1977,-0.1977,-0.1977,-0.1977,-0.1977,-0.1977,-0.1986,-0.1999,-0.2018,-0.2029,-0.2049,-0.208,-0.2099,-0.2114,-0.2125,-0.2156,-0.2171,-0.2171,-0.2182,-0.2187,0.5484,0.4533,0.3384,0.2264,0.1663,0.1047,-0.0247,-0.0802,-0.0983,-0.0968,-0.0965,-0.0965,-0.0965,-0.098,-0.1137,-0.1669,-0.1705,-0.1877,-0.2213,-0.2268,-0.225,-0.232,-0.2294,-0.2356,-0.2315,-0.2319,-0.2178,-0.1756,-0.2061,-0.2159,-0.1821,-0.2114,-0.2333,-0.2333,-0.2333,-0.2333,-0.2333,-0.2333,-0.232,-0.2292,-0.2262,-0.2178,-0.2178,-0.2176,-0.223,-0.2202,-0.2201,-0.2184,-0.2224,-0.2223,-0.2222,-0.2222,-0.2222,-0.2222,-0.2222,-0.2222,-0.2136,-0.2108,-0.2078,-0.2131,-0.2059,-0.2031,-0.202,-0.2014,-0.1987,-0.1977,-0.1977,-0.1977,-0.1977,-0.1977,-0.1977,-0.1977,-0.1979,-0.1979,-0.198,-0.1981,-0.1981,-0.2002,-0.2013,-0.1986,-0.2003,-0.2012,-0.1986,-0.1981,-0.199,-0.2017,-0.1998,-0.198,-0.1979,-0.1977,-0.1977,-0.1977,-0.1977,-0.1977,-0.1979,-0.1979,-0.1979,-0.1981,-0.2006,-0.2022,-0.2023,-0.2051,-0.208,-0.2111,-0.2113,-0.2128,-0.2225,-0.2187,-0.2202,-0.2203,-0.2232,-0.2175,0.5459,0.3778,0.2011,0.172,0.0616,-0.0494,-0.1111,-0.1285,-0.1334,-0.157,-0.1629,-0.1629,-0.1629,-0.1696,-0.1831,-0.2012,-0.2079,-0.2209,-0.2317,-0.2315,-0.2743,-0.3894,-0.4097,-0.4078,-0.3981,-0.4015,-0.3521,-0.2209,-0.2215,-0.2231,-0.2186,-0.226,-0.2333,-0.2333,-0.2333,-0.2333,-0.2333,-0.2333,-0.2329,-0.2322,-0.2293,-0.2279,-0.2279,-0.2256,-0.2171,-0.2232,-0.221,-0.2196,-0.2187,-0.2232,-0.2222,-0.2222,-0.2222,-0.2222,-0.2222,-0.2222,-0.2217,-0.2142,-0.2201,-0.2168,-0.2127,-0.2054,-0.2037,-0.2017,-0.201,-0.1993,-0.1977,-0.1977,-0.1977,-0.1977,-0.1977,-0.1992,-0.2007,-0.2007,-0.2025,-0.2105,-0.2105,-0.2047,-0.205,-0.2107,-0.2048,-0.205,-0.2107,-0.2105,-0.2044,-0.2051,-0.2046,-0.2033,-0.2011,-0.199,-0.1977,-0.1977,-0.1977,-0.1985,-0.2006,-0.2007,-0.2018,-0.204,-0.2048,-0.2063,-0.2085,-0.2093,-0.2112,-0.2142,-0.2166,-0.2181,-0.2189,-0.2219,-0.2234,-0.2234,-0.2172,-0.2175,0.5159,0.3327,0.1405,0.1107,-0.0062,-0.1233,-0.1408,-0.1587,-0.17,-0.1857,-0.1922,-0.1927,-0.1913,-0.1988,-0.2069,-0.2125,-0.22,-0.2483,-0.3267,-0.335,-0.393,-0.5525,-0.5742,-0.5726,-0.5684,-0.5717,-0.5364,-0.4467,-0.31,-0.2316,-0.2332,-0.2333,-0.2333,-0.2333,-0.2333,-0.2623,-0.335,-0.2623,-0.2986,-0.4364,-0.2965,-0.2669,-0.3316,-0.2577,-0.2631,-0.325,-0.2527,-0.2649,-0.3183,-0.2459,-0.2174,-0.2173,-0.2228,-0.2222,-0.2222,-0.2222,-0.2222,-0.2222,-0.2222,-0.2199,-0.2167,-0.2088,-0.2072,-0.2053,-0.2026,-0.2007,-0.1992,-0.198,-0.1986,-0.1995,-0.1995,-0.2017,-0.2038,-0.2038,-0.2051,-0.2128,-0.2128,-0.2074,-0.2084,-0.2084,-0.2073,-0.2128,-0.2128,-0.2128,-0.2068,-0.2082,-0.2072,-0.2063,-0.2059,-0.2033,-0.2015,-0.2015,-0.2015,-0.2021,-0.2037,-0.2038,-0.2046,-0.2127,-0.2076,-0.2091,-0.2108,-0.2122,-0.2137,-0.2222,-0.2185,-0.22,-0.22,-0.2244,-0.2265,-0.2266,-0.2278,-0.2212,0.4621,0.2918,0.1152,0.0553,-0.0554,-0.1535,-0.1517,-0.1768,-0.1949,-0.1896,-0.1907,-0.1917,-0.1891,-0.212,-0.2323,-0.2356,-0.2564,-0.3272,-0.4766,-0.5007,-0.5588,-0.7112,-0.7331,-0.7331,-0.7331,-0.7331,-0.7259,-0.7112,-0.4509,-0.2914,-0.2914,-0.2914,-0.2914,-0.2914,-0.2914,-0.3568,-0.5018,-0.364,-0.4291,-0.6968,-0.4218,-0.364,-0.4946,-0.3568,-0.3618,-0.4863,-0.3504,-0.3687,-0.475,-0.3382,-0.2814,-0.2737,-0.2772,-0.2624,-0.249,-0.249,-0.2356,-0.2222,-0.2222,-0.2222,-0.2218,-0.2124,-0.2112,-0.2099,-0.2046,-0.2027,-0.202,-0.1995,-0.2003,-0.202,-0.2023,-0.2044,-0.2129,-0.2069,-0.2138,-0.2141,-0.2141,-0.2097,-0.2115,-0.2115,-0.2094,-0.2141,-0.2141,-0.2141,-0.2085,-0.2111,-0.2093,-0.2086,-0.2112,-0.2085,-0.2128,-0.2128,-0.2128,-0.213,-0.2069,-0.207,-0.2136,-0.214,-0.2101,-0.2115,-0.2115,-0.2141,-0.2222,-0.2222,-0.2189,-0.2206,-0.2206,-0.2266,-0.2296,-0.2297,-0.2321,-0.2333,0.3992,0.2101,0.0246,0.0123,-0.0855,-0.1823,-0.1902,-0.1934,-0.1898,-0.1888,-0.189,-0.1892,-0.1887,-0.2868,-0.3741,-0.3863,-0.4849,-0.5746,-0.6269,-0.6365,-0.7035,-0.8698,-0.8925,-0.8925,-0.8925,-0.8925,-0.849,-0.7472,-0.6679,-0.6174,-0.6174,-0.6174,-0.6174,-0.6174,-0.6174,-0.6319,-0.6608,-0.6319,-0.6463,-0.6968,-0.6463,-0.6319,-0.6608,-0.6319,-0.6309,-0.6581,-0.6232,-0.6156,-0.6281,-0.606,-0.5849,-0.5651,-0.5705,-0.4966,-0.3966,-0.3966,-0.3228,-0.2222,-0.2222,-0.2222,-0.2221,-0.2216,-0.213,-0.2107,-0.2097,-0.2076,-0.2055,-0.2114,-0.2034,-0.2024,-0.205,-0.206,-0.207,-0.2095,-0.2121,-0.2206,-0.2206,-0.221,-0.2213,-0.2213,-0.2209,-0.2206,-0.2206,-0.2206,-0.2208,-0.2213,-0.2209,-0.2208,-0.2213,-0.2164,-0.2128,-0.2128,-0.2128,-0.2074,-0.2099,-0.2101,-0.2112,-0.2204,-0.2211,-0.2213,-0.2213,-0.2219,-0.2222,-0.2222,-0.2209,-0.2167,-0.2168,-0.2296,-0.2325,-0.2326,-0.233,-0.2333,0.4455,0.2663,0.0984,0.061,-0.0727,-0.1931,-0.193,-0.1919,-0.1909,-0.1909,-0.1922,-0.2168,-0.2806,-0.3501,-0.4236,-0.4999,-0.5724,-0.6513,-0.765,-0.7825,-0.8522,-1.0284,-1.0671,-1.0743,-1.0524,-1.0881,-1.0803,-1.0009,-1.0006,-0.9205,-0.7327,-0.7255,-0.7183,-0.704,-0.7185,-0.7546,-0.8201,-0.7404,-0.7837,-0.9363,-0.7765,-0.7404,-0.8201,-0.7331,-0.7376,-0.8043,-0.7216,-0.7215,-0.7743,-0.6949,-0.6543,-0.6431,-0.6384,-0.5965,-0.5367,-0.5367,-0.4966,-0.4364,-0.4364,-0.4364,-0.4364,-0.4364,-0.3345,-0.213,-0.2114,-0.2099,-0.2084,-0.2068,-0.2065,-0.2069,-0.2084,-0.2099,-0.2181,-0.2129,-0.2144,-0.2222,-0.2222,-0.2222,-0.2222,-0.2222,-0.2222,-0.2222,-0.2222,-0.2222,-0.2222,-0.2222,-0.2826,-0.3295,-0.3295,-0.3917,-0.3751,-0.2308,-0.2177,-0.2447,-0.3193,-0.3262,-0.3604,-0.4363,-0.4364,-0.4364,-0.4364,-0.3696,-0.371,-0.4547,-0.2983,-0.2604,-0.3467,-0.2672,-0.2333,-0.2333,-0.2333,-0.2333,0.448,0.3037,0.1595,0.0846,-0.0601,-0.1917,-0.1899,-0.1909,-0.1923,-0.193,-0.195,-0.2386,-0.3682,-0.4173,-0.4808,-0.6152,-0.6726,-0.7466,-0.9051,-0.9314,-0.998,-1.1507,-1.1979,-1.2122,-1.1903,-1.2398,-1.2685,-1.2477,-1.2757,-1.1661,-0.877,-0.8557,-0.8412,-0.8268,-0.8482,-0.9064,-0.9942,-0.8709,-0.9288,-1.1548,-0.9144,-0.8624,-0.9684,-0.8527,-0.8538,-0.9493,-0.8296,-0.8306,-0.9167,-0.7969,-0.7442,-0.7414,-0.7333,-0.7167,-0.69,-0.69,-0.67,-0.6433,-0.6433,-0.6433,-0.6433,-0.6433,-0.4899,-0.302,-0.2656,-0.2582,-0.2509,-0.222,-0.2096,-0.2177,-0.2513,-0.2398,-0.2213,-0.2221,-0.2222,-0.2222,-0.2222,-0.2423,-0.2625,-0.2625,-0.2892,-0.3093,-0.3093,-0.3093,-0.3093,-0.3093,-0.4031,-0.4768,-0.4768,-0.57,-0.5564,-0.336,-0.3093,-0.3563,-0.4634,-0.4768,-0.5233,-0.6299,-0.6433,-0.6433,-0.6433,-0.5367,-0.5337,-0.6706,-0.4379,-0.3806,-0.5064,-0.3546,-0.2987,-0.3277,-0.2623,-0.2478,0.2946,0.1808,0.086,-0.0121,-0.1133,-0.1896,-0.1922,-0.1908,-0.1898,-0.1926,-0.1933,-0.2295,-0.3674,-0.4884,-0.6211,-0.763,-0.9125,-1.0226,-1.0681,-1.0965,-1.1403,-1.2069,-1.2194,-1.2334,-1.2685,-1.2753,-1.2896,-1.3182,-1.3253,-1.2964,-1.2316,-1.1968,-1.1896,-1.2244,-1.2316,-1.218,-1.1903,-1.176,-1.1688,-1.1619,-1.1325,-1.1184,-1.1197,-1.1053,-1.0971,-1.0974,-1.0833,-1.0754,-1.0693,-1.0541,-1.0389,-1.0336,-1.0323,-0.951,-0.8374,-0.8374,-0.7569,-0.6433,-0.6433,-0.6433,-0.6433,-0.6433,-0.6233,-0.5765,-0.4494,-0.4092,-0.3823,-0.2549,-0.2129,-0.2379,-0.3745,-0.3128,-0.2121,-0.2215,-0.2222,-0.2222,-0.2222,-0.3228,-0.41,-0.41,-0.5166,-0.6032,-0.6032,-0.6032,-0.6032,-0.6032,-0.6099,-0.6233,-0.6233,-0.6299,-0.6299,-0.6032,-0.6032,-0.6099,-0.6166,-0.6233,-0.6233,-0.6364,-0.6433,-0.6433,-0.6433,-0.6299,-0.6341,-0.6704,-0.6452,-0.6401,-0.6701,-0.5204,-0.5235,-0.6534,-0.3639,-0.3059,0.2672,0.1698,0.0797,-0.0179,-0.1184,-0.1889,-0.1901,-0.1894,-0.2136,-0.2916,-0.2506,-0.2873,-0.5786,-0.609,-0.66,-0.8778,-0.9845,-1.0495,-1.0811,-1.121,-1.1643,-1.2128,-1.2485,-1.2727,-1.2817,-1.3186,-1.3543,-1.3686,-1.3468,-1.3325,-1.3472,-1.3114,-1.2828,-1.2824,-1.2968,-1.2896,-1.2545,-1.2545,-1.233,-1.1979,-1.1884,-1.1662,-1.1389,-1.1297,-1.1172,-1.1033,-1.1033,-1.0948,-1.0812,-1.0812,-1.0775,-1.0721,-1.0721,-1.0382,-0.9848,-0.9848,-0.951,-0.8975,-0.8975,-0.8975,-0.8975,-0.8975,-0.8975,-0.8573,-0.6235,-0.5566,-0.5432,-0.4899,-0.4678,-0.4796,-0.5426,-0.5143,-0.4665,-0.4692,-0.4698,-0.4698,-0.4698,-0.5166,-0.5566,-0.5566,-0.6032,-0.6433,-0.6433,-0.6433,-0.6433,-0.6433,-0.7167,-0.7702,-0.7702,-0.844,-0.8975,-0.8975,-0.7434,-0.6767,-0.7636,-0.7831,-0.8207,-0.9022,-0.9089,-0.9191,-0.9262,-0.8379,-0.8363,-0.9527,-0.7753,-0.7329,-0.8358,-0.6809,-0.6391,-0.6968,-0.5739,-0.4944,0.2231,0.1442,0.0669,-0.053,-0.1355,-0.1897,-0.1888,-0.1893,-0.2271,-0.3611,-0.3131,-0.3615,-0.7238,-0.7096,-0.7147,-0.9444,-1.0183,-1.0555,-1.0799,-1.1327,-1.1841,-1.2342,-1.272,-1.2998,-1.3022,-1.3587,-1.39,-1.39,-1.3567,-1.3539,-1.3827,-1.3436,-1.3236,-1.3107,-1.3329,-1.3325,-1.2968,-1.2968,-1.2734,-1.2266,-1.2221,-1.1909,-1.1396,-1.1355,-1.1087,-1.0813,-1.0813,-1.0819,-1.0721,-1.0721,-1.0721,-1.0721,-1.0721,-1.0721,-1.0721,-1.0721,-1.0721,-1.0721,-1.0721,-1.0721,-1.0721,-1.0721,-1.0721,-1.0319,-0.8304,-0.7369,-0.6967,-0.65,-0.67,-0.6967,-0.65,-0.67,-0.6967,-0.65,-0.6433,-0.6433,-0.6433,-0.6767,-0.7034,-0.7034,-0.7369,-0.7702,-0.7702,-0.7702,-0.7702,-0.7702,-0.8573,-0.9244,-0.9244,-1.0117,-1.0721,-1.0721,-0.8909,-0.8105,-0.9108,-0.9364,-0.985,-1.0812,-1.0989,-1.1056,-1.1158,-1.0095,-1.0084,-1.1385,-0.9326,-0.8815,-0.9945,-0.842,-0.7912,-0.8345,-0.7404,-0.6393,0.1352,0.0872,0.0478,-0.1333,-0.1827,-0.1923,-0.1893,-0.1909,-0.2301,-0.3619,-0.3771,-0.4533,-0.7408,-0.7703,-0.8088,-0.9552,-1.0365,-1.0837,-1.1006,-1.1588,-1.2169,-1.2756,-1.2819,-1.3027,-1.3558,-1.3798,-1.39,-1.39,-1.3742,-1.3574,-1.3574,-1.3299,-1.3348,-1.3884,-1.39,-1.3686,-1.3325,-1.3325,-1.303,-1.2518,-1.2518,-1.2142,-1.1496,-1.1496,-1.1203,-1.0721,-1.0721,-1.0721,-1.0721,-1.0721,-1.0721,-1.0721,-1.0721,-1.0721,-1.0721,-1.0721,-1.0721,-1.0721,-1.0721,-1.0721,-1.0721,-1.0721,-1.0721,-1.0721,-1.0651,-0.9712,-0.8304,-0.6833,-0.7434,-0.8238,-0.6767,-0.7503,-0.8238,-0.6767,-0.6433,-0.6433,-0.6433,-0.7569,-0.8573,-0.8573,-0.9712,-1.0651,-1.0651,-1.0651,-1.0651,-1.0651,-1.0654,-1.0654,-1.0654,-1.0721,-1.0721,-1.0721,-1.0654,-1.0651,-1.0654,-1.0793,-1.088,-1.088,-1.1084,-1.1231,-1.1231,-1.1162,-1.1233,-1.1389,-1.1389,-1.1467,-1.1548,-1.0017,-1.0089,-1.1472,-0.842,-0.6968,0.1358,0.0865,0.0466,-0.1326,-0.187,-0.1898,-0.1888,-0.1909,-0.2536,-0.466,-0.4346,-0.4817,-0.8399,-0.8253,-0.8113,-0.9688,-1.0283,-1.0747,-1.1138,-1.1557,-1.1997,-1.2549,-1.2955,-1.3185,-1.3385,-1.355,-1.3655,-1.3655,-1.3559,-1.3401,-1.3275,-1.3279,-1.3303,-1.3348,-1.3234,-1.3162,-1.3142,-1.2822,-1.2523,-1.2171,-1.186,-1.1422,-1.0925,-1.0925,-1.0831,-1.0721,-1.0721,-1.0721,-1.0721,-1.0721,-1.0721,-1.0721,-1.0721,-1.0721,-1.0721,-1.0721,-1.0721,-1.0721,-1.0721,-1.0721,-1.0721,-1.0721,-1.0721,-1.0721,-1.0721,-1.0386,-0.9915,-0.9443,-0.9646,-0.9915,-0.9443,-0.9712,-0.9915,-0.9443,-0.931,-0.931,-0.931,-0.9712,-1.0047,-1.0047,-1.0386,-1.0721,-1.0721,-1.0721,-1.0721,-1.0721,-1.0721,-1.0721,-1.0721,-1.0721,-1.0721,-1.0721,-1.0721,-1.0721,-1.0721,-1.0951,-1.1094,-1.1094,-1.1236,-1.1365,-1.147,-1.1372,-1.1392,-1.1545,-1.1548,-1.1569,-1.1619,-1.1109,-1.1109,-1.1548,-0.9507,-0.8564,0.1229,0.0626,0.0,-0.1426,-0.1864,-0.19,-0.1888,-0.2276,-0.322,-0.5335,-0.5431,-0.608,-0.9134,-0.8979,-0.8717,-0.9736,-1.0383,-1.0853,-1.108,-1.1575,-1.2062,-1.2361,-1.2731,-1.2993,-1.3134,-1.325,-1.333,-1.3539,-1.3235,-1.3082,-1.31,-1.2941,-1.2877,-1.2897,-1.2853,-1.2854,-1.289,-1.2523,-1.2155,-1.1922,-1.1626,-1.1251,-1.0916,-1.0916,-1.0853,-1.0721,-1.0721,-1.0721,0.0,-1.0721,-1.0721,-1.0721,-1.0721,-1.0721,-1.0721,-1.0721,-1.0721,-1.0721,-1.0721,-1.0721,-1.0721,-1.0721,-1.0721,-1.0721,-1.0721,-1.0721,-1.0721,-1.0721,-1.0721,-1.0721,-1.0721,-1.0721,-1.0721,-1.0721,-1.0721,-1.0721,-1.0721,-1.0721,-1.0721,-1.0721,-1.0721,-1.0721,-1.0721,-1.0721,-1.0721,-1.0721,-1.0721,-1.0721,-1.0721,-1.0721,-1.0721,-1.0721,-1.0721,-1.0721,-1.0721,-1.0941,-1.1104,-1.1227,-1.1307,-1.146,-1.1613,-1.1528,-1.1521,-1.1616,-1.1619,-1.1619,-1.1619,-1.1619,-1.1619,-1.1548,-1.0599,-1.0161,0.0,0.0112,-0.0685,-0.1576,-0.1862,-0.1921,-0.1892,-0.2953,0.0,-0.5582,-0.6791,-0.8022,-0.9549,-0.9713,-0.9676,-0.9829,-1.0537,-1.1007,-1.0845,-1.1655,-1.2252,-1.2174,-1.2203,-1.2399,-1.2731,-1.2799,-1.2933,-1.3267,-1.2903,-1.2732,-1.3055,-1.2423,-1.2249,-1.2564,-1.2724,-1.2694,-1.2586,-1.2227,-1.1951,-1.1762,-1.1684,-1.1487,-1.1167,-1.1178,-1.0982,-1.0721,-1.0721,-1.0721,-1.0721,-1.0721,-1.0721,-1.0721,-1.0721,-1.0721,-1.0721,-1.0721,-1.0721,-1.0721,-1.0721,-1.0721,-1.0721,-1.0721,-1.0721,-1.0721,-1.0721,-1.0721,-1.0721,-1.0721,-1.0721,-1.0721,-1.0721,-1.0721,-1.0721,-1.0721,-1.0721,-1.0721,-1.0721,-1.0721,-1.0721,-1.0721,-1.0721,-1.0721,-1.0721,-1.0721,-1.0721,-1.0721,-1.0721,-1.0721,-1.0721,-1.0721,-1.0721,-1.0721,-1.0721,-1.0721,-1.0721,-1.0793,-1.1006,-1.1138,-1.1301,-1.1453,-1.1596,-1.1613,-1.1619,-1.1619,-1.1619,-1.1619,-1.1619,-1.1619,-1.1619,-1.1619,-1.1619,-1.1619,-0.0056,0.0,-0.0721,-0.1567,-0.1846,-0.1894,0.0,-0.2953,-0.423,-0.5511,-0.6743,-0.8022,-0.9549,-0.9795,-0.992,-1.0503,-1.0612,-1.0784,-1.127,-1.1563,-1.1754,-1.1929,-1.1858,-1.1938,-1.2154,-1.2481,-1.2633,-1.2641,-1.2722,-1.277,-1.2694,-1.2677,-1.258,-1.2568,-1.2491,-1.2344,-1.2165,-1.1588,-1.1314,-1.1196,-1.0823,-1.0633,-1.0678,-1.0798,-1.0787,-1.0721,-1.0721,-1.0721,-1.0721,-1.0721,-1.0721,-1.0721,-1.0721,-1.0721,-1.0721,-1.0721,-1.0721,-1.0721,-1.0721,-1.0721,-1.0721,-1.0721,-1.0721,-1.0721,-1.0721,-1.0721,-1.0721,-1.0721,-1.0721,-1.0721,-1.0721,-1.0721,-1.0721,-1.0721,-1.0721,-1.0721,-1.0721,-1.0721,-1.0721,-1.0721,-1.0721,-1.0721,-1.0721,-1.0721,-1.0721,-1.0721,-1.0721,-1.0721,-1.0721,-1.0721,-1.0721,-1.0721,-1.0721,-1.0721,-1.0721,-1.0793,-1.0894,-1.0995,-1.1246,-1.1406,-1.1443,-1.1558,-1.1619,-1.1619,-1.1619,-1.1619,-1.1619,-1.1619,-1.1619,-1.1619,-1.1619,-1.1619,-0.0951,-0.1071,-0.1248,-0.1718,-0.1882,-0.2108,-0.2705,-0.383,-0.5151,-0.6445,-0.7703,-0.8896,-0.9713,-0.9866,-1.0064,-1.0682,-1.0784,-1.0932,-1.167,-1.1717,-1.1783,-1.1813,-1.1844,-1.1851,-1.176,-1.2019,-1.2206,-1.2118,-1.2243,-1.2397,-1.2433,-1.2389,-1.2397,-1.2433,-1.2192,-1.2092,-1.2048,-1.1546,-1.1228,-1.1009,-1.0734,-1.0582,-1.0599,-1.068,-1.0721,-1.0721,-1.0721,-1.0721,-1.0721,-1.0721,-1.0721,-1.0721,-1.0721,-1.0721,-1.0721,-1.0721,-1.0721,-1.0721,-1.0721,-1.0721,-1.0721,-1.0721,-1.0721,-1.0721,-1.0721,-1.0721,-1.0721,-1.0721,-1.0721,-1.0721,-1.0721,-1.0721,-1.0721,-1.0721,-1.0721,-1.0721,-1.0721,-1.0721,-1.0721,-1.0721,-1.0721,-1.0721,-1.0721,-1.0721,-1.0721,-1.0721,-1.0721,-1.0721,-1.0721,-1.0721,-1.0721,-1.0721,-1.0721,-1.0721,-1.0721,-1.0795,-1.0806,-1.0877,-1.1162,-1.1318,-1.1389,-1.1538,-1.1619,-1.1619,-1.1619,-1.1619,-1.1619,-1.1619,-1.1619,-1.1619,-1.1619,-1.1619,-0.1568,-0.2023,-0.2191,-0.1941,-0.2108,-0.259,-0.3681,-0.5093,-0.651,-0.7673,-0.8915,-0.9893,-0.9963,-1.0044,-1.0251,-1.0739,-1.0948,-1.1224,-1.1816,-1.182,-1.1782,-1.166,-1.175,-1.1712,-1.1418,-1.1581,-1.1703,-1.1677,-1.1743,-1.1875,-1.2204,-1.1914,-1.1837,-1.2165,-1.1837,-1.1834,-1.2009,-1.1709,-1.1412,-1.1044,-1.102,-1.0898,-1.0787,-1.0721,-1.0721,-1.0721,-1.0721,-1.0721,-1.0721,-1.0721,-1.0721,-1.0721,-1.0721,-1.0721,-1.0721,-1.0721,-1.0721,-1.0721,-1.0721,-1.0704,-1.0687,-1.0714,-1.0704,-1.069,-1.0714,-1.0721,-1.0721,-1.0721,-1.0721,-1.0721,-1.0721,-1.0721,-1.0721,-1.0721,-1.0721,-1.0721,-1.0721,-1.0721,-1.0721,-1.0721,-1.0721,-1.0721,-1.0721,-1.0721,-1.0721,-1.0721,-1.0721,-1.0721,-1.0721,-1.0721,-1.0721,-1.0721,-1.0721,-1.0721,-1.0721,-1.0721,-1.0775,-1.0836,-1.105,-1.1209,-1.1385,-1.1538,-1.1619,-1.1619,-1.1619,-1.1619,-1.1619,-1.1619,-1.1619,-1.1619,-1.1619,-1.1619,-0.1761,-0.2781,-0.3453,-0.2157,-0.2744,-0.368,-0.3877,-0.5784,-0.7673,-0.7856,-0.8992,-0.996,-0.9984,-1.0297,-1.0647,-1.0926,-1.1109,-1.1189,-1.1293,-1.1049,-1.108,-1.1507,-1.1182,-1.0969,-1.1098,-1.1183,-1.126,-1.112,-1.1438,-1.1633,-1.1698,-1.1505,-1.137,-1.1434,-1.137,-1.1419,-1.1393,-1.1528,-1.1467,-1.1142,-1.1073,-1.1029,-1.1115,-1.085,-1.0721,-1.0721,-1.0721,-1.0721,-1.0721,-1.0721,-1.0721,-1.0721,-1.0721,-1.0721,-1.0721,-1.0721,-1.0721,-1.0721,-1.0721,-1.0636,-1.0548,-1.0677,-1.0633,-1.0551,-1.068,-1.0721,-1.0721,-1.0721,-1.0721,-1.0721,-1.0721,-1.0721,-1.0721,-1.0721,-1.0721,-1.0721,-1.0721,-1.0721,-1.0721,-1.0721,-1.0721,-1.0721,-1.0721,-1.0721,-1.0721,-1.0721,-1.0721,-1.0721,-1.0721,-1.0721,-1.0721,-1.0721,-1.0721,-1.0721,-1.0721,-1.0721,-1.0731,-1.0755,-1.0897,-1.1104,-1.1382,-1.1538,-1.1619,-1.1619,-1.1619,-1.1619,-1.1619,-1.1619,-1.1619,-1.1619,-1.1619,-1.1619,-0.1779,-0.2859,-0.3812,-0.3198,-0.4171,-0.5411,-0.6196,-0.7248,-0.8307,-0.9062,-0.9682,-1.0175,-1.0175,-1.0405,-1.0668,-1.0809,-1.1201,-1.1434,-1.1241,-1.1273,-1.1314,-1.1233,-1.1231,-1.1059,-1.0649,-1.0826,-1.0905,-1.0638,-1.0952,-1.1148,-1.1148,-1.1078,-1.1038,-1.1038,-1.0852,-1.0788,-1.0788,-1.1047,-1.1224,-1.1446,-1.1461,-1.1377,-1.1181,-1.1049,-1.0853,-1.0721,-1.0721,-1.0721,-1.0721,-1.0721,-1.0721,-1.0721,-1.0721,-1.0721,-1.0711,-1.0626,-1.0599,-1.0585,-1.051,-1.0436,-1.0402,-1.0551,-1.0551,-1.0521,-1.0673,-1.0721,-1.0721,-1.0721,-1.0721,-1.0721,-1.0721,-1.0721,-1.0721,-1.0721,-1.0721,-1.0721,-1.0721,-1.0721,-1.0721,-1.0721,-1.0721,-1.0721,-1.0721,-1.0721,-1.0721,-1.0721,-1.0721,-1.0721,-1.0721,-1.0721,-1.0721,-1.0721,-1.0721,-1.0721,-1.0721,-1.0721,-1.0755,-1.0769,-1.0843,-1.108,-1.1379,-1.1457,-1.1535,-1.1616,-1.1619,-1.1619,-1.1619,-1.1619,-1.1619,-1.1619,-1.1619,-1.1619,-0.2129,-0.326,-0.4414,-0.4821,-0.5819,-0.6999,-0.8088,-0.8503,-0.898,-1.0072,-1.028,-1.027,-1.0232,-1.0371,-1.0555,-1.0744,-1.1241,-1.1507,-1.1171,-1.1372,-1.1344,-1.0958,-1.111,-1.1041,-1.0354,-1.0534,-1.0598,-1.0343,-1.0499,-1.0728,-1.1043,-1.1069,-1.0985,-1.0985,-1.0737,-1.0486,-1.0171,-1.0769,-1.1311,-1.1857,-1.1773,-1.1717,-1.1713,-1.1428,-1.1181,-1.092,-1.0853,-1.0853,-1.0787,-1.0721,-1.0721,-1.0717,-1.068,-1.0646,-1.0602,-1.0487,-1.0443,-1.0426,-1.0317,-1.0256,-1.0249,-1.0395,-1.0443,-1.047,-1.0622,-1.0694,-1.0721,-1.0721,-1.0721,-1.0721,-1.0721,-1.0721,-1.0721,-1.0721,-1.0721,-1.0721,-1.0721,-1.0721,-1.0721,-1.0721,-1.0721,-1.0721,-1.0721,-1.0721,-1.0721,-1.0721,-1.0721,-1.0721,-1.0721,-1.0721,-1.0721,-1.0721,-1.0721,-1.0721,-1.0721,-1.0721,-1.0768,-1.082,-1.0958,-1.1101,-1.1328,-1.1406,-1.1501,-1.1616,-1.1619,-1.1619,-1.1619,-1.1619,-1.1619,-1.1619,-1.1619,-1.1619,-0.3144,-0.4531,-0.5927,-0.7163,-0.7513,-0.7714,-0.8185,-0.8997,-0.9811,-1.0222,-1.028,-1.0236,-1.0031,-1.03,-1.0588,-1.0816,-1.0931,-1.0931,-1.0931,-1.0753,-1.0569,-1.0558,-1.0439,-1.0354,-1.028,-1.0343,-1.0343,-1.028,-1.0148,-1.0619,-1.1847,-1.1756,-1.1611,-1.1611,-1.1611,-1.1005,-0.9852,-1.1214,-1.2121,-1.262,-1.1917,-1.2249,-1.3277,-1.2227,-1.1714,-1.1714,-1.1317,-1.1181,-1.1115,-1.085,-1.0721,-1.0707,-1.0565,-1.0429,-1.031,-1.03,-1.0297,-1.0293,-1.0283,-1.0185,-1.0031,-1.0246,-1.0297,-1.0324,-1.0466,-1.0609,-1.0721,-1.0721,-1.0721,-1.0721,-1.0721,-1.0721,-1.0721,-1.0721,-1.0721,-1.0721,-1.0721,-1.0721,-1.0721,-1.0721,-1.0721,-1.0721,-1.0721,-1.0721,-1.0721,-1.0721,-1.0721,-1.0721,-1.0721,-1.0721,-1.0721,-1.0721,-1.0721,-1.0721,-1.0721,-1.0721,-1.0724,-1.0734,-1.0995,-1.1158,-1.1179,-1.1453,-1.1609,-1.1619,-1.1619,-1.1619,-1.1619,-1.1619,-1.1619,-1.1619,-1.1619,-1.1619,-0.4352,-0.5723,-0.7079,-0.7636,-0.8412,-0.91,-0.9444,-0.9872,-1.0297,-1.051,-1.0555,-1.0507,-1.0354,-1.0266,-1.0314,-1.0616,-1.0663,-1.0927,-1.1713,-1.1084,-1.0741,-1.1362,-1.0667,-1.01,-1.0005,-1.0732,-1.116,-1.116,-1.189,-1.2513,-1.3054,-1.2987,-1.2946,-1.2946,-1.2946,-1.2706,-1.2225,-1.2776,-1.3635,-1.4736,-1.3862,-1.3708,-1.415,-1.3725,-1.3118,-1.2454,-1.2325,-1.1869,-1.1174,-1.0944,-1.1228,-1.1731,-1.1626,-1.1018,-1.0266,-1.0171,-1.0137,-1.0124,-1.0029,-0.9958,-0.9872,-1.0086,-1.0137,-1.0164,-1.0314,-1.0399,-1.0446,-1.0446,-1.0446,-1.049,-1.0673,-1.0721,-1.0721,-1.0721,-1.0721,-1.0721,-1.0721,-1.0721,-1.0721,-1.0721,-1.0721,-1.0721,-1.0721,-1.0721,-1.0721,-1.0721,-1.0721,-1.0721,-1.0721,-1.0721,-1.0721,-1.0721,-1.0721,-1.0721,-1.0721,-1.0721,-1.0721,-1.0721,-1.0914,-1.107,-1.1158,-1.1365,-1.1521,-1.1616,-1.1619,-1.1619,-1.1619,-1.1619,-1.1619,-1.1619,-1.1619,-1.1619,-0.5594,-0.6642,-0.7718,-0.8236,-0.9071,-0.9832,-1.0137,-1.0283,-1.0409,-1.0609,-1.0937,-1.1099,-1.0951,-1.0712,-1.0548,-1.0381,-1.071,-1.1316,-1.2214,-1.1908,-1.1842,-1.2526,-1.1779,-1.1153,-1.1035,-1.1808,-1.235,-1.235,-1.3186,-1.3904,-1.4262,-1.4321,-1.4321,-1.4321,-1.4321,-1.4083,-1.3725,-1.4083,-1.4852,-1.586,-1.5716,-1.554,-1.5299,-1.506,-1.4417,-1.3602,-1.3725,-1.3328,-1.2522,-1.2274,-1.2426,-1.2872,-1.2741,-1.2162,-1.13,-1.0754,-1.0529,-1.0454,-0.9978,-0.9822,-0.9839,-0.9883,-0.995,-1.0007,-1.0175,-1.0243,-1.028,-1.028,-1.028,-1.0327,-1.0527,-1.0616,-1.066,-1.0707,-1.0721,-1.0721,-1.0721,-1.0721,-1.0721,-1.0721,-1.0721,-1.0721,-1.0721,-1.0721,-1.0721,-1.0721,-1.0721,-1.0721,-1.0721,-1.0721,-1.0721,-1.0721,-1.0721,-1.0721,-1.0721,-1.0721,-1.0721,-1.0721,-1.0907,-1.106,-1.1158,-1.1311,-1.1463,-1.1616,-1.1619,-1.1619,-1.1619,-1.1619,-1.1619,-1.1619,-1.1619,-1.1619,-0.6775,-0.7368,-0.7961,-0.9294,-0.9612,-0.969,-0.9981,-1.0053,-1.0197,-1.0429,-1.1453,-1.2112,-1.176,-1.1833,-1.158,-1.0232,-1.1232,-1.2217,-1.2217,-1.323,-1.3897,-1.3897,-1.3783,-1.3725,-1.3725,-1.3725,-1.3725,-1.3725,-1.3725,-1.4262,-1.5569,-1.5634,-1.5634,-1.5634,-1.5634,-1.5035,-1.3725,-1.4976,-1.5628,-1.5634,-1.725,-1.7564,-1.6782,-1.5972,-1.5463,-1.5229,-1.5458,-1.5586,-1.5463,-1.4852,-1.4323,-1.3897,-1.3892,-1.3835,-1.3545,-1.223,-1.1692,-1.1511,-1.0243,-0.9819,-0.9822,-0.9822,-0.9924,-0.9984,-0.9984,-1.0154,-1.0276,-1.0276,-1.0276,-1.0276,-1.028,-1.0382,-1.0527,-1.068,-1.0717,-1.0721,-1.0721,-1.0721,-1.0721,-1.0721,-1.0721,-1.0721,-1.0721,-1.0721,-1.0721,-1.0721,-1.0721,-1.0721,-1.0721,-1.0721,-1.0721,-1.0721,-1.0721,-1.0721,-1.0721,-1.0721,-1.0721,-1.0721,-1.0995,-1.1227,-1.1231,-1.1311,-1.1463,-1.1616,-1.1619,-1.1619,-1.1619,-1.1619,-1.1619,-1.1619,-1.1619,-1.1619,-0.8944,-0.8999,-0.9275,-1.1674,-1.1786,-1.1336,-1.1437,-1.0725,-1.0353,-1.1493,-1.2407,-1.2736,-1.1767,-1.1329,-1.1138,-1.1071,-1.1437,-1.2395,-1.4435,-1.425,-1.421,-1.503,-1.4296,-1.3725,-1.3725,-1.45,-1.5035,-1.5035,-1.5871,-1.6526,-1.6944,-1.6944,-1.6944,-1.6944,-1.6944,-1.6767,-1.6408,-1.6767,-1.7062,-1.7309,-1.7543,-1.7527,-1.7298,-1.7262,-1.6791,-1.5982,-1.6038,-1.5731,-1.5285,-1.5852,-1.5256,-1.4156,-1.5054,-1.4665,-1.3665,-1.3246,-1.3126,-1.3066,-1.2646,-1.1924,-1.1148,-1.1148,-1.0579,-0.989,-0.989,-0.992,-0.9958,-0.9958,-0.9958,-0.9981,-1.009,-1.0148,-1.0243,-1.0497,-1.0639,-1.0721,-1.0721,-1.0721,-1.0721,-1.0721,-1.0721,-1.0721,-1.0721,-1.0721,-1.0721,-1.0721,-1.0721,-1.0721,-1.0721,-1.0721,-1.0721,-1.0721,-1.0721,-1.0721,-1.0721,-1.0721,-1.0721,-1.0721,-1.0802,-1.0945,-1.1224,-1.1413,-1.1572,-1.1616,-1.1619,-1.1619,-1.1619,-1.1619,-1.1619,-1.1619,-1.1619,-1.1619,-1.1093,-1.1019,-1.1167,-1.3218,-1.312,-1.2526,-1.2587,-1.167,-1.1305,-1.3079,-1.3815,-1.3887,-1.2891,-1.2483,-1.2263,-1.2012,-1.239,-1.3359,-1.5068,-1.5183,-1.5371,-1.607,-1.5575,-1.5213,-1.5213,-1.593,-1.6349,-1.6349,-1.7062,-1.7485,-1.7485,-1.7485,-1.7485,-1.7485,-1.7485,-1.7485,-1.7485,-1.7485,-1.7602,-1.7784,-1.7726,-1.7602,-1.7485,-1.796,-1.7752,-1.6951,-1.7115,-1.6865,-1.6464,-1.7264,-1.6905,-1.5849,-1.6514,-1.622,-1.5337,-1.4679,-1.4441,-1.4381,-1.3904,-1.3186,-1.247,-1.247,-1.1989,-1.1265,-1.0725,-1.0543,-1.0425,-0.994,-0.9822,-0.9842,-0.9872,-0.9943,-1.0061,-1.0422,-1.0561,-1.0646,-1.0707,-1.0721,-1.0721,-1.0721,-1.0721,-1.0721,-1.0721,-1.0721,-1.0721,-1.0721,-1.0721,-1.0721,-1.0721,-1.0721,-1.0721,-1.0721,-1.0721,-1.0721,-1.0721,-1.0721,-1.0721,-1.0721,-1.0775,-1.089,-1.107,-1.1311,-1.1494,-1.1616,-1.1619,-1.1619,-1.1619,-1.1619,-1.1619,-1.1619,-1.1619,-1.1619,-1.3019,-1.3098,-1.3167,-1.4274,-1.3988,-1.3498,-1.3596,-1.2915,-1.2847,-1.4796,-1.5301,-1.5188,-1.4604,-1.445,-1.4094,-1.2966,-1.3737,-1.4569,-1.4687,-1.6015,-1.6932,-1.6932,-1.7238,-1.7426,-1.7426,-1.7485,-1.7485,-1.7485,-1.7485,-1.7485,-1.7485,-1.7485,-1.7485,-1.7485,-1.7485,-1.7485,-1.7485,-1.7485,-1.7485,-1.7485,-1.779,-1.779,-1.7543,-1.8129,-1.8252,-1.7985,-1.8286,-1.8426,-1.844,-1.8754,-1.865,-1.8363,-1.8142,-1.8031,-1.7849,-1.6349,-1.5811,-1.5634,-1.4441,-1.3963,-1.3844,-1.3844,-1.3784,-1.3485,-1.223,-1.1868,-1.1631,-1.0482,-1.0183,-1.0183,-1.0183,-1.0169,-1.0225,-1.0574,-1.0603,-1.0534,-1.0687,-1.0721,-1.0721,-1.0721,-1.0721,-1.0721,-1.0721,-1.0721,-1.0721,-1.0721,-1.0721,-1.0721,-1.0721,-1.0721,-1.0721,-1.0721,-1.0721,-1.0721,-1.0721,-1.0721,-1.0721,-1.0721,-1.0782,-1.0867,-1.088,-1.1087,-1.1301,-1.1592,-1.1599,-1.1606,-1.1619,-1.1619,-1.1619,-1.1619,-1.1619,-1.1619,-1.3495,-1.3432,-1.3667,-1.5887,-1.5553,-1.4969,-1.6027,-1.5218,-1.429,-1.4463,-1.531,-1.5544,-1.3966,-1.3461,-1.3346,-1.3231,-1.3461,-1.4099,-1.5363,-1.6005,-1.6373,-1.6373,-1.6839,-1.7079,-1.7079,-1.7367,-1.7485,-1.7485,-1.7485,-1.7485,-1.7485,-1.7485,-1.7485,-1.7485,-1.7485,-1.7485,-1.7485,-1.7485,-1.7485,-1.7485,-1.7543,-1.7726,-1.7908,-1.8025,-1.8025,-1.8031,-1.8257,-1.842,-1.8421,-1.8485,-1.8478,-1.8421,-1.8363,-1.82,-1.7972,-1.7608,-1.7309,-1.7062,-1.6767,-1.6048,-1.5213,-1.5213,-1.45,-1.3665,-1.3366,-1.3246,-1.3186,-1.2946,-1.2882,-1.2882,-1.2882,-1.2078,-1.1378,-1.1643,-1.1078,-1.0534,-1.0687,-1.0721,-1.0721,-1.0721,-1.0721,-1.0721,-1.0721,-1.0721,-1.0721,-1.0721,-1.0721,-1.0721,-1.0721,-1.0721,-1.0721,-1.0721,-1.0721,-1.0721,-1.0721,-1.0721,-1.0721,-1.0721,-1.0751,-1.0756,-1.0877,-1.1087,-1.125,-1.1436,-1.144,-1.1501,-1.1619,-1.1619,-1.1619,-1.1619,-1.1619,-1.1619,-1.4985,-1.4994,-1.5053,-1.6487,-1.6379,-1.6014,-1.6565,-1.5958,-1.5148,-1.4745,-1.5384,-1.5596,-1.4323,-1.4014,-1.3962,-1.4076,-1.4132,-1.4416,-1.527,-1.572,-1.5896,-1.584,-1.6378,-1.6733,-1.6617,-1.6885,-1.7073,-1.7256,-1.7256,-1.7309,-1.7479,-1.7485,-1.7485,-1.7485,-1.7485,-1.7485,-1.7485,-1.7485,-1.7485,-1.7485,-1.7485,-1.7602,-1.7784,-1.7908,-1.8083,-1.8194,-1.8194,-1.8311,-1.8421,-1.8421,-1.8421,-1.8421,-1.8421,-1.8252,-1.7972,-1.7972,-1.7784,-1.7485,-1.7485,-1.7062,-1.6526,-1.6526,-1.6048,-1.5391,-1.4798,-1.4619,-1.45,-1.3844,-1.3725,-1.3725,-1.3725,-1.3186,-1.2694,-1.2878,-1.1658,-1.0432,-1.0578,-1.067,-1.0721,-1.0721,-1.0721,-1.0721,-1.0721,-1.0721,-1.0721,-1.0721,-1.0721,-1.0721,-1.0721,-1.0721,-1.0721,-1.0721,-1.0721,-1.0721,-1.0721,-1.0721,-1.0721,-1.0721,-1.0721,-1.0755,-1.0769,-1.0911,-1.109,-1.1385,-1.1392,-1.1467,-1.1619,-1.1619,-1.1619,-1.1619,-1.1619,-1.1619,-1.6434,-1.6466,-1.6307,-1.6688,-1.6631,-1.6488,-1.6325,-1.603,-1.5698,-1.5181,-1.5401,-1.5479,-1.4885,-1.4767,-1.4767,-1.4767,-1.4767,-1.4767,-1.4767,-1.5194,-1.5447,-1.5248,-1.5901,-1.6215,-1.6069,-1.6273,-1.6539,-1.6838,-1.6879,-1.7079,-1.7426,-1.7426,-1.7426,-1.7485,-1.7485,-1.7485,-1.7485,-1.7485,-1.7485,-1.7485,-1.7485,-1.7485,-1.7485,-1.7784,-1.8083,-1.8305,-1.8142,-1.8194,-1.8421,-1.8363,-1.8363,-1.8421,-1.8363,-1.8194,-1.8083,-1.8083,-1.7843,-1.7602,-1.7602,-1.7543,-1.7485,-1.7485,-1.7485,-1.7303,-1.6231,-1.593,-1.5693,-1.4679,-1.4381,-1.4381,-1.4381,-1.4202,-1.4067,-1.4171,-1.2531,-1.0915,-1.0841,-1.0916,-1.0951,-1.0714,-1.0721,-1.0721,-1.0721,-1.0721,-1.0721,-1.0721,-1.0721,-1.0721,-1.0721,-1.0721,-1.0721,-1.0721,-1.0721,-1.0721,-1.0721,-1.0721,-1.0721,-1.0721,-1.0721,-1.0721,-1.0721,-1.0721,-1.0907,-1.1307,-1.1338,-1.144,-1.1619,-1.1619,-1.1619,-1.1619,-1.1619,-1.1619,-1.6467,-1.6259,-1.608,-1.6861,-1.6488,-1.5995,-1.6241,-1.6079,-1.5815,-1.5493,-1.5264,-1.495,-1.4375,-1.4288,-1.4288,-1.4288,-1.4288,-1.4288,-1.4288,-1.4487,-1.4672,-1.4639,-1.5159,-1.5546,-1.5512,-1.596,-1.6281,-1.6281,-1.6476,-1.672,-1.702,-1.7079,-1.7197,-1.7479,-1.7485,-1.7485,-1.7485,-1.7485,-1.7485,-1.7485,-1.7485,-1.7485,-1.7485,-1.7543,-1.7726,-1.8083,-1.8252,-1.8363,-1.8363,-1.8142,-1.8194,-1.8363,-1.8142,-1.8194,-1.8363,-1.8363,-1.8194,-1.7908,-1.7908,-1.7726,-1.7485,-1.7485,-1.7485,-1.7485,-1.7303,-1.7244,-1.7185,-1.7062,-1.7003,-1.7003,-1.7003,-1.6166,-1.5343,-1.5369,-1.4338,-1.3186,-1.2351,-1.2185,-1.1862,-1.0892,-1.0721,-1.0721,-1.0721,-1.0721,-1.0721,-1.0721,-1.0721,-1.0721,-1.0721,-1.0721,-1.0721,-1.0721,-1.0721,-1.0721,-1.0721,-1.0721,-1.0721,-1.0721,-1.0721,-1.0721,-1.0721,-1.0721,-1.0812,-1.0934,-1.1131,-1.1335,-1.1619,-1.1619,-1.1619,-1.1619,-1.1619,-1.1619,-1.7253,-1.6955,-1.6621,-1.6849,-1.6363,-1.5871,-1.6043,-1.5702,-1.5416,-1.5482,-1.524,-1.4896,-1.4526,-1.4396,-1.4347,-1.4191,-1.4196,-1.4196,-1.4196,-1.439,-1.4487,-1.4358,-1.4776,-1.5063,-1.4931,-1.5241,-1.5561,-1.5738,-1.5834,-1.6005,-1.6293,-1.6528,-1.6766,-1.7024,-1.7203,-1.7334,-1.7485,-1.7485,-1.7485,-1.7485,-1.7485,-1.7485,-1.7485,-1.7485,-1.7667,-1.8031,-1.8142,-1.8252,-1.8421,-1.8246,-1.8194,-1.8194,-1.8194,-1.8071,-1.7948,-1.8305,-1.8252,-1.7972,-1.7972,-1.7908,-1.7726,-1.7543,-1.7485,-1.7485,-1.7485,-1.7485,-1.7485,-1.7485,-1.7485,-1.7485,-1.7485,-1.7062,-1.6644,-1.6644,-1.6304,-1.5631,-1.4557,-1.3775,-1.302,-1.1858,-1.1635,-1.1468,-1.0836,-1.0721,-1.0721,-1.0721,-1.0721,-1.0721,-1.0721,-1.0721,-1.0721,-1.0721,-1.0721,-1.0721,-1.0721,-1.0721,-1.1049,-1.1835,-1.1901,-1.2227,-1.3013,-1.3079,-1.3095,-1.3277,-1.1902,-1.127,-1.1491,-1.1575,-1.1619,-1.1619,-1.247,-1.2398,-1.8159,-1.7807,-1.7449,-1.7412,-1.7094,-1.6686,-1.6495,-1.6041,-1.5624,-1.5636,-1.5369,-1.5095,-1.488,-1.4713,-1.4552,-1.4347,-1.4245,-1.4196,-1.4196,-1.4342,-1.4385,-1.4213,-1.4498,-1.4638,-1.4466,-1.4659,-1.4906,-1.5142,-1.5254,-1.5394,-1.5671,-1.5958,-1.6249,-1.6563,-1.6748,-1.7046,-1.7367,-1.7485,-1.7485,-1.7485,-1.7485,-1.7485,-1.7485,-1.7485,-1.7661,-1.7908,-1.7972,-1.8083,-1.8305,-1.8305,-1.8194,-1.8083,-1.8129,-1.8012,-1.7778,-1.8246,-1.8252,-1.8031,-1.82,-1.8083,-1.7849,-1.7667,-1.7543,-1.7485,-1.7485,-1.7485,-1.7485,-1.7485,-1.7485,-1.7485,-1.7485,-1.7485,-1.7485,-1.7485,-1.7485,-1.7197,-1.6063,-1.4878,-1.3824,-1.3029,-1.2799,-1.2604,-1.1803,-1.164,-1.1717,-1.1762,-1.1769,-1.1769,-1.1769,-1.1769,-1.1769,-1.1769,-1.1769,-1.1769,-1.1769,-1.1769,-1.2227,-1.3276,-1.3337,-1.3796,-1.4842,-1.4907,-1.4978,-1.5059,-1.3185,-1.2294,-1.2503,-1.2555,-1.2712,-1.2749,-1.3951,-1.3808,-1.8925,-1.8581,-1.8447,-1.9228,-1.9221,-1.886,-1.8124,-1.7716,-1.716,-1.6099,-1.5684,-1.5482,-1.5482,-1.4987,-1.4606,-1.4606,-1.4347,-1.4196,-1.4196,-1.4207,-1.4207,-1.4196,-1.4213,-1.4223,-1.4213,-1.4417,-1.4552,-1.4557,-1.4756,-1.5055,-1.54,-1.5462,-1.5688,-1.6224,-1.6235,-1.653,-1.702,-1.7367,-1.7485,-1.7485,-1.7485,-1.7485,-1.7485,-1.7485,-1.7485,-1.7543,-1.7849,-1.8031,-1.8031,-1.8031,-1.8142,-1.8305,-1.7772,-1.7889,-1.8357,-1.8421,-1.8252,-1.8083,-1.8655,-1.8298,-1.7602,-1.7908,-1.7784,-1.7485,-1.7485,-1.7485,-1.7485,-1.7485,-1.7485,-1.7485,-1.7485,-1.7485,-1.7485,-1.7485,-1.7485,-1.7197,-1.6063,-1.4878,-1.4092,-1.4038,-1.398,-1.404,-1.4244,-1.4276,-1.441,-1.4619,-1.4712,-1.4712,-1.4712,-1.4712,-1.4712,-1.4712,-1.4712,-1.4712,-1.4712,-1.4712,-1.4712,-1.4782,-1.4782,-1.4842,-1.4907,-1.4907,-1.4912,-1.4922,-1.4922,-1.508,-1.5478,-1.5487,-1.5593,-1.5849,-1.5919,-1.5919,-1.9536,-1.9044,-1.8699,-1.8985,-1.8942,-1.8854,-1.9102,-1.836,-1.753,-1.7328,-1.6483,-1.5684,-1.5535,-1.4987,-1.4606,-1.4606,-1.4347,-1.4196,-1.4196,-1.4196,-1.4196,-1.4196,-1.4196,-1.4196,-1.4196,-1.4266,-1.4315,-1.4315,-1.4396,-1.4499,-1.4609,-1.4762,-1.5032,-1.5445,-1.5625,-1.605,-1.682,-1.6942,-1.745,-1.8358,-1.7572,-1.7537,-1.8038,-1.7313,-1.7074,-1.7231,-1.7353,-1.7631,-1.7972,-1.7972,-1.8083,-1.8142,-1.8071,-1.7948,-1.7895,-1.8246,-1.8363,-1.8311,-1.8473,-1.8473,-1.8357,-1.8083,-1.7908,-1.7784,-1.7543,-1.7485,-1.7485,-1.7485,-1.7485,-1.7485,-1.7485,-1.7485,-1.7485,-1.7485,-1.7485,-1.7391,-1.7002,-1.6552,-1.6052,-1.535,-1.5192,-1.5012,-1.435,-1.437,-1.4546,-1.4621,-1.4818,-1.4907,-1.4907,-1.4907,-1.4907,-1.4907,-1.4907,-1.4907,-1.4907,-1.4907,-1.5298,-1.6203,-1.6268,-1.6662,-1.7577,-1.7577,-1.7577,-1.7577,-1.766,-1.6871,-1.5292,-1.5428,-1.5462,-1.5601,-1.6628,-1.6559,-2.0305,-1.9803,-1.9507,-1.9878,-1.9625,-1.9533,-2.0325,-1.9588,-1.8597,-1.8204,-1.7253,-1.631,-1.5755,-1.5148,-1.4713,-1.4606,-1.4347,-1.4196,-1.4196,-1.4196,-1.4196,-1.4196,-1.4196,-1.4196,-1.4196,-1.4196,-1.4196,-1.4196,-1.4196,-1.4196,-1.4196,-1.4347,-1.4717,-1.5225,-1.5326,-1.5866,-1.6828,-1.6663,-1.7282,-1.8681,-1.7906,-1.786,-1.8388,-1.7631,-1.7179,-1.6966,-1.705,-1.7359,-1.7843,-1.7843,-1.7908,-1.8018,-1.7971,-1.7931,-1.7824,-1.8139,-1.8339,-1.8421,-1.8655,-1.8713,-1.8706,-1.8428,-1.8142,-1.7972,-1.7726,-1.7602,-1.7543,-1.7661,-1.7602,-1.7537,-1.7778,-1.7719,-1.7667,-1.7667,-1.7602,-1.7485,-1.7485,-1.7485,-1.7297,-1.6504,-1.6358,-1.6189,-1.5494,-1.553,-1.5653,-1.5736,-1.5948,-1.6077,-1.6154,-1.6165,-1.6191,-1.6333,-1.6338,-1.6338,-1.6338,-1.6338,-1.6726,-1.7636,-1.7695,-1.8092,-1.9072,-1.9078,-1.9078,-1.9078,-1.9078,-1.8237,-1.6424,-1.665,-1.6737,-1.6881,-1.7898,-1.783,0.0,0.0,0.0,-2.1974,-2.1562,-2.1072,-2.1849,-2.139,-2.0375,-1.8579,-1.7983,-1.7406,-1.6207,-1.5476,-1.4987,-1.4713,-1.4401,-1.4191,-1.4191,-1.4191,-1.4191,-1.4196,-1.4196,-1.4196,-1.4196,-1.4196,-1.4196,-1.4196,-1.4196,-1.4196,-1.4196,-1.4196,-1.4662,-1.575,-1.5523,-1.5941,-1.7061,-1.662,-1.7061,-1.843,-1.843,-1.843,-1.8472,-1.8417,-1.7828,-1.6756,-1.7011,-1.7271,-1.7461,-1.7467,-1.7707,-1.7917,-1.7356,-1.7642,-1.8306,-1.8091,-1.8167,-1.8454,-1.9113,-1.8939,-1.8467,-1.8816,-1.848,-1.8031,-1.8025,-1.7784,-1.7602,-1.7908,-1.7784,-1.7661,-1.8246,-1.8194,-1.8025,-1.8025,-1.7784,-1.7543,-1.7543,-1.7537,-1.7485,-1.7485,-1.7485,-1.7563,-1.7817,-1.7865,-1.7968,-1.8239,-1.8287,-1.8384,-1.8638,-1.8674,-1.877,-1.9036,-1.906,-1.9066,-1.9078,-1.9078,-1.9078,-1.9078,-1.9078,-1.9078,-1.9078,-1.9078,-1.9078,-1.9078,-1.9078,-1.9078,-1.9078,-1.9332,-1.9597,-1.9863,-1.9863,-1.9863,-2.238,0.0,0.0,0.0,0.0,0.0,-2.1667,-2.0909,-2.0081,-2.0802,-1.978,-1.8713,-1.849,-1.7601,-1.6779,-1.6211,-1.5345,-1.4719,-1.4504,-1.4665,-1.4617,-1.4245,-1.4347,-1.4396,-1.4191,-1.4196,-1.4196,-1.4196,-1.4196,-1.4196,-1.4196,-1.4196,-1.4645,-1.5558,-1.5526,-1.5818,-1.6496,-1.7367,-1.8225,-1.8968,-1.9191,-1.9604,-2.0173,-1.9333,-1.8512,-1.7659,-1.7737,-1.7439,-1.693,-1.7123,-1.715,-1.7088,-1.7115,-1.7297,-1.7459,-1.7678,-1.7866,-1.8175,-1.8553,-1.8689,-1.8786,-1.8874,-1.8765,-1.8596,-1.8363,-1.8246,-1.8188,-1.8246,-1.8246,-1.8188,-1.8357,-1.8363,-1.8311,-1.8311,-1.8246,-1.8123,-1.8123,-1.8018,-1.7784,-1.7543,-1.7485,-1.7503,-1.7575,-1.7744,-1.7961,-1.798,-1.8167,-1.8318,-1.839,-1.8402,-1.8505,-1.8764,-1.8794,-1.8873,-1.906,-1.9078,-1.9078,-1.9078,-1.9078,-1.9078,-1.9078,-1.9078,-1.9078,-1.9078,-1.9078,-1.9078,-1.9078,-1.9145,-1.9223,-1.9301,-1.9301,-1.9301,-2.3606,-2.2792,-2.2268,-2.2182,0.0,0.0,-2.2553,-2.1659,-2.0645,-2.1374,-2.0695,-1.9672,-1.897,-1.8426,-1.7975,-1.7596,-1.6746,-1.5779,-1.4874,-1.4874,-1.488,-1.4563,-1.4665,-1.4719,-1.4563,-1.4455,-1.4347,-1.4347,-1.4245,-1.4196,-1.4196,-1.4563,-1.5143,-1.5986,-1.5986,-1.638,-1.7186,-1.7662,-1.8448,-1.9604,-1.9716,-2.0194,-2.0885,-2.021,-1.9382,-1.8469,-1.8171,-1.767,-1.7039,-1.6875,-1.6742,-1.6744,-1.7344,-1.7363,-1.7173,-1.7344,-1.7702,-1.8122,-1.8466,-1.8741,-1.8915,-1.9085,-1.8997,-1.8874,-1.8648,-1.8538,-1.8421,-1.859,-1.8713,-1.8771,-1.8648,-1.859,-1.859,-1.859,-1.8473,-1.8421,-1.8421,-1.8311,-1.8077,-1.7784,-1.7602,-1.7485,-1.7485,-1.7612,-1.7708,-1.7708,-1.7853,-1.7998,-1.81,-1.8118,-1.8221,-1.8493,-1.8619,-1.8746,-1.8897,-1.9012,-1.9078,-1.9078,-1.9078,-1.9078,-1.9078,-1.9078,-1.9078,-1.9078,-1.9078,-1.9078,-1.9078,-1.9078,-1.9078,-1.9078,-1.9078,-1.9078,-2.4872,-2.423,-2.3959,-2.439,-2.3015,0.0,-2.3692,-2.2951,-2.1765,-2.1212,-2.1075,-2.053,-1.8852,-1.8775,-1.894,-1.899,-1.8302,-1.7206,-1.5458,-1.5143,-1.5089,-1.4987,-1.5035,-1.5041,-1.4987,-1.4767,-1.4654,-1.4606,-1.4455,-1.4299,-1.4196,-1.5035,-1.5879,-1.6677,-1.6677,-1.7206,-1.8363,-1.7779,-1.8349,-2.0027,-2.0181,-2.0534,-2.1089,-2.1089,-2.0467,-1.9346,-1.8642,-1.8029,-1.7549,-1.6908,-1.6618,-1.6752,-1.7479,-1.7531,-1.7129,-1.7146,-1.7489,-1.8092,-1.8612,-1.8844,-1.8925,-1.9225,-1.9158,-1.8939,-1.8939,-1.8765,-1.8596,-1.8881,-1.9185,-1.9307,-1.9055,-1.8939,-1.8939,-1.8939,-1.8706,-1.8538,-1.8538,-1.848,-1.8363,-1.8142,-1.7843,-1.7602,-1.7543,-1.7543,-1.7543,-1.7485,-1.7485,-1.7569,-1.7799,-1.7829,-1.7937,-1.8215,-1.8456,-1.8619,-1.868,-1.8897,-1.9042,-1.9072,-1.9078,-1.9078,-1.9078,-1.9078,-1.9078,-1.9078,-1.9078,-1.9078,-1.9078,-1.9078,-1.9078,-1.9078,-1.9078,-1.9078,-2.583,-2.543,-2.4965,-2.3526,-2.3523,0.0,-2.2801,-2.289,-2.3003,-2.2456,-2.2143,-2.1795,-2.1406,-2.0908,-2.0544,-2.0602,-1.9827,-1.8596,-1.6922,-1.6146,-1.5517,-1.5035,-1.5261,-1.5315,-1.5035,-1.4928,-1.4821,-1.4606,-1.4976,-1.4934,-1.425,-1.5035,-1.5879,-1.6677,-1.6677,-1.7147,-1.8094,-1.9034,-1.9598,-1.9687,-2.0842,-2.1725,-2.2283,-2.2283,-2.1658,-2.0577,-2.0382,-1.9294,-1.7635,-1.8366,-1.7742,-1.6371,-1.631,-1.653,-1.6788,-1.6778,-1.7017,-1.7441,-1.8008,-1.8377,-1.8624,-1.8918,-1.9114,-1.9307,-1.9307,-1.9249,-1.9249,-1.9307,-1.9366,-1.9366,-1.9307,-1.9307,-1.9307,-1.9307,-1.9249,-1.9191,-1.9191,-1.9004,-1.8765,-1.8706,-1.848,-1.8188,-1.7966,-1.7908,-1.779,-1.7543,-1.7485,-1.7503,-1.7551,-1.7557,-1.766,-1.7925,-1.7998,-1.8209,-1.865,-1.8728,-1.8849,-1.906,-1.9078,-1.9078,-1.9078,-1.9078,-1.9078,-1.9078,-1.9078,-1.9078,-1.9078,-1.9078,-1.9078,-1.9078,-1.9078,-1.9078,-2.6389,-2.6296,-2.6199,-2.5251,0.0,0.0,0.0,-2.3556,-2.3138,-2.3452,-2.2984,-2.237,-2.2032,-2.1776,-2.1465,-2.1122,-2.0565,-1.9898,-1.9176,-1.8185,-1.7457,-1.7134,-1.6783,-1.6477,-1.6311,-1.6146,-1.5867,-1.5488,-1.5607,-1.5464,-1.488,-1.6039,-1.6935,-1.7358,-1.7786,-1.8213,-1.8632,-1.9361,-1.9768,-1.9857,-2.085,-2.1581,-2.2182,-2.2443,-2.2283,-2.1717,-2.114,-2.0269,-1.9235,-1.9228,-1.8708,-1.7877,-1.7199,-1.7094,-1.7312,-1.7054,-1.7726,-1.8803,-1.8819,-1.8989,-1.9164,-1.941,-1.9343,-1.9145,-1.9145,-1.9252,-1.9424,-1.9424,-1.9424,-1.9424,-1.9424,-1.9424,-1.9424,-1.9424,-1.9424,-1.9424,-1.9424,-1.9243,-1.912,-1.912,-1.9004,-1.8777,-1.8252,-1.8194,-1.8077,-1.7784,-1.7726,-1.7667,-1.7543,-1.7485,-1.7533,-1.7666,-1.7793,-1.7986,-1.8257,-1.8529,-1.874,-1.8873,-1.9006,-1.9078,-1.9078,-1.9078,-1.9078,-1.9078,-1.9078,-1.9078,-1.9078,-1.9078,-1.9078,-1.9078,-1.9078,-1.9078,-2.6867,-2.7031,-2.73,-2.7123,0.0,-2.5253,0.0,0.0,0.0,-2.3961,-2.3498,-2.2762,-2.2049,-2.2174,-2.2142,-2.1425,-2.1294,-2.1318,-2.1398,-2.0562,-1.9817,-1.942,-1.8506,-1.7838,-1.7687,-1.7358,-1.6969,-1.6639,-1.6505,-1.6258,-1.5773,-1.7193,-1.7989,-1.7989,-1.8684,-1.9116,-1.9279,-1.9279,-1.9583,-2.0138,-2.0557,-2.107,-2.1725,-2.219,-2.2493,-2.2544,-2.1607,-2.1089,-2.0834,-1.9952,-1.9583,-1.942,-1.8603,-1.8342,-1.8342,-1.7943,-1.8909,-2.0372,-2.0046,-1.9978,-2.0021,-2.0281,-1.9984,-1.9526,-1.9307,-1.9469,-1.9707,-1.9482,-1.9424,-1.9424,-1.9424,-1.9424,-1.9424,-1.9424,-1.9424,-1.9424,-1.9424,-1.9424,-1.9424,-1.9424,-1.9424,-1.9191,-1.8596,-1.8473,-1.8421,-1.8142,-1.8025,-1.7908,-1.7602,-1.7543,-1.7485,-1.7485,-1.7672,-1.7817,-1.7871,-1.8275,-1.8571,-1.868,-1.8885,-1.9024,-1.9072,-1.9078,-1.9078,-1.9078,-1.9078,-1.9078,-1.9078,-1.9078,-1.9078,-1.9078,-1.9078,-1.9078,0.0,0.0,0.0,0.0,-2.7144,0.0,0.0,0.0,-2.5515,-2.3547,0.0,-2.3338,-2.2496,0.0,0.0,-2.2575,-2.304,-2.3224,-2.2529,-2.2545,-2.1984,-2.0148,-1.9376,-1.8767,-1.8035,-1.7457,-1.7292,-1.7772,-1.8244,-1.7937,-1.6624,-1.7463,-1.7989,-1.7989,-1.8094,-1.852,-1.9272,-1.9279,-1.9583,-2.0078,-2.0138,-2.0696,-2.1725,-2.1776,-2.208,-2.2594,-2.2443,-2.1818,-2.0936,-2.103,-2.0357,-1.928,-1.9376,-1.9576,-1.9775,-1.9973,-2.0179,-2.0436,-2.066,-2.0932,-2.1139,-2.1125,-2.1518,-2.1773,-2.0732,-2.0685,-2.078,-1.9707,-1.9424,-1.9424,-1.9424,-1.9424,-1.9424,-1.9424,-1.9424,-1.9424,-1.9424,-1.9424,-1.9424,-1.9424,-1.9424,-1.9307,-1.8881,-1.8816,-1.8706,-1.8421,-1.8135,-1.7972,-1.7966,-1.7667,-1.7485,-1.7485,-1.7509,-1.7624,-1.7853,-1.7992,-1.8173,-1.8656,-1.8716,-1.8837,-1.9066,-1.9078,-1.9078,-1.9078,-1.9078,-1.9078,-1.9078,-1.9078,-1.9078,-1.9078,-1.9078,-1.9078,0.0,0.0,0.0,0.0,0.0,0.0,-2.6367,0.0,-2.5954,0.0,0.0,0.0,0.0,0.0,0.0,0.0,-2.3363,-2.3523,-2.2906,-2.291,-2.2712,-2.2113,-2.1112,-2.0335,-1.993,-1.9109,-1.8797,-1.942,-1.9324,-1.8864,-1.7989,-1.8468,-1.8736,-1.8736,-1.8736,-1.8952,-1.9279,-1.9279,-1.9428,-1.9628,-1.9931,-2.0498,-2.1275,-2.1573,-2.203,-2.2594,-2.2594,-2.2333,-2.192,-2.2173,-2.1962,-2.1446,-2.1844,-2.1633,-2.0963,-2.0613,-2.1379,-2.2551,-2.2005,-2.1901,-2.1913,-2.1434,-2.1486,-2.1741,-2.1657,-2.1769,-2.1706,-2.0723,-2.0443,-2.027,-1.9597,-1.9931,-2.0443,-2.0443,-2.0443,-2.0443,-2.0443,-1.9873,-1.9424,-1.9424,-1.9424,-1.9366,-1.9185,-1.9185,-1.9062,-1.8765,-1.859,-1.8428,-1.8031,-1.7908,-1.7726,-1.7543,-1.7485,-1.7527,-1.7636,-1.7787,-1.7974,-1.8197,-1.8511,-1.8801,-1.9066,-1.9078,-1.9078,-1.9078,-1.9078,-1.9078,-1.9078,-1.9078,-1.9078,-1.9078,-1.9078,-1.9078,-2.8268,0.0,0.0,0.0,0.0,0.0,0.0,0.0,0.0,0.0,0.0,0.0,0.0,0.0,0.0,0.0,0.0,-2.399,-2.333,-2.3311,-2.3423,-2.3597,-2.2501,-2.1741,-2.1828,-2.0764,-2.0311,-2.0828,-2.0507,-1.9945,-1.919,-1.9368,-1.9428,-1.9279,-1.9279,-1.9279,-1.9279,-1.9279,-1.9279,-1.9279,-1.968,-2.0138,-2.0712,-2.1216,-2.1776,-2.2342,-2.2544,-2.2594,-2.2594,-2.2896,-2.2996,-2.3046,-2.3506,-2.3129,-2.2198,-2.17,-2.2669,-2.4102,-2.3238,-2.2987,-2.2872,-2.2263,-2.2154,-2.2292,-2.2481,-2.2654,-2.2511,-2.1615,-2.1421,-2.1319,-2.048,-2.0937,-2.168,-2.168,-2.168,-2.168,-2.168,-2.101,-2.0385,-2.0385,-2.0104,-1.9989,-2.0328,-1.9822,-1.9307,-1.9062,-1.8939,-1.8765,-1.8311,-1.82,-1.8018,-1.7778,-1.7778,-1.7778,-1.7778,-1.7838,-1.7924,-1.7925,-1.8318,-1.8692,-1.8957,-1.8969,-1.9,-1.9078,-1.9078,-1.9078,-1.9078,-1.9078,-1.9078,-1.9078,-1.9078,-1.9078,0.0,0.0,0.0,-2.8861,0.0,0.0,0.0,0.0,-2.8206,0.0,0.0,0.0,0.0,0.0,0.0,0.0,0.0,0.0,0.0,-2.436,-2.4566,-2.4028,-2.3131,-2.2733,-2.31,-2.203,-2.146,-2.1848,-2.1979,-2.1463,-2.013,-2.0078,-1.9828,-1.9324,-1.9279,-1.9279,-1.9279,-1.9279,-1.9279,-1.9279,-1.9324,-1.9628,-2.013,-2.066,-2.1224,-2.1776,-2.2342,-2.2594,-2.2594,-2.2896,-2.2996,-2.3046,-2.3297,-2.3546,-2.3746,-2.4003,-2.4152,-2.4202,-2.4152,-2.4152,-2.4152,-2.4112,-2.4395,-2.447,-2.3332,-2.3269,-2.3286,-2.2119,-2.2087,-2.234,-2.2285,-2.2601,-2.2926,-2.2926,-2.2926,-2.2926,-2.2926,-2.2918,-2.2862,-2.2862,-2.1964,-2.1509,-2.2692,-2.0952,-1.9424,-1.9366,-1.912,-1.8874,-1.8874,-1.859,-1.8363,-1.8363,-1.8363,-1.8363,-1.8363,-1.8148,-1.7972,-1.7919,-1.8143,-1.8426,-1.8686,-1.8698,-1.8813,-1.9066,-1.9078,-1.9078,-1.9078,-1.9078,-1.9078,-1.9078,-1.9078,-1.9078,0.0,0.0,-3.0214,-2.9875,0.0,0.0,0.0,0.0,0.0,0.0,0.0,0.0,0.0,0.0,0.0,0.0,0.0,0.0,0.0,-2.4711,-2.4992,-2.4863,-2.495,-2.5067,-2.5043,-2.3701,-2.2899,-2.2942,-2.2222,-2.1728,-2.1554,-2.0623,-2.0034,-1.9828,-1.948,-1.9279,-1.9279,-1.9279,-1.9279,-1.9279,-1.9279,-1.9576,-2.013,-2.066,-2.1173,-2.1725,-2.2342,-2.2594,-2.2594,-2.2896,-2.3097,-2.3297,-2.3546,-2.3854,-2.4053,-2.3954,-2.4053,-2.4202,-2.4202,-2.4202,-2.4202,-2.4202,-2.4293,-2.4368,-2.4218,-2.4295,-2.4189,-2.3254,-2.3086,-2.3017,-2.2209,-2.2901,-2.3783,-2.3783,-2.3975,-2.4214,-2.4214,-2.3544,-2.2974,-2.2974,-2.27,-2.2523,-2.2918,-2.2305,-2.1794,-2.1794,-2.0995,-2.0364,-2.012,-1.9274,-1.8648,-1.8421,-1.8421,-1.8421,-1.8421,-1.8305,-1.8307,-1.8517,-1.8564,-1.8738,-1.9013,-1.9025,-1.9069,-1.9156,-1.9349,-1.9386,-1.9116,-1.93,-1.9328,-1.9078,-1.9078,-1.9078,-2.983,-3.0247,0.0,-3.0207,-3.0219,0.0,-2.9656,0.0,-2.9479,0.0,0.0,0.0,0.0,0.0,0.0,0.0,0.0,0.0,0.0,-2.608,-2.6526,-2.6323,-2.6464,-2.6257,-2.5512,-2.4704,-2.3973,-2.3278,-2.2522,-2.2148,-2.2314,-2.1107,-2.0292,-2.0138,-1.9576,-1.9279,-1.9279,-1.9279,-1.9279,-1.9279,-1.9279,-1.948,-1.9828,-2.0351,-2.0909,-2.1428,-2.2038,-2.2392,-2.2594,-2.2795,-2.3046,-2.3397,-2.3596,-2.3904,-2.4202,-2.4003,-2.4053,-2.4202,-2.4202,-2.4202,-2.4202,-2.4202,-2.4202,-2.4257,-2.4532,-2.4606,-2.45,-2.3969,-2.393,-2.3878,-2.3075,-2.3725,-2.465,-2.465,-2.4958,-2.5248,-2.5248,-2.4739,-2.427,-2.427,-2.3935,-2.3768,-2.4214,-2.3935,-2.3488,-2.303,-2.2361,-2.1623,-2.0981,-2.0192,-1.9455,-1.8829,-1.8771,-1.8713,-1.859,-1.859,-1.8608,-1.8676,-1.8682,-1.8809,-1.9022,-1.9035,-1.9079,-1.9181,-1.954,-1.9562,-1.93,-1.9637,-1.9647,-1.9462,-1.9462,-1.9462]},{"header":{"parameterUnit":"m.s-1","parameterCategory":1,"la1":30.6,"la2":29.2853,"lo1":-89.7004,"lo2":-87.6739,"dy":0.0162,"dx":0.0183,"nx":112,"ny":82,"refTime":"2024-09-02T18:00:00:Z","depth":0,"parameterNumber":3,"parameterNumberName":"V-component_of_WINDS"},"data":[0.0,0.0,0.0,0.0,0.0,0.0,0.0,0.0,0.0,0.0,0.0,0.0,0.0,0.0,0.0,0.0,0.0,0.0,0.0,0.0,0.0,0.0,0.0,0.0,0.0,0.0,0.0,0.0,0.0,0.0,0.0,0.0,0.0,0.0,0.0,0.0,0.0,0.0,0.0,0.0,0.0,0.0,0.0,0.0,0.0,0.0,0.0,0.0,0.0,0.0,0.0,0.0,0.0,0.0,0.0,0.0,0.0,0.0,0.0,0.0,0.0,0.0,0.0,0.0,0.0,0.0,0.0,0.0,0.0,0.0,0.0,0.0,0.0,0.0,0.0,0.0,0.0,0.0,0.0,0.0,0.0,0.0,0.0,0.0,0.0,0.0,0.0,0.0,0.0,0.0,4.571,4.5981,4.5884,4.5807,4.5807,4.5807,4.5142,4.3595,0.0,0.0,0.0,0.0,0.0,0.0,0.0,0.0,0.0,0.0,0.0,0.0,0.0,0.0,0.0,0.0,0.0,0.0,0.0,0.0,0.0,0.0,0.0,0.0,0.0,0.0,0.0,0.0,0.0,0.0,0.0,0.0,0.0,0.0,0.0,0.0,0.0,0.0,0.0,0.0,0.0,0.0,0.0,0.0,0.0,0.0,0.0,0.0,0.0,0.0,0.0,0.0,0.0,0.0,0.0,0.0,0.0,0.0,0.0,0.0,0.0,0.0,0.0,0.0,0.0,0.0,0.0,0.0,0.0,0.0,0.0,0.0,0.0,0.0,0.0,0.0,0.0,0.0,0.0,0.0,0.0,0.0,0.0,0.0,0.0,0.0,0.0,0.0,0.0,0.0,0.0,0.0,0.0,0.0,0.0,0.0,0.0,0.0,0.0,0.0,0.0,0.0,0.0,0.0,4.5336,4.6748,4.6252,4.5807,4.5807,4.5807,4.5394,4.4458,0.0,0.0,0.0,0.0,0.0,0.0,0.0,0.0,0.0,0.0,0.0,0.0,0.0,0.0,0.0,0.0,0.0,0.0,0.0,0.0,0.0,0.0,0.0,0.0,0.0,0.0,0.0,0.0,0.0,0.0,0.0,0.0,0.0,0.0,0.0,0.0,0.0,0.0,0.0,0.0,0.0,0.0,0.0,0.0,0.0,0.0,0.0,0.0,0.0,0.0,0.0,0.0,0.0,0.0,0.0,0.0,0.0,0.0,0.0,0.0,0.0,0.0,0.0,0.0,0.0,0.0,0.0,0.0,0.0,0.0,0.0,0.0,0.0,0.0,0.0,0.0,0.0,0.0,0.0,0.0,0.0,0.0,0.0,0.0,0.0,0.0,0.0,0.0,0.0,0.0,0.0,0.0,0.0,0.0,0.0,0.0,0.0,0.0,0.0,0.0,0.0,0.0,0.0,4.446,4.5447,4.7637,4.6629,4.5807,4.5807,4.5807,4.5258,4.3982,4.2299,0.0,0.0,0.0,0.0,0.0,0.0,0.0,0.0,0.0,0.0,0.0,0.0,0.0,0.0,0.0,0.0,0.0,0.0,0.0,0.0,0.0,0.0,0.0,0.0,0.0,0.0,0.0,0.0,0.0,0.0,0.0,0.0,0.0,0.0,0.0,0.0,0.0,0.0,0.0,0.0,0.0,0.0,0.0,0.0,0.0,0.0,0.0,0.0,0.0,0.0,0.0,0.0,0.0,0.0,0.0,0.0,0.0,0.0,0.0,0.0,0.0,0.0,0.0,0.0,0.0,0.0,0.0,0.0,0.0,0.0,0.0,0.0,0.0,0.0,0.0,0.0,0.0,0.0,0.0,0.0,0.0,0.0,0.0,0.0,0.0,0.0,0.0,0.0,0.0,0.0,0.0,0.0,0.0,0.0,0.0,0.0,0.0,0.0,0.0,0.0,0.0,0.0,4.5636,4.5794,4.7958,4.6796,4.5822,4.5807,4.5633,4.4871,4.3401,4.1525,0.0,0.0,0.0,0.0,0.0,0.0,0.0,0.0,0.0,0.0,0.0,0.0,0.0,0.0,0.0,0.0,0.0,0.0,0.0,0.0,0.0,0.0,0.0,0.0,0.0,0.0,0.0,0.0,0.0,0.0,0.0,0.0,0.0,0.0,0.0,0.0,0.0,0.0,0.0,0.0,0.0,0.0,0.0,0.0,0.0,0.0,0.0,0.0,0.0,0.0,0.0,0.0,0.0,0.0,0.0,0.0,0.0,0.0,0.0,0.0,0.0,0.0,0.0,0.0,0.0,0.0,0.0,0.0,0.0,0.0,0.0,0.0,0.0,0.0,0.0,0.0,0.0,0.0,0.0,0.0,0.0,0.0,0.0,0.0,0.0,0.0,0.0,0.0,0.0,0.0,0.0,0.0,0.0,0.0,0.0,0.0,0.0,0.0,0.0,0.0,0.0,0.0,4.5533,4.6329,4.7206,4.6516,4.5941,4.5814,4.5104,4.4291,4.3363,4.0971,0.0,0.0,0.0,0.0,0.0,0.0,0.0,0.0,0.0,0.0,0.0,0.0,0.0,0.0,0.0,0.0,0.0,0.0,0.0,0.0,0.0,0.0,0.0,0.0,0.0,0.0,0.0,0.0,0.0,0.0,0.0,0.0,0.0,0.0,0.0,0.0,0.0,0.0,0.0,0.0,0.0,0.0,0.0,0.0,0.0,0.0,0.0,0.0,0.0,0.0,0.0,0.0,0.0,0.0,0.0,0.0,0.0,0.0,0.0,0.0,0.0,0.0,0.0,0.0,0.0,0.0,0.0,0.0,0.0,0.0,0.0,0.0,0.0,0.0,0.0,0.0,0.0,0.0,0.0,0.0,0.0,0.0,0.0,0.0,0.0,0.0,0.0,0.0,0.0,0.0,0.0,0.0,0.0,0.0,0.0,0.0,0.0,0.0,0.0,0.0,0.0,0.0,4.5877,4.6641,0.0,4.6876,4.598,4.5935,4.5564,4.4755,4.3382,0.0,0.0,0.0,0.0,0.0,0.0,0.0,0.0,0.0,0.0,0.0,0.0,0.0,0.0,0.0,0.0,0.0,0.0,0.0,0.0,0.0,0.0,0.0,0.0,0.0,0.0,0.0,0.0,0.0,0.0,0.0,0.0,0.0,0.0,0.0,0.0,0.0,0.0,0.0,0.0,0.0,0.0,0.0,0.0,0.0,0.0,0.0,0.0,0.0,0.0,0.0,0.0,0.0,0.0,0.0,0.0,0.0,0.0,0.0,0.0,0.0,0.0,0.0,0.0,0.0,0.0,0.0,0.0,0.0,0.0,0.0,0.0,0.0,0.0,0.0,0.0,0.0,0.0,0.0,0.0,0.0,0.0,0.0,0.0,0.0,0.0,0.0,0.0,0.0,0.0,0.0,0.0,0.0,0.0,0.0,0.0,0.0,0.0,0.0,0.0,0.0,0.0,4.5313,4.6206,4.703,0.0,4.6979,4.605,4.6007,4.5673,4.4736,4.3002,0.0,0.0,0.0,0.0,0.0,0.0,0.0,0.0,0.0,0.0,0.0,0.0,0.0,0.0,0.0,0.0,0.0,0.0,0.0,0.0,0.0,0.0,0.0,0.0,0.0,0.0,0.0,0.0,0.0,0.0,0.0,0.0,0.0,0.0,0.0,0.0,0.0,0.0,0.0,0.0,0.0,0.0,0.0,0.0,0.0,0.0,0.0,0.0,0.0,0.0,0.0,0.0,0.0,0.0,0.0,0.0,0.0,0.0,0.0,0.0,0.0,0.0,0.0,0.0,0.0,0.0,0.0,0.0,0.0,0.0,0.0,0.0,0.0,0.0,0.0,0.0,0.0,0.0,0.0,0.0,0.0,0.0,0.0,0.0,0.0,0.0,0.0,0.0,0.0,0.0,0.0,0.0,0.0,0.0,0.0,0.0,0.0,0.0,0.0,0.0,0.0,0.0,4.4595,4.6468,4.7596,4.7517,4.6731,4.6164,4.6003,4.5262,4.4016,0.0,0.0,0.0,0.0,0.0,0.0,0.0,0.0,0.0,0.0,0.0,0.0,0.0,0.0,0.0,0.0,0.0,0.0,0.0,0.0,0.0,0.0,0.0,0.0,0.0,0.0,0.0,0.0,0.0,0.0,0.0,0.0,0.0,0.0,0.0,0.0,0.0,0.0,0.0,0.0,0.0,0.0,0.0,0.0,0.0,0.0,0.0,0.0,0.0,0.0,0.0,0.0,0.0,0.0,0.0,0.0,0.0,0.0,0.0,0.0,0.0,0.0,0.0,0.0,0.0,0.0,0.0,0.0,0.0,0.0,0.0,0.0,0.0,0.0,0.0,0.0,0.0,0.0,0.0,0.0,0.0,0.0,0.0,0.0,0.0,0.0,0.0,0.0,0.0,0.0,0.0,0.0,0.0,0.0,0.0,0.0,0.0,0.0,0.0,0.0,0.0,0.0,0.0,4.5495,4.7895,4.9199,4.8553,4.7662,4.6858,4.6203,4.5884,4.4678,4.2218,0.0,0.0,0.0,0.0,0.0,0.0,0.0,0.0,0.0,0.0,0.0,0.0,0.0,0.0,0.0,0.0,0.0,0.0,0.0,0.0,0.0,0.0,0.0,0.0,0.0,0.0,0.0,0.0,0.0,0.0,0.0,0.0,0.0,0.0,0.0,0.0,0.0,0.0,0.0,0.0,0.0,0.0,0.0,0.0,0.0,0.0,0.0,0.0,0.0,0.0,0.0,0.0,0.0,0.0,0.0,0.0,0.0,0.0,0.0,0.0,0.0,0.0,0.0,0.0,0.0,0.0,0.0,0.0,0.0,0.0,0.0,0.0,0.0,0.0,0.0,0.0,0.0,0.0,0.0,0.0,0.0,0.0,0.0,0.0,0.0,0.0,0.0,0.0,0.0,0.0,0.0,0.0,0.0,0.0,0.0,0.0,0.0,0.0,0.0,0.0,0.0,0.0,4.5927,4.85,4.9863,4.8984,4.8082,4.7174,4.6282,4.6195,4.5167,4.2813,0.0,0.0,0.0,0.0,0.0,0.0,0.0,0.0,0.0,0.0,0.0,0.0,0.0,0.0,0.0,0.0,0.0,0.0,0.0,0.0,0.0,0.0,0.0,0.0,0.0,0.0,0.0,0.0,0.0,0.0,0.0,0.0,0.0,0.0,0.0,0.0,0.0,0.0,0.0,0.0,0.0,0.0,0.0,0.0,0.0,0.0,0.0,0.0,0.0,0.0,0.0,0.0,0.0,0.0,0.0,0.0,0.0,0.0,0.0,0.0,0.0,0.0,0.0,0.0,0.0,0.0,0.0,0.0,0.0,0.0,0.0,0.0,0.0,0.0,0.0,0.0,0.0,0.0,0.0,0.0,0.0,0.0,0.0,0.0,0.0,0.0,0.0,0.0,0.0,0.0,0.0,0.0,0.0,0.0,0.0,0.0,0.0,0.0,0.0,0.0,0.0,0.0,4.6005,4.8559,4.9941,4.9004,4.8183,4.7303,4.6308,4.6266,4.5501,4.3632,0.0,0.0,0.0,0.0,0.0,0.0,0.0,0.0,0.0,0.0,0.0,0.0,0.0,0.0,0.0,0.0,0.0,0.0,0.0,0.0,0.0,0.0,0.0,0.0,0.0,0.0,0.0,0.0,0.0,0.0,0.0,0.0,0.0,0.0,0.0,0.0,0.0,0.0,0.0,0.0,0.0,0.0,0.0,0.0,0.0,0.0,0.0,0.0,0.0,0.0,0.0,0.0,0.0,0.0,0.0,0.0,0.0,0.0,0.0,0.0,4.2863,4.1709,0.0,0.0,0.0,0.0,0.0,0.0,0.0,0.0,0.0,0.0,0.0,0.0,0.0,0.0,0.0,0.0,0.0,0.0,0.0,0.0,0.0,0.0,0.0,0.0,0.0,0.0,0.0,0.0,0.0,0.0,0.0,0.0,0.0,0.0,0.0,0.0,0.0,0.0,0.0,0.0,4.6079,4.9048,5.0566,4.9062,4.873,4.7988,4.6405,4.6289,4.5525,4.3683,4.3414,0.0,0.0,0.0,0.0,0.0,0.0,0.0,0.0,0.0,0.0,0.0,0.0,0.0,0.0,0.0,0.0,0.0,0.0,0.0,0.0,0.0,0.0,0.0,0.0,0.0,0.0,0.0,0.0,0.0,0.0,0.0,0.0,0.0,0.0,0.0,0.0,0.0,0.0,0.0,0.0,0.0,0.0,0.0,0.0,0.0,0.0,0.0,0.0,0.0,0.0,0.0,0.0,0.0,0.0,0.0,0.0,0.0,0.0,0.0,4.605,4.4935,0.0,0.0,0.0,0.0,0.0,0.0,0.0,0.0,0.0,0.0,0.0,0.0,0.0,0.0,0.0,0.0,0.0,0.0,0.0,0.0,0.0,0.0,0.0,0.0,0.0,0.0,0.0,0.0,0.0,0.0,0.0,0.0,0.0,0.0,0.0,0.0,0.0,0.0,0.0,0.0,4.6726,4.9484,5.0762,4.9082,4.8906,4.8183,4.6445,4.6308,4.5898,4.4956,4.4116,0.0,0.0,0.0,0.0,0.0,0.0,0.0,0.0,0.0,0.0,0.0,0.0,0.0,0.0,0.0,0.0,0.0,0.0,0.0,0.0,0.0,0.0,0.0,0.0,0.0,0.0,0.0,0.0,0.0,0.0,0.0,0.0,0.0,0.0,0.0,0.0,0.0,0.0,0.0,0.0,0.0,0.0,0.0,0.0,0.0,0.0,0.0,0.0,0.0,0.0,0.0,0.0,0.0,5.0536,5.0987,5.169,5.169,5.1713,5.1642,4.9484,4.8723,4.8917,4.7555,0.0,0.0,0.0,0.0,0.0,0.0,0.0,0.0,0.0,0.0,0.0,0.0,0.0,0.0,0.0,0.0,0.0,0.0,0.0,0.0,0.0,0.0,0.0,0.0,5.1816,5.1953,4.8418,0.0,0.0,0.0,0.0,0.0,0.0,0.0,0.0,0.0,0.0,0.0,4.7635,4.9879,5.0762,4.9082,4.8906,4.8183,4.6445,4.6308,4.6308,4.6308,4.4941,4.4141,0.0,0.0,0.0,0.0,0.0,0.0,0.0,0.0,0.0,0.0,0.0,0.0,0.0,0.0,0.0,0.0,0.0,0.0,0.0,0.0,0.0,0.0,0.0,0.0,0.0,0.0,0.0,0.0,0.0,0.0,0.0,0.0,4.6441,4.6671,0.0,0.0,0.0,0.0,0.0,0.0,0.0,0.0,0.0,0.0,0.0,0.0,0.0,5.0977,5.1033,5.1893,5.2323,5.2342,5.3104,5.3514,5.3631,5.3631,5.3632,5.3613,5.328,0.0,4.9876,5.0399,0.0,0.0,0.0,0.0,0.0,0.0,0.0,0.0,0.0,0.0,0.0,0.0,0.0,0.0,0.0,0.0,0.0,0.0,0.0,0.0,0.0,0.0,5.25,5.2402,5.3125,5.3672,0.0,5.1328,4.998,5.0449,4.9403,0.0,0.0,0.0,0.0,0.0,0.0,0.0,4.8612,5.025,5.0762,4.9082,4.8906,4.8183,4.6445,4.6308,4.6308,4.6308,4.6074,4.5957,4.5957,4.5117,0.0,0.0,0.0,0.0,0.0,0.0,0.0,0.0,0.0,0.0,0.0,0.0,0.0,0.0,0.0,0.0,0.0,0.0,0.0,0.0,0.0,0.0,0.0,0.0,0.0,0.0,0.0,0.0,0.0,4.6078,4.7756,4.7264,4.8027,4.8096,0.0,0.0,0.0,0.0,0.0,0.0,0.0,0.0,0.0,5.1489,5.2356,5.283,5.2851,5.373,5.416,5.418,5.4551,5.498,5.5469,5.5469,5.5469,5.5469,5.5469,5.4511,5.2925,5.2339,5.1656,5.0932,0.0,0.0,0.0,0.0,5.1367,5.1152,5.2031,5.2344,5.2168,5.1191,0.0,0.0,0.0,0.0,0.0,0.0,0.0,5.0293,0.0,0.0,5.2812,5.3301,5.4101,5.4726,5.4726,5.3476,5.2148,0.0,5.0428,4.9116,4.7651,0.0,0.0,0.0,0.0,4.9038,4.9528,5.0644,5.0957,4.9766,4.9199,4.8398,4.7148,4.6582,4.6308,4.6308,4.6307,4.6521,4.7009,4.6657,4.6051,0.0,0.0,0.0,0.0,0.0,0.0,0.0,0.0,0.0,0.0,0.0,0.0,0.0,0.0,0.0,0.0,0.0,0.0,0.0,0.0,0.0,0.0,0.0,0.0,0.0,0.0,0.0,0.0,4.7914,4.8871,4.802,4.9136,4.9232,0.0,0.0,0.0,0.0,0.0,0.0,5.0753,5.1598,5.2459,5.3338,5.4218,5.4668,5.4668,5.5312,5.5625,5.5625,5.5625,5.5976,5.6601,5.6601,5.6601,5.6601,5.6601,5.623,5.5508,5.3984,5.3223,5.2969,5.2324,5.207,5.2168,5.3047,5.3223,5.3164,5.4023,5.4336,5.4121,5.2812,5.2246,5.1758,5.0038,0.0,0.0,0.0,0.0,5.0703,5.1523,5.2207,5.2851,5.3516,5.4336,5.4961,5.4961,5.4277,5.3359,0.0,5.1211,4.9883,4.7949,0.0,0.0,0.0,0.0,4.9531,5.0391,5.1035,5.1094,5.0293,4.9629,4.8886,4.8008,4.7127,4.6638,4.6638,4.642,4.6692,4.757,4.7609,4.7392,4.6979,0.0,0.0,0.0,0.0,0.0,0.0,0.0,0.0,0.0,0.0,0.0,0.0,0.0,0.0,0.0,0.0,0.0,0.0,0.0,0.0,0.0,0.0,0.0,0.0,0.0,0.0,0.0,0.0,0.0,4.9957,5.2154,0.0,0.0,0.0,0.0,5.12,5.1283,5.1695,5.2511,5.3397,5.4277,5.5135,5.6015,5.6465,5.6465,5.6504,5.6523,5.6523,5.6523,5.6562,5.6601,5.6601,5.6601,5.6601,5.6601,5.6582,5.6465,5.5547,5.4687,5.3926,5.3887,5.3867,5.3965,5.4844,5.4648,5.4062,5.4922,5.5234,5.5215,5.5137,5.4531,5.3535,5.1725,5.1224,0.0,0.0,5.1283,5.1543,5.2402,5.2676,5.2715,5.2754,5.3437,5.4062,5.4062,5.3379,5.2988,0.0,5.25,5.1308,5.1172,0.0,5.0058,5.0019,5.0078,5.043,5.123,5.1367,5.1094,5.0293,5.0156,4.9784,4.8905,4.8042,4.7531,4.7531,4.6751,4.6692,4.757,4.7609,4.798,4.8742,4.7136,0.0,0.0,0.0,0.0,0.0,0.0,0.0,0.0,0.0,0.0,0.0,0.0,0.0,0.0,0.0,0.0,0.0,0.0,0.0,0.0,0.0,0.0,0.0,0.0,0.0,0.0,0.0,0.0,5.1707,5.3059,0.0,5.1132,5.1736,5.2242,5.2242,5.3277,5.4056,5.4368,5.5193,5.5819,5.6131,5.6445,5.6601,5.6601,5.6601,5.6601,5.6601,5.6601,5.6601,5.6601,5.6601,5.6601,5.6601,5.6601,5.6601,5.6582,5.6269,5.5957,5.5664,5.5664,5.5664,5.5703,5.6015,5.5937,5.5723,5.6035,5.6133,5.6035,5.5488,5.4707,5.3887,5.3221,5.3046,5.3066,5.3045,5.3046,5.3027,5.2754,5.2695,5.2695,5.2695,5.2949,5.3164,5.3164,5.293,5.2637,5.2383,5.1836,5.123,5.0723,5.082,5.0801,5.0273,5.0644,5.1074,5.1367,5.1405,5.1288,5.0993,5.0464,5.0014,4.9702,4.8407,4.7603,4.7603,4.6779,4.6915,4.8319,4.8377,4.8787,4.9666,4.9057,4.7787,0.0,0.0,0.0,0.0,0.0,0.0,0.0,0.0,0.0,0.0,0.0,0.0,0.0,0.0,0.0,0.0,0.0,0.0,0.0,0.0,0.0,0.0,0.0,0.0,0.0,5.1871,5.2947,5.2662,5.3962,5.4199,5.2441,5.3338,5.402,5.402,5.5366,5.6186,5.6186,5.7009,5.7479,5.7479,5.748,5.748,5.748,5.748,5.748,5.748,5.748,5.748,5.748,5.748,5.7324,5.7031,5.7031,5.6875,5.6601,5.6601,5.6601,5.6601,5.6601,5.6601,5.6601,5.6601,5.6601,5.6601,5.6601,5.6601,5.6504,5.5937,5.5351,5.4824,5.4531,5.4433,5.4433,5.4433,5.4023,5.3496,5.3203,5.2695,5.2266,5.2266,5.2266,5.2266,5.2266,5.2266,5.209,5.1504,5.1406,5.123,5.0703,5.1055,5.1211,5.0683,5.1054,5.1405,5.1403,5.1403,5.1402,5.1398,5.0889,5.0536,5.0536,4.8987,4.8122,4.8415,4.7377,4.749,4.9169,4.8954,4.9208,5.0085,4.9538,4.8562,4.7139,0.0,0.0,0.0,0.0,0.0,0.0,0.0,0.0,0.0,0.0,0.0,0.0,0.0,0.0,0.0,0.0,0.0,0.0,0.0,0.0,0.0,0.0,0.0,5.138,5.2868,5.3659,5.291,5.5077,5.5974,5.4295,5.5678,5.6671,5.6671,5.7457,5.7947,5.7947,5.875,5.9199,5.9199,5.9199,5.9199,5.9199,5.9199,5.9199,5.9199,5.9199,5.9199,5.9199,5.9199,5.873,5.7949,5.7949,5.7441,5.664,5.664,5.6621,5.6601,5.6601,5.6601,5.6601,5.6601,5.6601,5.6601,5.6601,5.6601,5.6601,5.6601,5.6601,5.6445,5.5605,5.5332,5.5332,5.5332,5.4101,5.2969,5.3789,5.2734,5.1426,5.1406,5.1406,5.1406,5.1406,5.1406,5.1406,5.1405,5.1406,5.1406,5.1406,5.1406,5.1405,5.1405,5.1402,0.0,5.1398,5.1398,5.1398,5.1397,5.1393,5.1409,5.1409,4.9838,4.9208,5.0046,4.8543,4.8386,5.0026,4.9286,4.9247,5.0124,4.8562,4.8115,4.8837,0.0,0.0,0.0,0.0,0.0,0.0,0.0,0.0,0.0,0.0,0.0,0.0,0.0,0.0,0.0,0.0,0.0,0.0,0.0,0.0,0.0,5.2013,5.3198,5.3198,5.4171,5.5077,5.5488,5.6719,5.7343,5.6875,5.7831,5.8495,5.8495,5.871,5.8847,5.8847,5.9062,5.9199,5.9199,5.9199,5.9199,5.9199,5.9199,5.9199,5.9199,5.9199,5.9199,5.9199,5.9199,5.9062,5.8848,5.8848,5.8359,5.7539,5.7539,5.7168,5.6601,5.6601,5.6601,5.6601,5.6601,5.6601,5.6601,5.6601,5.6601,5.6601,5.6601,5.6601,5.6562,5.6328,5.623,5.623,5.623,5.5449,5.4492,5.4101,5.3183,5.2187,5.1543,5.1406,5.1406,5.1406,5.1405,5.1405,5.1401,5.1401,5.1402,5.1402,5.1401,5.14,5.14,5.1399,0.0,5.1393,5.1393,5.139,5.1403,5.14,5.1398,5.1398,5.0381,4.9831,5.0085,4.9072,4.8954,5.0046,4.987,5.0143,5.1023,5.1219,5.0789,0.0,0.0,0.0,0.0,0.0,0.0,0.0,0.0,0.0,0.0,0.0,0.0,0.0,0.0,0.0,0.0,0.0,0.0,0.0,0.0,0.0,0.0,5.3814,5.4738,5.5461,5.5721,5.6035,5.6543,5.7363,5.789,5.789,5.8691,5.9199,5.9199,5.9512,5.9707,5.9707,6.0058,6.0254,6.0254,6.0254,6.0254,6.0254,6.0254,6.0254,6.0254,6.0254,6.0254,6.0254,6.0254,6.0058,5.9707,5.9707,5.9219,5.8437,5.8437,5.8144,5.7617,0.0,0.0,0.0,0.0,5.6601,5.6601,5.6601,5.6601,5.6601,5.6601,5.6601,5.6601,5.6601,5.6601,5.6601,5.6601,5.5976,5.5176,5.4687,5.3906,5.3125,5.2617,5.248,5.2499,5.2498,5.2497,5.2495,5.249,5.2489,0.0,5.2483,5.1881,5.1395,5.1395,5.1393,5.1408,5.1403,5.1403,5.1402,5.1394,5.1394,5.1394,5.1394,5.0592,0.0,0.0,0.0,4.9735,5.0612,5.1004,0.0,0.0,0.0,0.0,0.0,0.0,0.0,0.0,5.3737,5.4049,0.0,0.0,0.0,0.0,0.0,0.0,0.0,0.0,0.0,0.0,0.0,0.0,0.0,0.0,0.0,0.0,5.5563,5.6289,5.7832,5.7305,5.6719,5.6601,5.7461,5.8047,5.8047,5.8926,5.9473,5.9473,6.0137,6.0547,6.0547,6.1289,0.0,0.0,0.0,6.1699,6.1699,6.1699,6.1699,6.1699,6.1699,6.1699,6.1699,6.1699,6.1289,6.0547,6.0547,6.0098,5.9336,5.9336,5.9219,5.8906,5.7344,5.6699,5.6601,5.6601,5.6601,5.6601,5.6601,0.0,0.0,5.6601,5.6601,5.6601,5.6601,5.6601,5.6601,5.6601,5.5976,5.5293,5.5293,5.4648,5.4004,5.4004,5.4003,5.4001,5.4001,5.3997,5.3992,5.4005,5.4003,5.4002,5.3992,5.2729,5.1662,5.1564,5.1556,5.1511,5.1414,5.1394,5.1433,5.1531,0.0,0.0,5.1687,5.0982,5.0865,5.1648,5.0963,5.0885,5.1668,5.2526,5.2958,5.286,5.3036,5.3856,5.53,5.5396,5.5845,5.6547,5.4225,5.442,0.0,0.0,0.0,0.0,0.0,0.0,0.0,0.0,0.0,0.0,0.0,0.0,0.0,0.0,0.0,5.6132,5.7519,5.8555,5.8906,5.8203,5.7383,5.668,5.7988,5.8945,5.8945,6.0312,6.1211,6.1211,6.1367,6.1445,6.1445,6.1601,6.1699,6.1699,6.1699,6.1699,6.1699,6.1699,6.1699,6.1699,6.1699,0.0,6.1699,6.1699,6.1601,6.1445,6.1445,6.0957,6.0176,6.0176,5.9375,5.8125,5.7773,5.7226,5.6601,5.6601,5.6601,5.6601,5.6601,5.6601,5.6601,5.6601,5.6601,5.6601,5.6601,5.6601,0.0,5.6601,5.5976,5.5293,5.5293,5.4648,5.4002,5.4002,5.4,5.3996,5.3991,5.4008,5.4005,5.3994,5.3992,5.3992,5.399,5.3719,5.3253,5.255,5.245,5.2195,5.1492,5.1394,5.1668,5.2372,5.245,5.2722,5.3444,5.3346,5.3327,5.3483,5.3346,5.3327,5.3483,5.4322,5.4478,5.3756,5.5123,5.5669,5.53,5.6001,5.645,5.6586,5.6079,5.6469,0.0,0.0,0.0,0.0,0.0,0.0,0.0,0.0,0.0,0.0,0.0,5.1228,5.2946,0.0,5.6504,5.8223,5.8887,5.9336,5.9746,5.9082,5.8398,5.7949,5.8672,5.9355,5.9765,6.0957,6.1699,6.1699,6.1699,6.1699,6.1699,6.1699,6.1699,6.1699,6.1699,6.1699,6.1699,6.1699,6.1699,6.1699,6.1699,6.1699,6.1699,6.1699,6.1699,6.1699,6.1699,6.1445,6.1055,6.1055,6.0293,5.9101,5.8711,5.7754,5.6601,5.6601,5.6601,5.6601,5.6601,5.6601,5.6601,5.6601,5.6601,5.6601,5.6601,5.6601,5.6601,5.6601,5.6289,5.5957,5.5957,5.5624,5.529,5.5308,5.5303,5.5298,5.5293,5.531,5.5304,5.5298,5.5298,5.5298,5.5298,5.5298,5.4869,5.3541,5.3346,5.319,5.2761,5.2702,5.2878,5.3307,5.3346,5.3522,5.3951,5.401,5.401,5.401,5.44,5.4654,5.4654,5.5493,5.5747,5.5318,5.6157,5.6391,5.5942,5.6391,5.6801,5.7192,5.7192,5.7641,0.0,0.0,0.0,0.0,0.0,0.0,0.0,5.045,5.1395,5.1678,5.2485,5.3617,5.5181,5.6364,5.7832,6.0039,6.0,5.9902,6.0566,5.9941,5.9492,5.9668,5.9531,5.9687,6.0332,6.1191,6.1699,6.1699,6.1699,6.1777,6.1933,6.1797,6.1777,6.1953,6.1797,6.1699,6.1699,6.1699,6.1699,6.1699,6.1699,6.1699,6.1699,6.1699,6.1699,6.1699,6.1699,6.1699,6.1699,6.1699,6.1191,6.0312,5.9512,5.8242,5.6836,5.666,5.6601,5.6601,5.6601,5.6601,5.6601,5.6601,5.6601,5.6601,5.6601,5.6601,5.6601,5.6601,5.6601,5.6601,5.6599,5.6598,5.6597,5.6592,5.6605,5.6598,5.6598,5.6593,5.6606,5.6606,5.6606,5.6606,5.6606,5.6606,5.6079,5.4498,5.4244,5.4186,5.4029,5.401,5.4068,5.4225,5.4244,5.4322,5.4498,5.4517,5.4517,5.4517,5.5162,5.5552,5.5552,5.6235,5.6606,5.6606,5.6606,5.6684,5.6821,5.6821,5.725,5.805,5.8226,5.8675,4.8317,4.8255,4.8775,5.0245,5.0116,5.0254,0.0,5.2809,5.2667,5.3512,5.4394,5.5293,5.6269,5.7793,5.9238,6.0234,6.0976,6.1445,6.1543,6.0801,6.0547,6.1328,6.0742,6.0293,6.039,6.1191,6.1699,6.1699,6.1699,6.2031,6.2812,6.2129,6.2051,6.2832,6.2109,6.1699,6.1699,6.1699,6.1699,6.1699,6.1699,6.1699,6.1699,6.1699,6.1699,6.1699,6.1699,6.1699,6.1699,6.1699,6.1191,6.0312,5.9512,5.8613,5.7656,5.6894,5.6601,5.6601,5.6601,5.6601,5.6601,5.6601,5.6601,5.6601,5.66,5.66,5.6599,5.6596,5.6595,5.6594,5.6594,5.6609,5.6603,5.6603,5.6595,5.6608,5.6608,5.6606,5.6606,5.6606,5.6606,5.6606,5.6606,5.6606,5.6274,5.5298,5.5142,5.4869,5.4108,5.401,5.4303,5.5064,5.5142,5.5474,5.6235,5.6313,5.6313,5.6313,5.6391,5.645,5.645,5.6547,5.6606,5.6606,5.6606,5.6957,5.766,5.766,5.8109,5.8968,5.9749,6.0159,5.0239,5.0475,5.0825,5.2092,5.2593,5.3075,5.4225,5.4694,5.4999,5.5429,5.5801,5.6484,5.7851,5.8711,5.9629,6.0937,6.1465,6.1699,6.1699,6.0957,6.0547,6.0898,6.0625,6.0605,6.1113,6.1484,6.1914,6.2422,6.2461,6.2832,6.3711,6.3418,6.3379,6.3749,6.2909,6.2459,6.2458,6.195,6.1695,6.1695,6.1695,6.1695,6.1695,6.1695,6.1695,6.1695,6.1695,6.1695,6.1695,6.1695,6.1481,6.107,6.0231,5.9684,5.9138,5.7284,5.6601,5.6601,5.66,5.66,5.6601,5.6599,5.6599,5.6598,5.6597,5.6596,5.6596,5.6593,5.6593,5.6592,5.6607,5.6603,5.66,5.6595,5.6608,5.6606,5.6606,5.6606,5.6606,5.6606,5.6606,5.6606,5.6606,5.6606,5.6489,5.6118,5.6059,5.5923,5.5552,5.5513,5.565,5.602,5.6059,5.6196,5.6567,5.6606,5.6606,5.6606,5.6606,5.6606,5.6606,5.6606,5.6606,5.6606,5.7055,5.7465,5.7797,5.8304,5.9007,5.9866,6.0237,6.0666,5.141,5.1936,5.2393,5.3592,5.4407,5.4999,5.5334,5.5987,5.6531,5.6582,5.6601,5.7051,5.8555,5.9043,5.9746,6.1425,6.1894,6.205,6.207,6.1308,6.0761,6.0761,6.0544,6.074,6.162,6.1698,6.205,6.2929,6.3007,6.3495,6.4609,6.4433,6.4412,6.4644,6.3805,6.3354,6.3369,6.2725,6.2295,6.2061,6.2061,6.1924,6.1709,6.1709,6.1709,6.1709,6.1709,6.1709,6.1709,6.1709,6.1709,6.1612,6.0732,6.04,6.0147,5.8059,5.7146,5.6913,5.6674,5.6595,5.6597,5.6594,5.6593,5.6593,5.6591,5.661,5.6609,5.6607,5.6606,5.6605,5.6598,5.6596,5.6595,5.6608,5.6606,5.6606,5.6606,5.6606,5.6606,5.6606,5.6606,5.6606,5.6606,5.6606,5.6606,5.6606,5.6606,5.6606,5.6606,5.6606,5.6606,5.6606,5.6606,5.6606,5.6606,5.6606,5.6606,5.6606,5.6606,5.6606,5.6606,5.6606,5.6704,5.6938,5.7504,5.8031,5.8519,5.9143,5.9905,6.0764,6.0764,6.1095,5.0894,5.1518,5.2542,5.4407,5.4927,5.5256,5.6221,5.6533,5.6601,5.6601,5.6601,5.6875,5.7773,5.8633,5.9746,6.1423,6.2419,6.2965,6.296,6.2217,6.1651,6.1651,6.091,6.0734,6.1612,6.1709,6.2064,6.2928,6.3002,6.3743,6.5466,6.4759,6.4696,6.5535,6.4715,6.4266,6.4266,6.4227,6.3797,6.2959,6.2959,6.2529,6.1709,6.1709,6.1709,6.1709,6.1709,6.1709,6.1709,6.1709,6.1709,6.1612,6.0732,6.04,6.0282,5.9358,5.852,5.7746,5.6886,5.6593,5.6593,5.6593,5.6593,5.6592,5.6605,5.6602,5.66,5.661,5.6606,5.6606,5.6606,5.6606,5.6606,5.6606,5.6606,5.6606,5.6606,5.6606,5.6606,5.6606,5.6606,5.6606,5.6606,5.6606,5.6606,5.6606,5.6606,5.6606,5.6606,5.6606,5.6606,5.6606,5.6606,5.6606,5.6606,5.6606,5.6606,5.6606,5.6606,5.6606,5.6606,5.6606,5.6977,5.7758,5.7797,5.8636,6.0315,6.0354,6.0803,6.1659,6.1659,6.1679,5.1026,5.2403,5.4109,5.4731,5.5452,5.6079,5.6378,5.652,5.66,5.6598,5.6597,5.6871,5.773,5.8571,5.9703,6.1419,6.2434,6.3196,6.3779,6.3114,6.2567,6.2567,6.2309,6.2013,6.174,6.1705,6.2296,6.3743,6.3858,6.462,6.6379,6.6181,6.6139,6.6387,6.5586,6.5155,6.5167,6.4581,6.4154,6.3861,6.3273,6.2844,6.2531,6.1965,6.1692,6.1692,6.1692,6.1692,6.1692,6.1692,6.1692,6.1672,6.1379,6.1262,6.1163,6.0282,5.9796,5.9349,5.7904,5.7051,5.6605,5.6598,5.6596,5.6596,5.6593,5.6591,5.6591,5.6606,5.6606,5.6606,5.6606,5.6606,5.6606,5.6606,5.6606,5.6606,5.6606,5.6606,5.6606,5.6606,5.6606,5.6606,5.6606,5.6606,5.6606,5.6606,5.6606,5.6606,5.6606,5.6606,5.6606,5.6606,5.6606,5.6606,5.6606,5.6606,5.6606,5.6606,5.6606,5.684,5.7367,5.7406,5.7797,5.8656,5.9222,5.9807,6.0393,6.0978,6.1408,6.1698,6.1698,6.1698,5.1501,5.2952,5.4663,5.5307,5.5968,5.646,5.6477,5.6543,5.6518,5.6203,5.6144,5.63,5.6866,5.7648,5.8975,6.1315,6.2428,6.3403,6.4591,6.4003,6.3458,6.3458,6.3199,6.2902,6.2648,6.2635,6.3089,6.4224,6.4592,6.5373,6.6782,6.6857,6.6834,6.6807,6.6299,6.6024,6.6034,6.5468,6.506,6.4746,6.3887,6.3457,6.3457,6.2872,6.2462,6.2169,6.2169,6.1991,6.1698,6.1698,6.1698,6.1698,6.1698,6.1698,6.162,6.1076,6.0666,6.0198,5.8753,5.7938,5.7434,5.7135,5.7035,5.6977,5.6684,5.6606,5.6606,5.6606,5.6606,5.6606,5.6606,5.6606,5.6606,5.6606,5.6606,5.6606,5.6606,5.6821,5.6938,5.6665,5.6821,5.6938,5.6645,5.6606,5.6704,5.6996,5.6782,5.6606,5.6606,5.6606,5.6606,5.6606,5.6606,5.6606,5.6606,5.6606,5.6606,5.6606,5.6879,5.725,5.7777,5.8109,5.8675,5.9553,6.0119,6.0549,6.0861,6.174,6.2169,6.2169,6.2481,6.2637,5.2173,5.3147,5.4348,5.6067,5.646,5.6435,5.6562,5.6576,5.63,5.546,5.5304,5.5304,5.5304,5.6124,5.7879,6.1169,6.2516,6.3722,6.5412,6.4941,6.4433,6.4411,6.3689,6.3491,6.4275,6.4392,6.4397,6.437,6.5123,6.5941,6.6752,6.6802,6.6795,6.6795,6.6795,6.6795,6.6795,6.6795,6.6424,6.5643,6.4785,6.4377,6.4377,6.4319,6.3848,6.3067,6.3028,6.254,6.1757,6.1718,6.1698,6.1698,6.1698,6.1698,6.1698,6.1698,6.1174,6.0354,5.9514,5.9161,5.8968,5.8148,5.7836,5.766,5.6899,5.6626,5.6606,5.6606,5.6606,5.6606,5.6606,5.6626,5.6665,5.6665,5.6704,5.6723,5.6723,5.7328,5.7641,5.6879,5.7348,5.7621,5.686,5.6723,5.6996,5.7758,5.7211,5.6704,5.6665,5.6626,5.6606,5.6606,5.6606,5.6626,5.6665,5.6665,5.6684,5.6723,5.7445,5.7894,5.7933,5.8734,5.9573,6.0451,6.051,6.0939,6.1776,6.2637,6.3067,6.3086,6.3906,6.4299,5.249,5.4028,5.5843,5.6302,5.6481,5.656,5.6591,5.6098,5.557,5.5349,5.5308,5.5308,5.5308,5.7553,5.9933,6.1451,6.3521,6.5295,6.6346,6.6307,6.6134,6.6037,6.581,6.5498,6.5093,6.5639,6.5804,6.5314,6.547,6.5958,6.6761,6.6798,6.6795,6.6795,6.6795,6.6795,6.6795,6.6795,6.6697,6.6483,6.5663,6.5273,6.5253,6.4589,6.4182,6.3926,6.3282,6.2872,6.2618,6.1971,6.1698,6.1698,6.1698,6.1698,6.1698,6.1698,6.1562,6.1349,6.1113,6.0195,5.9063,5.8831,5.8324,5.7758,5.7562,5.7074,5.6606,5.6606,5.6606,5.6606,5.6606,5.7035,5.7484,5.7484,5.7992,5.8458,5.8458,5.8616,5.8714,5.8497,5.8636,5.8695,5.8497,5.8458,5.8538,5.8734,5.8597,5.8226,5.7582,5.6977,5.6606,5.6606,5.6606,5.684,5.7445,5.7484,5.7777,5.8421,5.8656,5.9065,5.971,5.9944,6.0471,6.1349,6.2013,6.2442,6.2676,6.3535,6.3965,6.3965,6.4201,6.4299,5.2972,5.439,5.5978,5.6356,5.6523,5.651,5.6115,5.5954,5.5657,5.489,5.5025,5.5181,5.4791,5.6918,5.9261,6.0861,6.3008,6.4992,6.6502,6.6713,6.6642,6.6489,6.6471,6.6276,6.579,6.6179,6.6307,6.5942,6.604,6.6327,6.6776,6.6795,6.6795,6.6795,6.6795,6.6765,6.6713,6.6765,6.673,6.6576,6.6262,6.6098,6.603,6.5594,6.5162,6.4723,6.4325,6.3871,6.3377,6.2588,6.2267,6.2228,6.1854,6.1698,6.1698,6.1698,6.1698,6.1698,6.1698,6.1054,6.0176,5.9788,5.9339,5.8792,5.8031,5.7484,5.7055,5.6704,5.686,5.7133,5.7133,5.7758,5.8363,5.8363,5.8734,5.9102,5.9102,5.9397,5.9671,5.9671,5.9358,5.9102,5.9102,5.9102,5.9222,5.9612,5.9339,5.9065,5.8948,5.8207,5.7699,5.7699,5.7699,5.7875,5.8324,5.8363,5.8577,5.9063,5.9456,5.9885,6.0373,6.0764,6.1193,6.1698,6.2559,6.3008,6.3008,6.4258,6.4863,6.4882,6.5234,6.5392,5.3492,5.4531,5.5554,5.6306,5.6462,5.6268,5.5624,5.587,5.5825,5.4303,5.4596,5.4908,5.4147,5.5506,5.7531,5.9973,6.1822,6.3764,6.6078,6.6393,6.6367,6.6279,6.6275,6.6275,6.6275,6.6275,6.6283,6.6279,6.6566,6.6733,6.6733,6.6733,6.6733,6.6733,6.6733,6.6682,6.6549,6.6678,6.658,6.6295,6.6585,6.6678,6.6555,6.6682,6.6268,6.5444,6.5492,6.4934,6.3925,6.321,6.2867,6.2694,6.193,6.1643,6.1668,6.1668,6.1674,6.1698,6.1698,6.1698,6.1581,6.0822,6.049,6.0119,5.8597,5.805,5.7836,5.7133,5.7348,5.7836,5.7933,5.8538,5.9122,5.9261,5.9356,5.9454,5.9454,6.0041,6.0568,6.0568,5.9963,5.9454,5.9454,5.9454,5.971,6.0451,5.9924,5.9729,6.0471,5.971,5.9102,5.9102,5.9102,5.9141,5.9261,5.928,5.9317,5.9434,6.0159,6.0568,6.0568,6.131,6.1698,6.1698,6.2676,6.3164,6.3184,6.4902,6.5761,6.578,6.6463,6.6795,5.3719,5.4999,5.6308,5.6465,5.6009,5.5673,5.6237,5.5376,5.4361,5.4068,5.4127,5.4186,5.4029,5.5883,5.8044,5.9934,6.1606,6.3294,6.5109,6.5355,6.5561,6.607,6.6119,6.6119,6.6119,6.6119,6.6157,6.622,6.6325,6.6393,6.6393,6.6393,6.6393,6.6393,6.6393,6.6379,6.6351,6.6379,6.6366,6.6295,6.6366,6.6379,6.6351,6.6379,6.6282,6.6079,6.5466,6.4668,6.3773,6.2931,6.2167,6.1499,6.1356,6.1381,6.1532,6.1532,6.1595,6.1698,6.1698,6.1698,6.1679,6.1522,6.0998,6.0334,6.0041,5.9456,5.8851,5.8712,5.8246,5.7972,5.8695,5.8987,5.928,6.0002,6.0725,6.1249,6.1249,6.1366,6.1464,6.1464,6.1347,6.1249,6.1249,6.1249,6.1308,6.1444,6.1347,6.1308,6.1464,6.0078,5.9102,5.9102,5.9102,5.9397,6.0119,6.0178,6.0471,6.1191,6.1386,6.1464,6.1464,6.162,6.1698,6.1698,6.3262,6.4065,6.4084,6.5761,6.658,6.66,6.6737,6.6795,5.4329,5.5444,5.6358,5.5934,5.5562,5.5298,5.5259,5.4947,5.4674,5.4674,5.5044,5.5192,5.4674,5.6239,5.7853,5.8615,6.0138,6.1963,6.4037,6.4311,6.4734,6.5862,6.5978,6.5967,6.5982,6.5905,6.5878,6.5983,6.5964,6.6021,6.6236,6.6244,6.6252,6.6287,6.6272,6.6231,6.6193,6.6267,6.6217,6.6098,6.6226,6.6267,6.6193,6.6275,6.6015,6.5504,6.5227,6.4579,6.3632,6.282,6.2255,6.1834,6.1388,6.1253,6.1348,6.1348,6.1381,6.1447,6.1447,6.1447,6.1447,6.1447,6.1276,6.0998,6.0549,6.0119,5.969,5.9222,5.9124,5.9241,5.9671,6.0119,6.0566,6.0978,6.1408,6.1698,6.1698,6.1698,6.1698,6.1698,6.1698,6.1698,6.1698,6.1698,6.1698,6.1698,6.1634,6.1591,6.1591,6.0772,6.0254,6.0425,6.0449,6.0595,6.0932,6.0967,6.1105,6.1427,6.1447,6.1447,6.1447,6.153,6.1764,6.2099,6.3543,6.4479,6.481,6.6157,6.6795,6.6795,6.6795,6.6795,5.4641,5.562,5.6227,5.5404,5.5114,5.4888,5.4381,5.4654,5.5064,5.5259,5.5845,5.6062,5.5248,5.6154,5.7103,5.7327,5.8462,6.0262,6.2907,6.3263,6.3913,6.5679,6.5833,6.5807,6.5827,6.5696,6.5641,6.572,6.5627,6.5712,6.6061,6.6109,6.6127,6.6145,6.6098,6.6061,6.6033,6.6148,6.6089,6.591,6.6109,6.606,6.5775,6.5876,6.5402,6.4481,6.4646,6.4172,6.3225,6.264,6.2291,6.2059,6.138,6.1124,6.1155,6.1155,6.1177,6.1206,6.1206,6.1206,6.1206,6.1206,6.1387,6.1469,6.084,6.0648,6.0495,5.9841,6.0022,6.0449,6.0592,6.1027,6.1464,6.1659,6.1698,6.1698,6.1698,6.1671,6.1663,6.1663,6.1612,6.1582,6.1582,6.1582,6.1582,6.1582,6.1509,6.1436,6.1436,6.1298,6.1291,6.1549,6.1582,6.1557,6.1446,6.1436,6.1359,6.122,6.1206,6.1206,6.1206,6.1348,6.1781,6.2493,6.3619,6.4536,6.5253,6.6272,6.6749,6.6697,6.6765,6.679,5.3962,5.5224,5.6282,5.5429,5.4656,5.4303,5.5025,5.4635,5.4342,5.5142,5.5357,5.5343,5.5132,5.5136,5.5591,5.6991,5.7206,5.8369,6.1759,6.2185,6.3059,6.5519,6.5793,6.5747,6.5641,6.5608,6.558,6.5523,6.5509,6.5547,6.5651,6.5775,6.5788,6.5665,6.5651,6.5717,6.5827,6.5853,6.5865,6.5897,6.5909,6.5517,6.4742,6.4747,6.4265,6.3452,6.3457,6.2995,6.2232,6.2159,6.167,6.0946,6.0869,6.0902,6.103,6.103,6.1095,6.1206,6.1206,6.1206,6.1206,6.1206,6.1226,6.1272,6.1379,6.1407,6.1404,6.1451,6.0959,6.0559,6.1233,6.0955,6.0725,6.1503,6.1698,6.1698,6.1698,6.1595,6.1524,6.1524,6.1365,6.1246,6.1246,6.1246,6.1246,6.1246,6.124,6.1226,6.1226,6.122,6.122,6.1246,6.1246,6.124,6.1233,6.1226,6.1226,6.1193,6.1206,6.1206,6.1206,6.122,6.1628,6.2473,6.3383,6.4272,6.5125,6.6124,6.6513,6.6339,6.6658,6.6727,5.4387,5.5579,5.6166,5.4824,5.4245,5.4088,5.4439,5.4244,5.4352,5.5646,5.5999,5.5981,5.5637,5.5605,5.5763,5.6213,5.6195,5.6971,5.9415,6.0116,6.1326,6.3878,6.4605,6.5095,6.5556,6.5542,6.5469,6.544,6.5465,6.5494,6.5484,6.5556,6.5613,6.5594,6.5566,6.558,6.5688,6.5688,6.5728,6.5833,6.5314,6.4898,6.4589,6.407,6.3358,6.257,6.257,6.2089,6.132,6.132,6.1108,6.08,6.08,6.0819,6.0888,6.0888,6.0902,6.0964,6.0964,6.0964,6.0964,6.0964,6.0964,6.1002,6.1246,6.131,6.1322,6.1387,6.1149,6.0944,6.1244,6.1092,6.0974,6.1325,6.1402,6.1402,6.1402,6.1365,6.131,6.131,6.1246,6.1206,6.1206,6.1206,6.1206,6.1206,6.1124,6.1079,6.1079,6.102,6.0964,6.0964,6.1092,6.117,6.1087,6.1555,6.1821,6.1747,6.1737,6.1959,6.2442,6.2074,6.247,6.3745,6.43,6.4959,6.5701,6.6174,6.6373,6.6295,6.6432,6.6535,5.3801,5.5079,5.5719,5.4021,5.4006,5.4322,5.4068,5.4205,5.4757,5.6036,5.6221,5.6094,5.592,5.5781,5.5696,5.5689,5.5618,5.6264,5.8265,5.8961,6.0214,6.2763,6.3584,6.4245,6.5097,6.5321,6.5394,6.5394,6.5225,6.5091,6.505,6.4594,6.4695,6.5518,6.5513,6.5494,6.5566,6.5566,6.5512,6.5383,6.4755,6.4257,6.3815,6.3187,6.2481,6.1716,6.1716,6.1358,6.08,6.08,6.08,6.08,6.08,6.08,6.08,6.08,6.08,6.08,6.08,6.08,6.08,6.08,6.08,6.085,6.1019,6.112,6.1147,6.1199,6.1177,6.1147,6.1199,6.1177,6.1147,6.1199,6.1206,6.1206,6.1206,6.117,6.114,6.114,6.112,6.1079,6.1079,6.1079,6.1079,6.1079,6.1002,6.0943,6.0943,6.0864,6.08,6.08,6.0974,6.1046,6.0944,6.1735,6.2193,6.2113,6.232,6.2704,6.3281,6.2847,6.3224,6.457,6.4821,6.5306,6.6052,6.6185,6.6228,6.6175,6.6267,6.6392,5.1642,5.3294,5.4802,5.3128,5.4012,5.5064,5.4205,5.4674,5.548,5.6153,5.5673,5.5283,5.5799,5.5247,5.4935,5.5591,5.5585,5.641,5.9022,5.9268,6.0148,6.27,6.3006,6.3322,6.4129,6.4917,6.5394,6.5394,6.4649,6.4206,6.4206,6.2567,6.2796,6.5318,6.5394,6.544,6.5494,6.5494,6.5135,6.44,6.44,6.3577,6.2029,6.2029,6.1567,6.08,6.08,6.08,6.08,6.08,6.08,6.08,6.08,6.08,6.08,6.08,6.08,6.08,6.08,6.08,6.08,6.08,6.08,6.08,6.0793,6.089,6.1019,6.1162,6.1092,6.1028,6.117,6.1103,6.1028,6.117,6.1206,6.1206,6.1206,6.1095,6.1002,6.1002,6.089,6.0793,6.0793,6.0793,6.0793,6.0793,6.0812,6.0812,6.0812,6.08,6.08,6.08,6.0812,6.0793,6.0812,6.1601,6.2101,6.2101,6.2858,6.3288,6.3288,6.3301,6.3705,6.4589,6.4589,6.5032,6.591,6.6041,6.603,6.5903,6.6185,6.6295,5.1877,5.2883,5.3357,5.2835,5.3561,5.4342,5.4068,5.4674,5.5313,5.5351,5.522,5.5063,5.4967,5.4812,5.5109,5.6381,5.6513,5.6944,5.8321,5.9453,6.0661,6.2024,6.3676,6.4805,6.5063,6.479,6.4588,6.4588,6.379,6.3045,6.2452,6.2471,6.2586,6.2796,6.2261,6.2257,6.284,6.2327,6.2249,6.2617,6.21,6.1626,6.118,6.118,6.1038,6.08,6.08,6.08,6.08,6.08,6.08,6.08,6.08,6.08,6.08,6.08,6.08,6.08,6.08,6.08,6.08,6.08,6.08,6.08,6.08,6.0839,6.0877,6.0913,6.0901,6.0877,6.0913,6.089,6.0877,6.0913,6.0933,6.0933,6.0933,6.089,6.0856,6.0856,6.0839,6.08,6.08,6.08,6.08,6.08,6.08,6.08,6.08,6.08,6.08,6.08,6.08,6.08,6.08,6.2108,6.2916,6.2916,6.3724,6.4455,6.5051,6.4493,6.4609,6.5474,6.5493,6.5609,6.5897,6.5946,6.5946,6.591,6.6077,6.6167,5.1196,5.2203,5.2617,5.2285,5.3366,5.44,5.4068,5.4875,5.5629,5.5408,5.5143,5.4958,5.4949,5.4757,5.5036,5.6293,5.6713,5.7162,5.8014,5.9549,6.0986,6.2142,6.3641,6.4585,6.4556,6.4054,6.3738,6.3694,6.294,6.2214,6.1631,6.1545,6.1239,6.0676,6.1124,6.1463,6.1635,6.1212,6.1107,6.1332,6.0872,6.0704,6.0746,6.0746,6.0777,6.08,6.08,6.08,0.0,6.08,6.08,6.08,6.08,6.08,6.08,6.08,6.08,6.08,6.08,6.08,6.08,6.08,6.08,6.08,6.08,6.08,6.08,6.08,6.08,6.08,6.08,6.08,6.08,6.08,6.08,6.08,6.08,6.08,6.08,6.08,6.08,6.08,6.08,6.08,6.08,6.08,6.08,6.08,6.08,6.08,6.08,6.08,6.08,6.08,6.08,6.205,6.2974,6.3269,6.4128,6.4993,6.5859,6.5378,6.534,6.5878,6.5897,6.5897,6.5897,6.5897,6.5897,6.591,6.599,6.6019,0.0,5.1328,5.2339,5.1597,5.3327,5.5005,5.4186,5.5194,0.0,5.6051,5.5307,5.4905,5.5572,5.5088,5.4876,5.5742,5.6506,5.7292,5.8158,5.9613,6.1247,6.2995,6.3148,6.305,6.2924,6.291,6.2863,6.2753,6.2032,6.1548,6.1421,6.0056,5.9215,5.9109,6.151,6.2393,6.1519,6.1471,6.1128,6.0508,6.0463,6.0501,6.0621,6.0678,6.0734,6.08,6.08,6.08,6.08,6.08,6.08,6.08,6.08,6.08,6.08,6.08,6.08,6.08,6.08,6.08,6.08,6.08,6.08,6.08,6.08,6.08,6.08,6.08,6.08,6.08,6.08,6.08,6.08,6.08,6.08,6.08,6.08,6.08,6.08,6.08,6.08,6.08,6.08,6.08,6.08,6.08,6.08,6.08,6.08,6.08,6.08,6.08,6.08,6.08,6.08,6.1601,6.2416,6.3166,6.4089,6.4955,6.5763,6.5859,6.5897,6.5897,6.5897,6.5897,6.5897,6.5897,6.5897,6.5897,6.5897,6.5897,5.1035,0.0,5.0815,5.1285,5.2858,5.4244,0.0,5.5194,5.6091,5.5332,5.4919,5.4905,5.5572,5.5549,5.5904,5.7367,5.832,5.8904,5.9011,6.0546,6.2279,6.3975,6.3591,6.2881,6.2163,6.2038,6.1748,6.1108,6.0832,6.0403,5.972,5.9963,5.9824,5.9128,6.0382,6.0671,5.9791,5.8591,5.8546,5.9681,5.9115,5.9169,5.9796,6.0469,6.0788,6.08,6.08,6.08,6.08,6.08,6.08,6.08,6.08,6.08,6.08,6.08,6.08,6.08,6.08,6.08,6.08,6.08,6.08,6.08,6.08,6.08,6.08,6.08,6.08,6.08,6.08,6.08,6.08,6.08,6.08,6.08,6.08,6.08,6.08,6.08,6.08,6.08,6.08,6.08,6.08,6.08,6.08,6.08,6.08,6.08,6.08,6.08,6.08,6.08,6.08,6.1601,6.2178,6.2358,6.3782,6.4686,6.4897,6.5551,6.5897,6.5897,6.5897,6.5897,6.5897,6.5897,6.5897,6.5897,6.5897,6.5897,5.128,5.1649,5.1997,5.2472,5.3893,5.5174,5.507,5.5649,5.6053,5.5486,5.5247,5.5384,5.6158,5.631,5.6712,5.7989,5.8904,5.971,6.0387,6.1352,6.2433,6.3739,6.3137,6.242,6.194,6.1473,6.1017,6.0577,6.0512,6.0261,5.9775,6.0223,6.0261,5.9775,6.0263,6.0104,5.9216,5.8381,5.8443,5.9398,5.8992,5.9258,6.0108,6.0569,6.08,6.08,6.08,6.08,6.08,6.08,6.08,6.08,6.08,6.08,6.08,6.08,6.08,6.08,6.08,6.08,6.08,6.08,6.08,6.08,6.08,6.08,6.08,6.08,6.08,6.08,6.08,6.08,6.08,6.08,6.08,6.08,6.08,6.08,6.08,6.08,6.08,6.08,6.08,6.08,6.08,6.08,6.08,6.08,6.08,6.08,6.08,6.08,6.08,6.08,6.08,6.1223,6.1678,6.2082,6.3301,6.4185,6.4589,6.5436,6.5897,6.5897,6.5897,6.5897,6.5897,6.5897,6.5897,6.5897,6.5897,6.5897,5.1324,5.295,5.4253,5.3891,5.5194,5.6484,5.6168,5.6097,5.6049,5.5921,5.5895,5.6107,5.6868,5.733,5.7769,5.8296,5.9072,6.0193,6.187,6.1889,6.2055,6.2913,6.226,6.1691,6.1607,6.1,6.0559,6.0425,6.0412,6.0386,6.0321,6.0239,6.0195,6.0129,6.0195,5.9837,5.9025,5.9205,5.9402,5.959,5.9456,5.9895,6.0788,6.08,6.08,6.08,6.08,6.08,6.08,6.08,6.08,6.08,6.08,6.08,6.08,6.08,6.08,6.08,6.08,6.0704,6.0608,6.0762,6.0704,6.0627,6.0762,6.08,6.08,6.08,6.08,6.08,6.08,6.08,6.08,6.08,6.08,6.08,6.08,6.08,6.08,6.08,6.08,6.08,6.08,6.08,6.08,6.08,6.08,6.08,6.08,6.08,6.08,6.08,6.08,6.08,6.08,6.08,6.1108,6.1851,6.2666,6.357,6.457,6.5436,6.5897,6.5897,6.5897,6.5897,6.5897,6.5897,6.5897,6.5897,6.5897,6.5897,5.206,5.4186,5.5459,5.3413,5.4638,5.6149,5.545,5.5618,5.5921,5.5896,5.6377,5.6849,5.6983,5.8773,6.0,5.9314,5.9936,6.1113,6.2841,6.1873,6.1272,6.2087,6.1452,6.0657,5.9879,6.0339,6.0385,5.9636,5.9536,5.9498,5.9486,5.8847,5.8495,5.8482,5.8495,5.8406,5.8272,5.8962,5.969,6.0486,5.9744,5.9871,6.071,6.0757,6.08,6.08,6.08,6.08,6.08,6.08,6.08,6.08,6.08,6.08,6.08,6.08,6.08,6.08,6.08,6.0319,5.9819,6.055,6.03,5.9838,6.0569,6.08,6.08,6.08,6.08,6.08,6.08,6.08,6.08,6.08,6.08,6.08,6.08,6.08,6.08,6.08,6.08,6.08,6.08,6.08,6.08,6.08,6.08,6.08,6.08,6.08,6.08,6.08,6.08,6.08,6.08,6.08,6.0858,6.0993,6.18,6.2974,6.4551,6.5436,6.5897,6.5897,6.5897,6.5897,6.5897,6.5897,6.5897,6.5897,6.5897,6.5897,5.0945,5.3439,5.5377,5.4222,5.6134,5.8186,5.7735,5.7474,5.7291,5.7216,5.7471,5.7703,5.7703,5.9011,6.0115,6.015,6.0435,6.0948,6.1778,6.1197,6.0673,6.0608,6.0231,5.9667,5.8889,5.9134,5.9199,5.8831,5.8734,5.8717,5.8717,5.8352,5.8141,5.8141,5.8196,5.8208,5.8208,5.8537,5.912,5.9932,6.0009,6.0283,6.0697,6.0722,6.0777,6.08,6.08,6.08,6.08,6.08,6.08,6.08,6.08,6.08,6.0742,6.0262,6.0108,6.0031,5.9608,5.9184,5.8992,5.9838,5.9838,5.9665,6.0531,6.08,6.08,6.08,6.08,6.08,6.08,6.08,6.08,6.08,6.08,6.08,6.08,6.08,6.08,6.08,6.08,6.08,6.08,6.08,6.08,6.08,6.08,6.08,6.08,6.08,6.08,6.08,6.08,6.08,6.08,6.08,6.0993,6.1466,6.1889,6.2839,6.4532,6.4974,6.5416,6.5878,6.5897,6.5897,6.5897,6.5897,6.5897,6.5897,6.5897,6.5897,5.0013,5.2359,5.4568,5.5102,5.7165,5.9138,5.9432,5.8644,5.7921,5.8237,5.83,5.8242,5.803,5.8819,5.9858,6.0935,6.1024,6.0974,6.1017,6.0622,6.0111,5.9487,5.9221,5.8856,5.8346,5.8254,5.8243,5.8288,5.8062,5.7881,5.7822,5.7618,5.7515,5.7515,5.7582,5.7628,5.7684,5.7754,5.8188,5.8936,5.9869,6.0278,6.0259,6.0552,6.0697,6.0765,6.0777,6.0777,6.0788,6.08,6.08,6.0781,6.0569,6.0377,6.0127,5.9473,5.9223,5.9127,5.8511,5.8165,5.8127,5.8954,5.9223,5.9377,6.0242,6.0646,6.08,6.08,6.08,6.08,6.08,6.08,6.08,6.08,6.08,6.08,6.08,6.08,6.08,6.08,6.08,6.08,6.08,6.08,6.08,6.08,6.08,6.08,6.08,6.08,6.08,6.08,6.08,6.08,6.08,6.08,6.1069,6.1755,6.2147,6.2954,6.4243,6.4686,6.5224,6.5878,6.5897,6.5897,6.5897,6.5897,6.5897,6.5897,6.5897,6.5897,5.0508,5.1794,5.3049,5.5339,5.612,5.6684,5.8236,5.7207,5.6359,5.7973,5.83,5.805,5.7253,5.8415,6.005,6.1735,6.1993,6.1993,6.1993,6.0596,5.9558,5.95,5.8827,5.8346,5.83,5.8288,5.8288,5.83,5.755,5.6948,5.6645,5.5906,5.5517,5.5517,5.5517,5.5641,5.5876,5.6376,5.7027,5.7818,5.8904,5.9215,5.8973,6.0097,6.0617,6.0617,6.0692,6.0697,6.071,6.0757,6.08,6.0723,5.9915,5.9146,5.8473,5.8415,5.8396,5.8377,5.8319,5.7761,5.7253,5.8107,5.8396,5.855,5.9358,6.0165,6.08,6.08,6.08,6.08,6.08,6.08,6.08,6.08,6.08,6.08,6.08,6.08,6.08,6.08,6.08,6.08,6.08,6.08,6.08,6.08,6.08,6.08,6.08,6.08,6.08,6.08,6.08,6.08,6.08,6.08,6.0819,6.0877,6.2358,6.3281,6.3397,6.4955,6.584,6.5897,6.5897,6.5897,6.5897,6.5897,6.5897,6.5897,6.5897,6.5897,4.9124,5.1224,5.3321,5.4763,5.5459,5.6261,5.7986,5.8212,5.8396,5.9608,5.9858,5.9588,5.8723,5.8223,5.8492,6.0204,6.0473,6.0426,6.0259,5.9802,5.9031,5.778,5.7555,5.728,5.6742,5.6529,5.6426,5.6426,5.5938,5.5581,5.5437,5.5152,5.4981,5.4981,5.4981,5.5037,5.5145,5.5341,5.5458,5.5479,5.7191,5.7931,5.7825,5.8289,5.8868,5.9551,5.9578,6.0009,6.0659,6.0145,5.9854,5.9658,5.8783,5.8383,5.8223,5.7684,5.7492,5.7415,5.6876,5.6472,5.6349,5.7203,5.7492,5.7646,5.8492,5.8973,5.9242,5.9242,5.9242,5.9492,6.0531,6.08,6.08,6.08,6.08,6.08,6.08,6.08,6.08,6.08,6.08,6.08,6.08,6.08,6.08,6.08,6.08,6.08,6.08,6.08,6.08,6.08,6.08,6.08,6.08,6.08,6.08,6.08,6.1897,6.2781,6.3281,6.4455,6.534,6.5878,6.5897,6.5897,6.5897,6.5897,6.5897,6.5897,6.5897,6.5897,4.8625,5.0877,5.3232,5.4301,5.494,5.5761,5.7492,5.8319,5.9031,6.0165,6.0107,5.9521,5.8376,5.7447,5.7259,5.85,5.8858,5.8903,5.8723,5.8527,5.7883,5.6499,5.632,5.6069,5.5476,5.5256,5.5138,5.5138,5.4924,5.4746,5.4654,5.4639,5.4639,5.4639,5.4639,5.47,5.4791,5.47,5.4476,5.4192,5.5493,5.6273,5.6602,5.6949,5.7558,5.8337,5.8289,5.8901,5.9876,5.901,5.8459,5.8063,5.7472,5.7218,5.7135,5.6644,5.6468,5.6403,5.5874,5.5703,5.5799,5.6406,5.6791,5.7118,5.7703,5.8088,5.83,5.83,5.83,5.8569,5.9704,6.0204,6.0454,6.0723,6.08,6.08,6.08,6.08,6.08,6.08,6.08,6.08,6.08,6.08,6.08,6.08,6.08,6.08,6.08,6.08,6.08,6.08,6.08,6.08,6.08,6.08,6.08,6.08,6.1858,6.2724,6.3281,6.4147,6.5013,6.5878,6.5897,6.5897,6.5897,6.5897,6.5897,6.5897,6.5897,6.5897,4.9381,5.0816,5.2485,5.409,5.4511,5.4953,5.6607,5.7011,5.7462,5.9146,5.8578,5.7288,5.5626,5.597,5.6601,5.6939,5.7447,5.7785,5.7785,5.674,5.5997,5.5997,5.528,5.4791,5.4791,5.4791,5.4791,5.4791,5.4791,5.4654,5.4296,5.4298,5.4298,5.4298,5.4298,5.4446,5.4791,5.4463,5.4279,5.4298,5.3888,5.4259,5.5323,5.6395,5.6962,5.7085,5.6943,5.7414,5.8216,5.7427,5.6655,5.5997,5.5978,5.5489,5.4836,5.5164,5.5301,5.5339,5.5607,5.5684,5.5703,5.5703,5.628,5.6983,5.6983,5.7588,5.828,5.828,5.828,5.828,5.83,5.8877,5.9704,6.0569,6.0781,6.08,6.08,6.08,6.08,6.08,6.08,6.08,6.08,6.08,6.08,6.08,6.08,6.08,6.08,6.08,6.08,6.08,6.08,6.08,6.08,6.08,6.08,6.08,6.2358,6.3269,6.3288,6.4147,6.5013,6.5878,6.5897,6.5897,6.5897,6.5897,6.5897,6.5897,6.5897,6.5897,4.826,5.0077,5.2269,5.3487,5.4861,5.6033,5.653,5.6829,5.7255,5.8112,5.7445,5.6572,5.6263,5.5994,5.5993,5.6623,5.6849,5.6788,5.6324,5.6109,5.5696,5.4893,5.4786,5.4791,5.4791,5.4591,5.4446,5.4446,5.4229,5.4054,5.3944,5.3944,5.3944,5.3944,5.3944,5.4,5.4089,5.4,5.3907,5.387,5.3793,5.3943,5.4242,5.454,5.5136,5.5966,5.593,5.6483,5.7293,5.6206,5.548,5.4984,5.4745,5.4729,5.4806,5.4909,5.4938,5.4952,5.505,5.5211,5.5413,5.5413,5.5723,5.6088,5.6088,5.6261,5.6472,5.6472,5.6472,5.6607,5.7223,5.755,5.8088,5.9531,6.0339,6.08,6.08,6.08,6.08,6.08,6.08,6.08,6.08,6.08,6.08,6.08,6.08,6.08,6.08,6.08,6.08,6.08,6.08,6.08,6.08,6.08,6.08,6.08,6.1262,6.207,6.325,6.4724,6.5628,6.5878,6.5897,6.5897,6.5897,6.5897,6.5897,6.5897,6.5897,6.5897,4.9274,5.0751,5.2537,5.4534,5.518,5.5358,5.5344,5.6104,5.6836,5.6935,5.6459,5.5959,5.5836,5.5448,5.5317,5.5912,5.5889,5.5645,5.5268,5.5216,5.4961,5.4252,5.4315,5.4397,5.4397,5.4212,5.4107,5.4107,5.3907,5.3813,5.3813,5.3813,5.3813,5.3813,5.3813,5.3813,5.3813,5.3813,5.3774,5.3735,5.3754,5.3774,5.3813,5.3676,5.4033,5.4801,5.5119,5.5379,5.5581,5.5174,5.4652,5.4154,5.4016,5.4105,5.4382,5.4544,5.4607,5.4623,5.4746,5.4924,5.5111,5.5111,5.5217,5.5369,5.5497,5.5531,5.5573,5.5662,5.5703,5.5818,5.6349,5.6753,5.7426,5.9108,5.9896,6.0377,6.0723,6.08,6.08,6.08,6.08,6.08,6.08,6.08,6.08,6.08,6.08,6.08,6.08,6.08,6.08,6.08,6.08,6.08,6.08,6.08,6.08,6.08,6.1108,6.1762,6.2781,6.4147,6.5186,6.5878,6.5897,6.5897,6.5897,6.5897,6.5897,6.5897,6.5897,6.5897,5.1263,5.2049,5.3058,5.6204,5.5329,5.364,5.3535,5.4848,5.5926,5.5462,5.5407,5.5235,5.4503,5.4403,5.4496,5.4795,5.4587,5.4371,5.4339,5.4065,5.3907,5.3907,5.3851,5.3832,5.3832,5.3813,5.3813,5.3813,5.3813,5.3813,5.3813,5.3813,5.3813,5.3813,5.3813,5.3813,5.3813,5.3813,5.3813,5.3813,5.3754,5.3754,5.3793,5.3599,5.3578,5.3751,5.4453,5.4282,5.3555,5.4273,5.4164,5.3519,5.3636,5.3694,5.3734,5.4107,5.4246,5.4298,5.4607,5.4731,5.4761,5.4761,5.4776,5.4851,5.5164,5.5243,5.5314,5.5543,5.5618,5.5618,5.5618,5.6236,5.7258,5.8842,5.9373,5.9742,6.0608,6.08,6.08,6.08,6.08,6.08,6.08,6.08,6.08,6.08,6.08,6.08,6.08,6.08,6.08,6.08,6.08,6.08,6.08,6.08,6.08,6.08,6.1543,6.2024,6.2101,6.2878,6.4089,6.5743,6.5782,6.582,6.5897,6.5897,6.5897,6.5897,6.5897,6.5897,4.9077,5.0571,5.2609,5.4285,5.4463,5.3978,5.3042,5.2853,5.2868,5.2821,5.3172,5.3328,5.2813,5.2763,5.2792,5.2821,5.2763,5.2616,5.2282,5.2762,5.314,5.314,5.3609,5.3963,5.3963,5.3851,5.3813,5.3813,5.3813,5.3813,5.3813,5.3813,5.3813,5.3813,5.3813,5.3813,5.3813,5.3813,5.3813,5.3813,5.3793,5.3754,5.3715,5.3675,5.3675,5.3694,5.3783,5.3686,5.3499,5.3684,5.3665,5.3499,5.3519,5.3616,5.3714,5.3793,5.387,5.3907,5.4,5.4177,5.4397,5.4397,5.4591,5.4806,5.488,5.4909,5.4924,5.4981,5.4976,5.4976,5.4976,5.5338,5.5924,5.6907,5.8352,5.9742,6.0608,6.08,6.08,6.08,6.08,6.08,6.08,6.08,6.08,6.08,6.08,6.08,6.08,6.08,6.08,6.08,6.08,6.08,6.08,6.08,6.08,6.08,6.0973,6.1389,6.2082,6.2878,6.3801,6.4859,6.4878,6.5224,6.5897,6.5897,6.5897,6.5897,6.5897,6.5897,4.9398,5.0415,5.1436,5.2491,5.3159,5.3209,5.1749,5.1592,5.1551,5.0794,5.1522,5.2233,5.209,5.2073,5.2107,5.2076,5.2061,5.1983,5.1759,5.244,5.2816,5.2425,5.3363,5.3888,5.3515,5.3758,5.3945,5.3907,5.3907,5.387,5.3794,5.3813,5.3813,5.3813,5.3813,5.3813,5.3813,5.3813,5.3813,5.3813,5.3813,5.3774,5.3735,5.3715,5.3656,5.3598,5.3598,5.3558,5.3499,5.3499,5.3499,5.3499,5.3499,5.3578,5.3714,5.3714,5.3735,5.3813,5.3813,5.3907,5.4054,5.4054,5.4177,5.4347,5.4511,5.456,5.4591,5.4761,5.4791,5.4791,5.4791,5.4924,5.526,5.6059,5.7621,5.9165,5.9992,6.0512,6.08,6.08,6.08,6.08,6.08,6.08,6.08,6.08,6.08,6.08,6.08,6.08,6.08,6.08,6.08,6.08,6.08,6.08,6.08,6.08,6.08,6.0993,6.1466,6.1877,6.2897,6.457,6.4609,6.5032,6.5897,6.5897,6.5897,6.5897,6.5897,6.5897,4.9656,5.0303,5.0375,5.1361,5.1954,5.1897,5.0431,5.0649,5.0752,4.9461,5.0374,5.1432,5.1485,5.1499,5.1499,5.1499,5.1499,5.1499,5.1499,5.2128,5.2359,5.1684,5.2835,5.3454,5.2764,5.3436,5.3886,5.3814,5.3944,5.3963,5.3832,5.3832,5.3832,5.3813,5.3813,5.3813,5.3813,5.3813,5.3813,5.3813,5.3813,5.3813,5.3813,5.3735,5.3656,5.3539,5.3636,5.3598,5.3499,5.3519,5.3519,5.3499,5.3519,5.3598,5.3656,5.3656,5.3716,5.3774,5.3774,5.3793,5.3813,5.3813,5.3813,5.3851,5.4143,5.4212,5.4281,5.4544,5.4623,5.4623,5.4623,5.467,5.4886,5.5545,5.6818,5.8184,5.9211,5.9991,6.0561,6.0762,6.08,6.08,6.08,6.08,6.08,6.08,6.08,6.08,6.08,6.08,6.08,6.08,6.08,6.08,6.08,6.08,6.08,6.08,6.08,6.08,6.08,6.08,6.1858,6.4128,6.4301,6.4878,6.5897,6.5897,6.5897,6.5897,6.5897,6.5897,4.6341,4.8417,5.0613,5.2085,5.1507,5.0537,5.0171,4.9669,4.9221,4.9139,4.9926,5.0469,4.9925,4.9828,4.9828,4.9828,4.9828,4.9828,4.9828,5.0522,5.0957,5.0844,5.1588,5.2064,5.1952,5.2613,5.3046,5.3046,5.3681,5.4055,5.3982,5.3963,5.3926,5.3794,5.3813,5.3813,5.3813,5.3813,5.3813,5.3813,5.3813,5.3813,5.3813,5.3793,5.3754,5.3656,5.3578,5.3519,5.3519,5.3636,5.3598,5.3519,5.3636,5.3598,5.3519,5.3519,5.3598,5.3715,5.3715,5.3754,5.3813,5.3813,5.3813,5.3813,5.3851,5.387,5.3889,5.3907,5.3926,5.3926,5.3926,5.4142,5.4401,5.4495,5.5441,5.683,5.8735,5.9228,5.9632,6.0611,6.08,6.08,6.08,6.08,6.08,6.08,6.08,6.08,6.08,6.08,6.08,6.08,6.08,6.08,6.08,6.08,6.08,6.08,6.08,6.08,6.08,6.08,6.132,6.2409,6.3128,6.4282,6.5897,6.5897,6.5897,6.5897,6.5897,6.5897,4.7241,4.855,4.9676,5.1473,5.1117,5.0146,4.9558,4.9237,4.9081,4.9101,4.9463,4.969,4.9433,4.939,4.9424,4.949,4.9509,4.9509,4.9509,5.0185,5.0522,5.0072,5.111,5.1678,5.1228,5.1869,5.2325,5.2292,5.261,5.2762,5.2674,5.2621,5.2772,5.3182,5.3144,5.3348,5.3813,5.3813,5.3813,5.3813,5.3813,5.3813,5.3813,5.3813,5.3774,5.3694,5.3636,5.3578,5.3499,5.3559,5.3598,5.3598,5.3598,5.3619,5.3639,5.3539,5.3578,5.3714,5.3714,5.3715,5.3754,5.3793,5.3813,5.3813,5.3813,5.3813,5.3813,5.3813,5.3813,5.3813,5.3813,5.3907,5.4017,5.4017,5.4386,5.5192,5.6797,5.7654,5.843,5.9613,5.9856,6.0047,6.0681,6.08,6.08,6.08,6.08,6.08,6.08,6.08,6.08,6.08,6.08,6.08,6.08,6.08,6.0722,6.0533,6.052,6.0436,6.0251,6.0237,6.0633,6.1473,6.2689,6.3916,6.5166,6.5647,6.5897,6.5897,6.5682,6.5696,4.7151,4.7786,4.8105,5.0211,5.0176,4.951,4.9121,4.9004,4.8995,4.9032,4.9116,4.9181,4.9246,4.9276,4.9324,4.9424,4.9474,4.9509,4.9509,5.0016,5.0166,4.9565,5.056,5.1048,5.0447,5.1123,5.156,5.1532,5.1703,5.1763,5.166,5.1592,5.1931,5.2733,5.2716,5.3051,5.3851,5.3813,5.3813,5.3813,5.3813,5.3813,5.3813,5.3813,5.3755,5.3715,5.3714,5.3656,5.3539,5.3539,5.3598,5.3656,5.3599,5.3638,5.3716,5.3559,5.3578,5.3694,5.3616,5.3656,5.3734,5.3774,5.3793,5.3813,5.3813,5.3813,5.3813,5.3813,5.3813,5.3813,5.3813,5.3813,5.3813,5.3813,5.3813,5.4131,5.5333,5.6512,5.7582,5.8468,5.8639,5.8981,6.0022,6.0233,6.0278,6.0508,6.0546,6.0546,6.0546,6.0546,6.0546,6.0546,6.0546,6.0546,6.0546,6.0546,6.0436,6.0194,6.016,6.0057,5.9807,5.9791,6.0075,6.0679,6.2032,6.325,6.4323,6.497,6.5397,6.5589,6.5284,6.5314,4.3524,4.4584,4.5947,4.8348,4.833,4.8031,4.9127,4.8839,4.8458,4.882,4.8996,4.9101,4.9101,4.9214,4.9308,4.9308,4.9424,4.9509,4.9509,4.9546,4.9546,4.9509,4.9565,4.9602,4.9565,5.0278,5.0748,5.0767,5.1461,5.1863,5.1782,5.1784,5.2124,5.2859,5.2896,5.3235,5.3982,5.3851,5.3813,5.3813,5.3813,5.3813,5.3813,5.3813,5.3813,5.3793,5.3734,5.3694,5.3694,5.3694,5.3636,5.3539,5.3698,5.3659,5.3501,5.3499,5.3578,5.3656,5.3418,5.3521,5.3774,5.3715,5.3735,5.3813,5.3813,5.3813,5.3813,5.3813,5.3813,5.3813,5.3813,5.3813,5.3813,5.3813,5.3813,5.4131,5.5333,5.6512,5.7316,5.737,5.7404,5.7651,5.8486,5.8619,5.8887,5.9741,5.9839,5.9839,5.9839,5.9839,5.9839,5.9839,5.9839,5.9839,5.9839,5.9839,5.9839,5.9842,5.9842,5.9807,5.9791,5.9791,5.9809,5.9847,6.0692,6.192,6.3552,6.359,6.4027,6.4769,6.4751,6.4751,4.2868,4.3281,4.3919,4.6551,4.7032,4.7257,4.865,4.8621,4.8491,4.9102,4.9084,4.8996,4.9084,4.9214,4.9308,4.9308,4.9424,4.9509,4.9509,4.9509,4.9509,4.9509,4.9509,4.9509,4.9509,4.9753,4.9922,4.9922,5.0203,5.0356,5.0325,5.0239,5.0546,5.132,5.1306,5.1891,5.3144,5.3126,5.292,5.257,5.29,5.2603,5.1834,5.2121,5.2549,5.3032,5.3013,5.3271,5.3714,5.3714,5.3656,5.3636,5.3619,5.3639,5.3678,5.3559,5.3519,5.3558,5.3461,5.3461,5.3501,5.3656,5.3715,5.3735,5.3793,5.3813,5.3813,5.3813,5.3813,5.3813,5.3813,5.3813,5.3813,5.3813,5.3813,5.3925,5.4336,5.478,5.5295,5.6061,5.6206,5.6517,5.7554,5.8173,5.8613,5.8916,5.943,5.9791,5.9791,5.9791,5.9791,5.9791,5.9791,5.9791,5.9791,5.9791,5.9692,5.9432,5.9415,5.9326,5.9102,5.9102,5.9102,5.9102,5.9383,6.0322,6.1909,6.2459,6.2893,6.316,6.2878,6.2896,4.2097,4.2228,4.2559,4.5176,4.5541,4.5878,4.8321,4.833,4.8134,4.918,4.9232,4.91,4.9035,4.9164,4.9276,4.9308,4.9424,4.9509,4.9509,4.9509,4.9509,4.9509,4.9509,4.9509,4.9509,4.9509,4.9509,4.9509,4.9509,4.9509,4.9509,4.9424,4.9682,5.0387,5.0723,5.1294,5.2178,5.2251,5.2029,5.1501,5.1818,5.1503,5.0694,5.1024,5.1528,5.2215,5.2475,5.3032,5.3716,5.3716,5.3715,5.3657,5.3323,5.3398,5.366,5.3245,5.3259,5.3499,5.3418,5.3398,5.338,5.3518,5.3636,5.3714,5.3754,5.3774,5.3793,5.3755,5.3774,5.3775,5.3716,5.3736,5.3774,5.3774,5.3774,5.3813,5.3813,5.3813,5.4037,5.4836,5.5002,5.5316,5.6346,5.6964,5.7416,5.7718,5.8247,5.8718,5.9,5.9038,5.9132,5.9397,5.9416,5.9416,5.9416,5.9416,5.9307,5.9064,5.9026,5.8946,5.8698,5.8716,5.8716,5.8716,5.8716,5.9188,6.0243,6.1072,6.1655,6.192,6.1654,6.1673,0.0,0.0,0.0,4.4194,4.3722,4.3809,4.8081,4.7902,4.7281,4.904,4.9407,4.9323,4.897,4.9083,4.9214,4.9276,4.9409,4.949,4.949,4.949,4.949,4.9509,4.9509,4.9509,4.9509,4.9509,4.9509,4.9509,4.9509,4.9509,4.9509,4.9509,4.9699,5.0143,5.1174,5.1536,5.1176,5.1342,5.1176,5.0637,5.0637,5.0637,5.058,5.06,5.0873,5.138,5.2159,5.2958,5.3738,5.3757,5.3699,5.3547,5.2827,5.2918,5.3353,5.2539,5.2761,5.3405,5.3235,5.3297,5.3442,5.332,5.3479,5.3694,5.3675,5.3735,5.3774,5.3715,5.3735,5.3755,5.3559,5.3598,5.3675,5.3675,5.3735,5.3793,5.3793,5.3775,5.3813,5.3813,5.3813,5.4054,5.4834,5.4983,5.5299,5.6134,5.6283,5.658,5.736,5.7472,5.7769,5.8586,5.8661,5.8679,5.8716,5.8716,5.8716,5.8716,5.8716,5.8716,5.8716,5.8716,5.8716,5.8716,5.8716,5.8716,5.8716,5.9497,6.0314,6.1131,6.1131,6.1131,3.9557,0.0,0.0,0.0,0.0,0.0,4.5299,4.5225,4.5235,4.8564,4.8652,4.8277,4.8802,4.9192,4.9252,4.8804,4.9042,4.9295,4.9358,4.9311,4.9345,4.9474,4.9424,4.939,4.949,4.9509,4.9509,4.9509,4.9509,4.9509,4.9509,4.9509,4.9439,4.9344,4.962,4.9978,5.0396,5.0082,4.9735,4.9414,4.9349,4.8829,4.7961,4.8306,4.9023,5.0042,5.0263,5.1007,5.2104,5.2698,5.2587,5.2011,5.1714,5.1695,5.1805,5.1524,5.1521,5.1682,5.2212,5.2412,5.2502,5.3113,5.3359,5.3439,5.3519,5.3559,5.3579,5.3559,5.3559,5.3579,5.3501,5.3519,5.3558,5.3558,5.3559,5.358,5.358,5.3657,5.3735,5.3793,5.3813,5.3868,5.4091,5.4611,5.5075,5.5336,5.5912,5.6376,5.6599,5.6636,5.6952,5.7751,5.7843,5.8085,5.8661,5.8716,5.8716,5.8716,5.8716,5.8716,5.8716,5.8716,5.8716,5.8716,5.8716,5.8716,5.8716,5.8921,5.9162,5.9404,5.9404,5.9404,3.8998,3.8597,3.8473,3.9914,0.0,0.0,4.4143,4.4284,4.44,4.7588,4.7738,4.7345,4.7399,4.7844,4.8078,4.7697,4.8292,4.8925,4.9228,4.9228,4.9246,4.9361,4.9311,4.9295,4.9361,4.9393,4.9424,4.9424,4.9474,4.9509,4.9509,4.9361,4.9146,4.8837,4.8837,4.8953,4.9214,4.9025,4.8693,4.8218,4.8193,4.7719,4.6908,4.7182,4.7823,4.8747,4.9255,4.9727,5.0195,5.1176,5.1528,5.1342,5.073,5.0786,5.1139,5.073,5.0689,5.0997,5.1787,5.202,5.2144,5.2975,5.3277,5.33,5.34,5.3459,5.3499,5.342,5.3398,5.3378,5.34,5.342,5.342,5.342,5.3461,5.3499,5.3499,5.3558,5.3637,5.3735,5.3774,5.3813,5.3813,5.4203,5.45,5.45,5.4946,5.5391,5.5707,5.5763,5.6079,5.6915,5.7305,5.7695,5.8159,5.8512,5.8716,5.8716,5.8716,5.8716,5.8716,5.8716,5.8716,5.8716,5.8716,5.8716,5.8716,5.8716,5.8716,5.8716,5.8716,5.8716,3.8947,3.8682,3.8529,3.9801,3.9169,0.0,4.3409,4.3739,4.3774,4.5881,4.6244,4.5976,4.5233,4.575,4.6295,4.6274,4.7368,4.842,4.9027,4.9146,4.9162,4.9214,4.9179,4.9197,4.9214,4.926,4.9273,4.9308,4.9393,4.9459,4.9509,4.9179,4.8872,4.8605,4.8605,4.842,4.7994,4.8192,4.7957,4.7323,4.7258,4.7084,4.6817,4.6817,4.7071,4.7585,4.8723,4.887,4.838,4.9455,5.0397,5.099,4.9877,5.0025,5.0824,4.9972,5.0081,5.0738,5.1485,5.1775,5.1995,5.2821,5.3178,5.3297,5.3297,5.3359,5.3439,5.3318,5.3251,5.3227,5.3256,5.3297,5.3297,5.3297,5.338,5.3459,5.3459,5.3479,5.3519,5.3636,5.3716,5.3774,5.3793,5.3793,5.3793,5.3813,5.3813,5.4073,5.4779,5.4871,5.5206,5.606,5.6803,5.7305,5.749,5.8159,5.8605,5.8698,5.8716,5.8716,5.8716,5.8716,5.8716,5.8716,5.8716,5.8716,5.8716,5.8716,5.8716,5.8716,5.8716,5.8716,3.8294,3.8421,3.8259,3.7925,3.8385,0.0,3.9,3.9151,3.9943,4.2233,4.2199,4.2204,4.3647,4.4837,4.5606,4.5601,4.6708,4.782,4.8458,4.8784,4.9029,4.9179,4.915,4.9133,4.9179,4.9211,4.9244,4.9308,4.9176,4.923,4.9493,4.9179,4.8872,4.8605,4.8605,4.8421,4.8075,4.771,4.746,4.7381,4.6949,4.659,4.6326,4.6326,4.6578,4.7044,4.7299,4.7753,4.8287,4.816,4.858,4.9286,4.91,4.9047,4.9104,4.8901,4.8901,4.9083,4.9814,5.049,5.1169,5.1977,5.2695,5.3227,5.3227,5.3248,5.3248,5.3227,5.3206,5.3206,5.3227,5.3227,5.3227,5.3227,5.3248,5.3269,5.3269,5.3295,5.3359,5.338,5.3479,5.3579,5.3695,5.3715,5.3754,5.3793,5.3813,5.3868,5.4017,5.4035,5.4351,5.5169,5.5391,5.6042,5.7398,5.7639,5.8011,5.8661,5.8716,5.8716,5.8716,5.8716,5.8716,5.8716,5.8716,5.8716,5.8716,5.8716,5.8716,5.8716,5.8716,5.8716,3.7339,3.7642,3.7853,3.7436,0.0,0.0,0.0,3.8159,3.8413,4.0722,4.0315,3.9944,4.1219,4.228,4.3051,4.3307,4.5125,4.6593,4.6873,4.7685,4.8289,4.8384,4.8569,4.8715,4.875,4.8784,4.8834,4.8936,4.8939,4.9046,4.9246,4.8819,4.8495,4.8345,4.821,4.8072,4.7911,4.7621,4.7432,4.7353,4.6967,4.6678,4.6374,4.627,4.6326,4.6572,4.6794,4.7178,4.7609,4.7591,4.7797,4.8135,4.8402,4.8439,4.8383,4.8495,4.8212,4.7886,4.8865,4.9469,4.9925,5.073,5.1736,5.2601,5.2601,5.2894,5.3185,5.3185,5.3185,5.3185,5.3185,5.3185,5.3185,5.3185,5.3185,5.3185,5.3185,5.323,5.3254,5.3254,5.3295,5.3396,5.3578,5.3598,5.3637,5.3735,5.3754,5.3774,5.3793,5.3813,5.3961,5.437,5.476,5.5354,5.619,5.7026,5.7676,5.8085,5.8494,5.8716,5.8716,5.8716,5.8716,5.8716,5.8716,5.8716,5.8716,5.8716,5.8716,5.8716,5.8716,5.8716,3.6391,3.6949,3.7575,3.7076,0.0,3.6915,0.0,0.0,0.0,3.9101,3.8629,3.807,3.8577,3.9292,4.0048,4.0723,4.3179,4.4947,4.4736,4.6047,4.7115,4.747,4.7897,4.8191,4.8267,4.8345,4.8421,4.8494,4.8623,4.8767,4.8906,4.8384,4.8114,4.8114,4.7891,4.7762,4.7717,4.7717,4.7572,4.7298,4.7138,4.6911,4.659,4.6392,4.6246,4.6221,4.6602,4.6817,4.6931,4.7291,4.7424,4.747,4.7838,4.7939,4.7939,4.8152,4.7697,4.7133,4.8099,4.8529,4.8786,4.9418,5.057,5.1709,5.1812,5.2419,5.306,5.3164,5.3185,5.3185,5.3185,5.3185,5.3185,5.3185,5.3185,5.3185,5.3185,5.3185,5.3185,5.3185,5.3185,5.3269,5.3439,5.3461,5.3499,5.3636,5.3675,5.3715,5.3774,5.3793,5.3813,5.3813,5.4388,5.4834,5.5001,5.6246,5.7156,5.749,5.8122,5.8549,5.8698,5.8716,5.8716,5.8716,5.8716,5.8716,5.8716,5.8716,5.8716,5.8716,5.8716,5.8716,0.0,0.0,0.0,0.0,3.6599,0.0,0.0,0.0,3.6186,3.5075,0.0,3.5682,3.6265,0.0,0.0,3.8905,4.1247,4.2774,4.2371,4.3774,4.5451,4.7038,4.7509,4.7795,4.8076,4.8289,4.8328,4.8174,4.7997,4.8134,4.8623,4.8307,4.8114,4.8114,4.8075,4.7933,4.7699,4.7717,4.7572,4.7302,4.7298,4.7035,4.659,4.6566,4.6423,4.6196,4.627,4.6525,4.6886,4.6822,4.7097,4.7569,4.7509,4.7406,4.7302,4.7198,4.711,4.6999,4.7093,4.7571,4.8184,4.8297,4.934,5.0677,5.1154,5.1846,5.2586,5.306,5.3185,5.3185,5.3185,5.3185,5.3185,5.3185,5.3185,5.3185,5.3185,5.3185,5.3185,5.3185,5.3185,5.3227,5.3318,5.332,5.338,5.3499,5.3617,5.3714,5.3695,5.3774,5.3813,5.3813,5.3887,5.424,5.4946,5.5168,5.593,5.7416,5.7602,5.7973,5.8679,5.8716,5.8716,5.8716,5.8716,5.8716,5.8716,5.8716,5.8716,5.8716,5.8716,5.8716,0.0,0.0,0.0,0.0,0.0,0.0,3.3977,0.0,3.3901,0.0,0.0,0.0,0.0,0.0,0.0,0.0,3.8597,3.9934,3.9977,4.1119,4.2827,4.5214,4.5927,4.6489,4.7237,4.7596,4.772,4.747,4.753,4.7736,4.8114,4.7953,4.787,4.787,4.787,4.7806,4.7717,4.7717,4.7636,4.7533,4.7385,4.7143,4.6819,4.6661,4.6447,4.6196,4.6196,4.6301,4.6477,4.6357,4.6435,4.6654,4.6448,4.6525,4.6809,4.6986,4.6642,4.6109,4.6394,4.6701,4.7127,4.7861,4.8543,4.9264,5.0408,5.0976,5.1448,5.2441,5.2739,5.2806,5.3121,5.2955,5.2739,5.2739,5.2739,5.2739,5.2739,5.2977,5.3185,5.3185,5.3185,5.3206,5.3251,5.3251,5.3274,5.3359,5.342,5.3518,5.3694,5.3715,5.3754,5.3793,5.3813,5.3943,5.4277,5.4741,5.5317,5.6004,5.697,5.7862,5.8679,5.8716,5.8716,5.8716,5.8716,5.8716,5.8716,5.8716,5.8716,5.8716,5.8716,5.8716,3.3391,0.0,0.0,0.0,0.0,0.0,0.0,0.0,0.0,0.0,0.0,0.0,0.0,0.0,0.0,0.0,0.0,3.7656,3.7609,3.8605,4.0468,4.346,4.452,4.5199,4.5634,4.6364,4.6713,4.6506,4.6883,4.7273,4.7648,4.7639,4.7636,4.7717,4.7717,4.7717,4.7717,4.7717,4.7717,4.7717,4.7511,4.7298,4.707,4.6824,4.6566,4.6319,4.6221,4.6196,4.6196,4.6048,4.5998,4.5972,4.5761,4.5887,4.628,4.6537,4.6094,4.545,4.5854,4.598,4.6125,4.7071,4.751,4.7942,4.9188,4.971,5.0118,5.1232,5.1715,5.1948,5.2326,5.2313,5.2179,5.2179,5.2179,5.2179,5.2179,5.2495,5.2761,5.2761,5.289,5.2934,5.2783,5.3017,5.3227,5.3274,5.3297,5.3359,5.3558,5.3616,5.3657,5.3716,5.3716,5.3716,5.3716,5.4293,5.4758,5.4963,5.6376,5.7528,5.8345,5.8382,5.8475,5.8716,5.8716,5.8716,5.8716,5.8716,5.8716,5.8716,5.8716,5.8716,0.0,0.0,0.0,3.1913,0.0,0.0,0.0,0.0,3.2519,0.0,0.0,0.0,0.0,0.0,0.0,0.0,0.0,0.0,0.0,3.6458,3.8747,4.2147,4.3732,4.4138,4.3217,4.4428,4.5247,4.5169,4.5951,4.669,4.728,4.7302,4.7428,4.7678,4.7717,4.7717,4.7717,4.7717,4.7717,4.7717,4.7678,4.7533,4.728,4.7093,4.6842,4.6566,4.6319,4.6196,4.6196,4.6048,4.5998,4.5972,4.5846,4.5718,4.5615,4.5502,4.5423,4.5397,4.5423,4.5423,4.5423,4.5467,4.6002,4.6757,4.7313,4.7975,4.8682,4.9245,4.9901,5.0472,5.0497,5.1062,5.1644,5.1644,5.1644,5.1644,5.1644,5.1626,5.1651,5.1651,5.206,5.225,5.1725,5.2518,5.3185,5.3206,5.3254,5.33,5.33,5.342,5.3519,5.3519,5.3519,5.3519,5.3519,5.3654,5.4105,5.4945,5.5837,5.671,5.7509,5.7546,5.7899,5.8679,5.8716,5.8716,5.8716,5.8716,5.8716,5.8716,5.8716,5.8716,0.0,0.0,3.1425,3.1344,0.0,0.0,0.0,0.0,0.0,0.0,0.0,0.0,0.0,0.0,0.0,0.0,0.0,0.0,0.0,3.5128,3.662,3.7742,4.1015,4.3308,4.3705,4.4225,4.5062,4.6395,4.5943,4.62,4.7571,4.7429,4.7341,4.7428,4.7615,4.7717,4.7717,4.7717,4.7717,4.7717,4.7717,4.7554,4.728,4.7093,4.6865,4.659,4.6319,4.6196,4.6196,4.6048,4.5947,4.5846,4.5718,4.5581,4.5476,4.5528,4.5476,4.5397,4.5397,4.5397,4.5397,4.5397,4.5569,4.595,4.6646,4.7046,4.7474,4.8481,4.895,4.922,4.959,4.9962,5.0284,5.0284,5.069,5.1052,5.1052,5.1365,5.1601,5.1601,5.1743,5.1799,5.1626,5.1915,5.2132,5.2132,5.2458,5.2707,5.2758,5.3136,5.34,5.3499,5.3499,5.3499,5.3499,5.3539,5.3931,5.4746,5.5081,5.5599,5.6413,5.645,5.658,5.6839,5.7413,5.773,5.7759,5.8315,5.8614,5.8716,5.8716,5.8716,3.0025,3.005,0.0,3.0339,3.0022,0.0,2.9785,0.0,3.0261,0.0,0.0,0.0,0.0,0.0,0.0,0.0,0.0,0.0,0.0,3.3532,3.457,3.4774,3.8595,4.1514,4.225,4.3223,4.45,4.6184,4.5797,4.6174,4.7716,4.7408,4.7232,4.7298,4.7554,4.7717,4.7717,4.7717,4.7717,4.7717,4.7717,4.7615,4.7428,4.7227,4.6962,4.6749,4.6464,4.6295,4.6196,4.6097,4.5972,4.5795,4.5693,4.5554,4.5397,4.5502,4.5476,4.5397,4.5397,4.5397,4.5397,4.5397,4.5397,4.55,4.6017,4.6155,4.6322,4.7169,4.7605,4.7893,4.8242,4.8644,4.8904,4.8904,4.9515,5.009,5.009,5.0583,5.1026,5.1026,5.1184,5.1262,5.1052,5.1184,5.1391,5.1576,5.1891,5.2203,5.2422,5.2773,5.3091,5.3357,5.3378,5.3398,5.342,5.342,5.3662,5.4238,5.4256,5.4626,5.5441,5.5478,5.5607,5.5902,5.6749,5.7217,5.7265,5.8058,5.8508,5.859,5.859,5.859]}]]